[[{"header":{"parameterUnit":"m.s-1","parameterCategory":1,"la1":31.0,"la2":29.5877,"lo1":-88.7671,"lo2":-86.6584,"dy":0.0162,"dx":0.0185,"nx":115,"ny":88,"refTime":"2023-11-02T18:00:00:Z","depth":0,"parameterNumber":2,"parameterNumberName":"U-component_of_WINDS"},"data":[0.0,0.0,0.0,0.0,0.0,0.0,0.0,0.0,0.0,0.0,0.0,0.0,0.0,0.0,0.0,0.0,0.0,0.0,0.0,0.0,0.0,0.0,0.0,0.0,0.0,0.0,0.0,0.0,0.0,0.0,0.0,0.0,0.0,0.0,0.0,0.0,0.0,0.0,0.0,0.0,0.0,0.0,0.0,0.0,0.0,0.0,0.0,0.0,0.0,0.0,0.0,0.0,0.0,0.0,0.0,0.0,0.0,0.0,0.0,0.0,0.0,0.0,0.0,0.0,0.0,0.0,0.0,0.0,0.0,0.0,0.0,0.0,0.0,0.0,0.0,0.0,0.0,0.0,0.0,0.0,0.0,0.0,0.0,0.0,0.0,0.0,0.0,0.0,0.0,0.0,0.0,0.0,0.0,0.0,0.0,0.0,0.0,0.0,0.0,0.0,0.0,0.0,0.0,0.0,0.0,0.0,0.0,0.0,0.0,0.0,0.0,0.0,0.0,0.0,0.0,0.0,0.0,0.0,0.0,0.0,0.0,0.0,0.0,0.0,0.0,0.0,0.0,0.0,0.0,0.0,0.0,0.0,0.0,0.0,0.0,0.0,0.0,0.0,0.0,0.0,0.0,0.0,0.0,0.0,0.0,0.0,0.0,0.0,0.0,0.0,0.0,0.0,0.0,0.0,0.0,0.0,0.0,0.0,0.0,0.0,0.0,0.0,0.0,0.0,0.0,0.0,0.0,0.0,0.0,0.0,0.0,0.0,0.0,0.0,0.0,0.0,0.0,0.0,0.0,0.0,0.0,0.0,0.0,0.0,0.0,0.0,0.0,0.0,0.0,0.0,0.0,0.0,0.0,0.0,0.0,0.0,0.0,0.0,0.0,0.0,0.0,0.0,0.0,0.0,0.0,0.0,0.0,0.0,0.0,0.0,0.0,0.0,0.0,0.0,0.0,0.0,0.0,0.0,0.0,0.0,0.0,0.0,0.0,0.0,0.0,0.0,0.0,0.0,0.0,0.0,0.0,0.0,0.0,0.0,0.0,0.0,0.0,0.0,0.0,0.0,0.0,0.0,0.0,0.0,0.0,0.0,0.0,0.0,0.0,0.0,0.0,0.0,0.0,0.0,0.0,0.0,0.0,0.0,0.0,0.0,0.0,0.0,0.0,0.0,0.0,0.0,0.0,0.0,0.0,0.0,0.0,0.0,0.0,0.0,0.0,0.0,0.0,0.0,0.0,0.0,0.0,0.0,0.0,0.0,0.0,0.0,0.0,0.0,0.0,0.0,0.0,0.0,0.0,0.0,0.0,0.0,0.0,0.0,0.0,0.0,0.0,0.0,0.0,0.0,0.0,0.0,0.0,0.0,0.0,0.0,0.0,0.0,0.0,0.0,0.0,0.0,0.0,0.0,0.0,0.0,0.0,0.0,0.0,0.0,0.0,0.0,0.0,0.0,0.0,0.0,0.0,0.0,0.0,0.0,0.0,0.0,0.0,0.0,0.0,0.0,0.0,0.0,0.0,0.0,0.0,0.0,0.0,0.0,0.0,0.0,0.0,0.0,0.0,0.0,0.0,0.0,0.0,0.0,0.0,0.0,0.0,0.0,0.0,0.0,0.0,0.0,0.0,0.0,0.0,0.0,0.0,0.0,0.0,0.0,0.0,0.0,0.0,0.0,0.0,0.0,0.0,0.0,0.0,0.0,0.0,0.0,0.0,0.0,0.0,0.0,0.0,0.0,0.0,0.0,0.0,0.0,0.0,0.0,0.0,0.0,0.0,0.0,0.0,0.0,0.0,0.0,0.0,0.0,0.0,0.0,0.0,0.0,0.0,0.0,0.0,0.0,0.0,0.0,0.0,0.0,0.0,0.0,0.0,0.0,0.0,0.0,0.0,0.0,0.0,0.0,0.0,0.0,0.0,0.0,0.0,0.0,0.0,0.0,0.0,0.0,0.0,0.0,0.0,0.0,0.0,0.0,0.0,0.0,0.0,0.0,0.0,0.0,0.0,0.0,0.0,0.0,0.0,0.0,0.0,0.0,0.0,0.0,0.0,0.0,0.0,0.0,0.0,0.0,0.0,0.0,0.0,0.0,0.0,0.0,0.0,0.0,0.0,0.0,0.0,0.0,0.0,0.0,0.0,0.0,0.0,0.0,0.0,0.0,0.0,0.0,0.0,0.0,0.0,0.0,0.0,0.0,0.0,0.0,0.0,0.0,0.0,0.0,0.0,0.0,0.0,0.0,0.0,0.0,0.0,0.0,0.0,0.0,0.0,0.0,0.0,0.0,0.0,0.0,0.0,0.0,0.0,0.0,0.0,0.0,0.0,0.0,0.0,0.0,0.0,0.0,0.0,0.0,0.0,0.0,0.0,0.0,0.0,0.0,0.0,0.0,0.0,0.0,0.0,0.0,0.0,0.0,0.0,0.0,0.0,0.0,0.0,0.0,0.0,0.0,0.0,0.0,0.0,0.0,0.0,0.0,0.0,0.0,0.0,0.0,0.0,0.0,0.0,0.0,0.0,0.0,0.0,0.0,0.0,0.0,0.0,0.0,0.0,0.0,0.0,0.0,0.0,0.0,0.0,0.0,0.0,0.0,0.0,0.0,0.0,0.0,0.0,0.0,0.0,0.0,0.0,0.0,0.0,0.0,0.0,0.0,0.0,0.0,0.0,0.0,0.0,0.0,0.0,0.0,0.0,0.0,0.0,0.0,0.0,0.0,0.0,0.0,0.0,0.0,0.0,0.0,0.0,0.0,0.0,0.0,0.0,0.0,0.0,0.0,0.0,0.0,0.0,0.0,0.0,0.0,0.0,0.0,0.0,0.0,0.0,0.0,0.0,0.0,0.0,0.0,0.0,0.0,0.0,0.0,0.0,0.0,0.0,0.0,0.0,0.0,0.0,0.0,0.0,0.0,0.0,0.0,0.0,0.0,0.0,0.0,0.0,0.0,0.0,0.0,0.0,0.0,0.0,0.0,0.0,0.0,0.0,0.0,0.0,0.0,0.0,0.0,0.0,0.0,0.0,0.0,0.0,0.0,0.0,0.0,0.0,0.0,0.0,0.0,0.0,0.0,0.0,0.0,0.0,0.0,0.0,0.0,0.0,0.0,0.0,0.0,0.0,0.0,0.0,0.0,0.0,0.0,0.0,0.0,0.0,0.0,0.0,0.0,0.0,0.0,0.0,0.0,0.0,0.0,0.0,0.0,0.0,0.0,0.0,0.0,0.0,0.0,0.0,0.0,0.0,0.0,0.0,0.0,0.0,0.0,0.0,0.0,0.0,0.0,0.0,0.0,0.0,0.0,0.0,0.0,0.0,0.0,0.0,0.0,0.0,0.0,0.0,0.0,0.0,0.0,0.0,0.0,0.0,0.0,0.0,0.0,0.0,0.0,0.0,0.0,0.0,0.0,0.0,0.0,0.0,0.0,0.0,0.0,0.0,0.0,0.0,0.0,0.0,0.0,0.0,0.0,0.0,0.0,0.0,0.0,0.0,0.0,0.0,0.0,0.0,0.0,0.0,0.0,0.0,0.0,0.0,0.0,0.0,0.0,0.0,0.0,0.0,0.0,0.0,0.0,0.0,0.0,0.0,0.0,0.0,0.0,0.0,0.0,0.0,0.0,0.0,0.0,0.0,0.0,0.0,0.0,0.0,0.0,0.0,0.0,0.0,0.0,0.0,0.0,0.0,0.0,0.0,0.0,0.0,0.0,0.0,0.0,0.0,0.0,0.0,0.0,0.0,0.0,0.0,0.0,0.0,0.0,0.0,0.0,0.0,0.0,0.0,0.0,0.0,0.0,0.0,0.0,0.0,0.0,0.0,0.0,0.0,0.0,0.0,0.0,0.0,0.0,0.0,0.0,0.0,0.0,0.0,0.0,0.0,0.0,0.0,0.0,0.0,0.0,0.0,0.0,0.0,0.0,0.0,0.0,0.0,0.0,0.0,0.0,0.0,0.0,0.0,0.0,0.0,0.0,0.0,0.0,0.0,0.0,0.0,0.0,0.0,0.0,0.0,0.0,0.0,0.0,0.0,0.0,0.0,0.0,0.0,0.0,0.0,0.0,0.0,0.0,0.0,0.0,0.0,0.0,0.0,0.0,0.0,0.0,0.0,0.0,0.0,0.0,0.0,0.0,0.0,0.0,0.0,0.0,0.0,0.0,0.0,0.0,0.0,0.0,0.0,0.0,0.0,0.0,0.0,0.0,0.0,0.0,0.0,0.0,0.0,0.0,0.0,0.0,0.0,0.0,0.0,0.0,0.0,0.0,0.0,0.0,-1.982,0.0,0.0,0.0,0.0,0.0,0.0,0.0,0.0,0.0,0.0,0.0,0.0,0.0,0.0,0.0,0.0,0.0,0.0,0.0,0.0,0.0,0.0,0.0,0.0,0.0,0.0,0.0,0.0,0.0,0.0,0.0,0.0,0.0,0.0,0.0,0.0,0.0,0.0,0.0,0.0,0.0,0.0,0.0,0.0,0.0,0.0,0.0,0.0,0.0,0.0,0.0,0.0,0.0,0.0,0.0,0.0,0.0,0.0,0.0,0.0,0.0,0.0,0.0,0.0,0.0,0.0,0.0,0.0,0.0,0.0,0.0,0.0,0.0,0.0,0.0,0.0,0.0,0.0,0.0,0.0,0.0,0.0,0.0,0.0,0.0,0.0,0.0,0.0,0.0,0.0,0.0,0.0,0.0,0.0,0.0,0.0,0.0,0.0,0.0,0.0,0.0,0.0,0.0,0.0,0.0,0.0,0.0,0.0,0.0,0.0,-2.1361,-2.0437,-2.0664,-2.0202,-1.9012,0.0,0.0,0.0,0.0,0.0,0.0,0.0,0.0,0.0,0.0,0.0,0.0,0.0,0.0,0.0,0.0,0.0,0.0,0.0,0.0,0.0,0.0,0.0,0.0,0.0,0.0,0.0,0.0,0.0,0.0,0.0,0.0,0.0,0.0,0.0,0.0,0.0,0.0,0.0,0.0,0.0,0.0,0.0,0.0,0.0,0.0,0.0,0.0,0.0,0.0,0.0,0.0,0.0,0.0,0.0,0.0,0.0,0.0,0.0,0.0,0.0,0.0,0.0,0.0,0.0,0.0,0.0,0.0,0.0,0.0,0.0,0.0,0.0,0.0,0.0,0.0,0.0,0.0,0.0,0.0,0.0,0.0,0.0,0.0,0.0,0.0,0.0,0.0,0.0,0.0,0.0,0.0,0.0,0.0,0.0,0.0,0.0,0.0,0.0,0.0,0.0,0.0,0.0,0.0,0.0,0.0,0.0,0.0,0.0,0.0,0.0,0.0,-2.0525,-2.0025,-1.8491,0.0,0.0,0.0,0.0,0.0,0.0,0.0,0.0,0.0,0.0,0.0,0.0,0.0,0.0,0.0,0.0,0.0,0.0,0.0,0.0,0.0,0.0,0.0,0.0,0.0,0.0,0.0,0.0,0.0,0.0,0.0,0.0,0.0,0.0,0.0,0.0,0.0,0.0,0.0,0.0,0.0,0.0,0.0,0.0,0.0,0.0,0.0,0.0,0.0,0.0,0.0,0.0,0.0,0.0,0.0,0.0,0.0,0.0,0.0,0.0,0.0,0.0,0.0,0.0,0.0,0.0,0.0,0.0,0.0,0.0,0.0,0.0,0.0,0.0,0.0,0.0,0.0,0.0,0.0,0.0,0.0,0.0,0.0,0.0,0.0,0.0,0.0,0.0,0.0,0.0,0.0,0.0,0.0,0.0,0.0,0.0,0.0,0.0,0.0,0.0,0.0,0.0,0.0,0.0,0.0,0.0,0.0,0.0,0.0,0.0,-2.0752,-1.953,-2.016,0.0,-1.8575,0.0,0.0,0.0,0.0,0.0,0.0,0.0,0.0,0.0,0.0,0.0,0.0,0.0,0.0,0.0,0.0,0.0,0.0,0.0,0.0,0.0,0.0,0.0,0.0,0.0,0.0,0.0,0.0,0.0,0.0,0.0,0.0,0.0,0.0,0.0,0.0,0.0,0.0,0.0,0.0,0.0,0.0,0.0,0.0,0.0,0.0,0.0,0.0,0.0,0.0,0.0,0.0,0.0,0.0,0.0,0.0,0.0,0.0,0.0,0.0,0.0,0.0,0.0,0.0,0.0,0.0,0.0,0.0,0.0,0.0,0.0,0.0,0.0,0.0,0.0,0.0,0.0,0.0,0.0,0.0,0.0,0.0,0.0,0.0,0.0,0.0,0.0,0.0,0.0,0.0,0.0,0.0,0.0,0.0,0.0,0.0,0.0,0.0,0.0,0.0,0.0,0.0,0.0,0.0,0.0,0.0,0.0,0.0,0.0,0.0,-2.0669,-1.9761,-1.9381,-1.8775,0.0,0.0,0.0,0.0,0.0,0.0,0.0,0.0,0.0,0.0,0.0,0.0,0.0,0.0,0.0,0.0,0.0,0.0,0.0,0.0,0.0,0.0,0.0,0.0,0.0,0.0,0.0,0.0,0.0,0.0,0.0,0.0,0.0,0.0,0.0,0.0,0.0,0.0,0.0,0.0,0.0,0.0,0.0,0.0,0.0,0.0,0.0,0.0,0.0,0.0,0.0,0.0,0.0,0.0,0.0,0.0,0.0,0.0,0.0,0.0,0.0,0.0,0.0,0.0,0.0,0.0,0.0,0.0,0.0,0.0,0.0,0.0,0.0,0.0,0.0,0.0,0.0,0.0,0.0,0.0,0.0,0.0,0.0,0.0,0.0,0.0,0.0,0.0,0.0,0.0,0.0,0.0,0.0,0.0,0.0,0.0,0.0,0.0,0.0,0.0,0.0,0.0,0.0,0.0,0.0,0.0,0.0,0.0,0.0,0.0,-2.0663,-2.0623,-2.0316,-1.9,-1.8217,-1.8071,0.0,0.0,0.0,0.0,0.0,0.0,0.0,0.0,0.0,0.0,0.0,0.0,0.0,0.0,0.0,0.0,0.0,0.0,0.0,0.0,0.0,0.0,0.0,0.0,0.0,0.0,0.0,0.0,0.0,0.0,0.0,0.0,0.0,0.0,0.0,0.0,0.0,0.0,0.0,0.0,0.0,0.0,0.0,0.0,0.0,0.0,0.0,0.0,0.0,0.0,0.0,0.0,0.0,0.0,0.0,0.0,0.0,0.0,0.0,0.0,0.0,0.0,0.0,0.0,0.0,0.0,0.0,0.0,0.0,0.0,0.0,0.0,0.0,0.0,0.0,0.0,0.0,0.0,0.0,0.0,0.0,0.0,0.0,0.0,0.0,0.0,0.0,0.0,0.0,0.0,0.0,0.0,0.0,0.0,0.0,0.0,0.0,0.0,0.0,0.0,0.0,0.0,0.0,0.0,0.0,0.0,0.0,0.0,-2.0208,-2.0361,-2.0697,-2.1133,-1.9316,-1.8677,0.0,0.0,0.0,0.0,0.0,0.0,0.0,0.0,0.0,0.0,0.0,0.0,0.0,0.0,0.0,0.0,0.0,0.0,0.0,0.0,0.0,0.0,0.0,0.0,0.0,0.0,0.0,0.0,0.0,0.0,0.0,0.0,0.0,0.0,0.0,0.0,0.0,0.0,0.0,0.0,0.0,0.0,0.0,0.0,0.0,0.0,0.0,0.0,0.0,0.0,0.0,0.0,0.0,0.0,0.0,0.0,0.0,0.0,0.0,0.0,0.0,0.0,0.0,0.0,0.0,0.0,0.0,0.0,0.0,0.0,0.0,0.0,0.0,0.0,0.0,0.0,0.0,0.0,0.0,0.0,0.0,0.0,0.0,0.0,0.0,0.0,0.0,0.0,0.0,0.0,0.0,0.0,0.0,0.0,0.0,0.0,0.0,0.0,0.0,0.0,0.0,0.0,0.0,0.0,0.0,0.0,0.0,0.0,0.0,-2.008,-2.0595,-2.0751,-2.0477,-1.9971,-1.9411,0.0,0.0,0.0,0.0,0.0,0.0,0.0,0.0,0.0,0.0,0.0,0.0,0.0,0.0,0.0,0.0,0.0,0.0,0.0,0.0,0.0,0.0,0.0,0.0,0.0,0.0,0.0,0.0,0.0,0.0,0.0,0.0,0.0,0.0,0.0,0.0,0.0,0.0,0.0,0.0,0.0,0.0,0.0,0.0,0.0,0.0,0.0,0.0,0.0,0.0,0.0,0.0,0.0,0.0,0.0,0.0,0.0,0.0,0.0,0.0,0.0,0.0,0.0,0.0,0.0,0.0,0.0,0.0,0.0,0.0,0.0,0.0,0.0,0.0,0.0,0.0,0.0,0.0,0.0,0.0,0.0,0.0,0.0,0.0,0.0,0.0,0.0,0.0,0.0,0.0,0.0,0.0,0.0,0.0,0.0,0.0,0.0,0.0,0.0,0.0,0.0,0.0,0.0,0.0,0.0,0.0,0.0,0.0,0.0,-1.9833,0.0,-2.0831,-2.0226,-2.0263,-1.9874,0.0,0.0,0.0,0.0,0.0,0.0,0.0,0.0,0.0,0.0,0.0,0.0,0.0,0.0,0.0,0.0,0.0,0.0,0.0,0.0,0.0,0.0,0.0,0.0,0.0,0.0,0.0,0.0,0.0,0.0,0.0,0.0,0.0,0.0,0.0,0.0,0.0,0.0,0.0,0.0,0.0,0.0,0.0,0.0,0.0,0.0,0.0,0.0,0.0,0.0,0.0,0.0,0.0,0.0,0.0,0.0,0.0,0.0,0.0,0.0,0.0,0.0,0.0,0.0,0.0,0.0,0.0,0.0,0.0,0.0,0.0,0.0,0.0,0.0,0.0,0.0,0.0,0.0,0.0,0.0,0.0,0.0,0.0,0.0,0.0,0.0,0.0,0.0,0.0,0.0,0.0,0.0,0.0,0.0,0.0,0.0,0.0,0.0,0.0,0.0,0.0,0.0,0.0,0.0,0.0,0.0,0.0,0.0,-1.925,-1.9515,-2.0697,-2.1055,-2.0599,-2.0131,-2.0042,0.0,0.0,0.0,0.0,0.0,0.0,0.0,0.0,0.0,0.0,0.0,0.0,0.0,0.0,0.0,0.0,0.0,0.0,0.0,0.0,0.0,0.0,0.0,0.0,0.0,0.0,0.0,0.0,0.0,0.0,0.0,0.0,0.0,0.0,0.0,0.0,0.0,0.0,0.0,0.0,0.0,0.0,0.0,0.0,0.0,0.0,0.0,0.0,0.0,0.0,0.0,0.0,0.0,0.0,0.0,0.0,0.0,0.0,0.0,0.0,0.0,0.0,0.0,0.0,0.0,0.0,0.0,0.0,0.0,0.0,0.0,0.0,0.0,0.0,0.0,0.0,0.0,0.0,0.0,0.0,0.0,0.0,0.0,0.0,0.0,0.0,0.0,0.0,0.0,0.0,0.0,0.0,0.0,0.0,0.0,0.0,0.0,0.0,0.0,0.0,0.0,0.0,0.0,0.0,0.0,0.0,0.0,0.0,0.0,-1.9515,-2.0597,-2.099,-2.0614,-2.0751,-2.0587,0.0,0.0,0.0,0.0,0.0,0.0,0.0,0.0,0.0,0.0,0.0,0.0,0.0,0.0,0.0,0.0,0.0,0.0,0.0,0.0,0.0,0.0,0.0,0.0,0.0,0.0,0.0,0.0,0.0,0.0,0.0,0.0,0.0,0.0,0.0,0.0,0.0,0.0,0.0,0.0,0.0,0.0,0.0,0.0,0.0,0.0,0.0,0.0,0.0,0.0,0.0,0.0,0.0,0.0,0.0,0.0,0.0,0.0,0.0,0.0,0.0,0.0,0.0,0.0,0.0,0.0,0.0,0.0,0.0,0.0,0.0,0.0,0.0,0.0,0.0,0.0,0.0,0.0,0.0,0.0,0.0,0.0,0.0,0.0,0.0,0.0,0.0,0.0,0.0,0.0,0.0,0.0,0.0,0.0,0.0,0.0,0.0,0.0,0.0,0.0,0.0,0.0,0.0,0.0,0.0,0.0,0.0,0.0,0.0,-1.9515,-2.0326,-2.0663,-2.0447,-2.073,-2.0687,-2.0304,0.0,0.0,0.0,0.0,0.0,0.0,0.0,0.0,0.0,0.0,0.0,0.0,0.0,0.0,0.0,0.0,0.0,0.0,0.0,0.0,0.0,0.0,0.0,0.0,0.0,0.0,0.0,0.0,0.0,0.0,0.0,0.0,0.0,0.0,0.0,0.0,0.0,0.0,0.0,0.0,0.0,0.0,0.0,0.0,0.0,0.0,0.0,0.0,0.0,0.0,0.0,0.0,0.0,0.0,0.0,0.0,0.0,0.0,0.0,0.0,0.0,0.0,0.0,0.0,0.0,0.0,0.0,0.0,0.0,0.0,0.0,0.0,0.0,0.0,0.0,0.0,0.0,0.0,0.0,0.0,0.0,0.0,0.0,0.0,0.0,0.0,0.0,0.0,0.0,0.0,0.0,0.0,0.0,0.0,0.0,0.0,0.0,0.0,0.0,0.0,0.0,0.0,0.0,0.0,0.0,0.0,0.0,0.0,-1.9434,-1.9914,-2.0174,-2.0243,-2.0243,-2.0447,0.0,0.0,0.0,0.0,0.0,0.0,0.0,0.0,0.0,0.0,0.0,0.0,0.0,0.0,0.0,0.0,0.0,0.0,0.0,0.0,0.0,0.0,0.0,0.0,0.0,0.0,0.0,0.0,0.0,0.0,0.0,0.0,0.0,0.0,0.0,0.0,0.0,0.0,0.0,0.0,0.0,0.0,0.0,0.0,0.0,0.0,0.0,0.0,0.0,0.0,0.0,0.0,0.0,0.0,0.0,0.0,0.0,0.0,0.0,0.0,0.0,0.0,0.0,0.0,0.0,0.0,0.0,0.0,0.0,0.0,0.0,0.0,0.0,0.0,0.0,0.0,0.0,0.0,0.0,0.0,0.0,0.0,0.0,0.0,0.0,0.0,0.0,0.0,0.0,0.0,0.0,0.0,0.0,0.0,0.0,0.0,0.0,0.0,0.0,0.0,0.0,0.0,0.0,0.0,0.0,0.0,0.0,0.0,0.0,-1.8542,-1.9292,-1.9929,-2.0447,-2.0481,-2.0663,0.0,0.0,0.0,0.0,0.0,0.0,0.0,0.0,0.0,0.0,0.0,0.0,0.0,0.0,0.0,0.0,0.0,0.0,0.0,0.0,0.0,0.0,0.0,0.0,0.0,0.0,0.0,0.0,0.0,0.0,0.0,0.0,0.0,0.0,0.0,0.0,0.0,0.0,0.0,0.0,0.0,0.0,0.0,0.0,0.0,0.0,0.0,0.0,0.0,0.0,0.0,0.0,0.0,0.0,0.0,0.0,0.0,0.0,0.0,0.0,0.0,0.0,0.0,0.0,0.0,0.0,0.0,0.0,0.0,0.0,0.0,0.0,0.0,0.0,0.0,0.0,0.0,0.0,0.0,0.0,0.0,0.0,0.0,0.0,0.0,0.0,0.0,0.0,0.0,0.0,0.0,0.0,0.0,0.0,0.0,0.0,0.0,0.0,0.0,0.0,0.0,0.0,0.0,0.0,0.0,0.0,0.0,0.0,-1.8218,-1.8745,-1.9403,-1.9945,-2.0496,-2.0563,-2.0614,0.0,0.0,0.0,0.0,0.0,0.0,0.0,0.0,0.0,0.0,0.0,0.0,0.0,0.0,0.0,0.0,0.0,0.0,0.0,0.0,0.0,0.0,0.0,0.0,0.0,0.0,0.0,0.0,0.0,0.0,0.0,0.0,0.0,0.0,0.0,0.0,0.0,0.0,0.0,0.0,0.0,0.0,0.0,0.0,0.0,0.0,0.0,0.0,0.0,0.0,0.0,0.0,0.0,0.0,0.0,0.0,0.0,0.0,0.0,0.0,0.0,0.0,0.0,0.0,0.0,0.0,0.0,0.0,0.0,0.0,0.0,0.0,0.0,0.0,0.0,0.0,0.0,0.0,0.0,0.0,0.0,0.0,0.0,0.0,0.0,0.0,0.0,0.0,0.0,0.0,0.0,0.0,0.0,0.0,0.0,0.0,0.0,0.0,0.0,0.0,0.0,0.0,0.0,0.0,0.0,0.0,0.0,0.0,-1.8189,-1.9413,-1.9777,-2.0045,-2.0292,-2.0462,-2.0462,0.0,0.0,0.0,0.0,0.0,0.0,0.0,0.0,0.0,0.0,0.0,0.0,0.0,0.0,0.0,0.0,0.0,0.0,0.0,0.0,0.0,0.0,0.0,0.0,0.0,0.0,0.0,0.0,0.0,0.0,0.0,0.0,0.0,0.0,0.0,0.0,0.0,0.0,0.0,0.0,0.0,0.0,0.0,0.0,0.0,0.0,0.0,0.0,0.0,0.0,0.0,0.0,0.0,0.0,0.0,0.0,0.0,0.0,0.0,0.0,0.0,0.0,0.0,0.0,0.0,0.0,0.0,0.0,0.0,0.0,0.0,0.0,0.0,0.0,0.0,0.0,0.0,0.0,0.0,0.0,0.0,0.0,0.0,0.0,0.0,0.0,0.0,0.0,0.0,0.0,0.0,0.0,0.0,0.0,0.0,0.0,0.0,0.0,0.0,0.0,0.0,0.0,0.0,0.0,0.0,0.0,0.0,0.0,-1.7914,-1.9155,-1.9457,-1.9639,-1.9696,-1.9975,-2.0254,0.0,0.0,0.0,0.0,0.0,0.0,0.0,0.0,0.0,0.0,0.0,0.0,0.0,0.0,0.0,0.0,0.0,0.0,0.0,0.0,0.0,0.0,0.0,0.0,0.0,0.0,0.0,0.0,0.0,0.0,0.0,0.0,0.0,0.0,0.0,0.0,0.0,0.0,0.0,0.0,0.0,0.0,0.0,0.0,0.0,0.0,0.0,0.0,-0.5468,0.0,0.0,0.0,0.0,0.0,0.0,0.0,0.0,0.0,0.0,0.0,0.0,0.0,0.0,0.0,0.0,0.0,0.0,0.0,0.0,0.0,0.0,0.0,0.0,0.0,0.0,0.0,0.0,0.0,0.0,0.0,0.0,0.0,0.0,0.0,0.0,0.0,0.0,0.0,0.0,0.0,0.0,0.0,0.0,0.0,0.0,0.0,0.0,0.0,0.0,0.0,0.0,0.0,0.0,0.0,0.0,0.0,0.0,0.0,-1.7809,-1.9043,-1.9236,-1.9347,-1.9493,-1.9675,-1.9854,0.0,0.0,0.0,0.0,0.0,0.0,0.0,0.0,0.0,0.0,0.0,0.0,0.0,0.0,0.0,0.0,0.0,0.0,0.0,0.0,0.0,0.0,0.0,0.0,0.0,0.0,0.0,0.0,0.0,0.0,0.0,0.0,0.0,0.0,0.0,0.0,0.0,0.0,0.0,0.0,0.0,0.0,0.0,0.0,0.0,0.0,0.0,0.0,0.0,0.0,0.0,0.0,0.0,0.0,0.0,0.0,0.0,0.0,0.0,0.0,0.0,0.0,0.0,0.0,0.0,0.0,0.0,0.0,0.0,0.0,0.0,0.0,0.0,0.0,0.0,0.0,0.0,0.0,0.0,0.0,0.0,0.0,0.0,0.0,0.0,0.0,0.0,0.0,0.0,0.0,0.0,0.0,0.0,0.0,0.0,0.0,0.0,0.0,0.0,0.0,0.0,0.0,0.0,0.0,0.0,0.0,0.0,-1.7548,-1.7824,-1.9043,-1.9116,-1.9213,-1.942,-1.939,-1.933,-1.9309,0.0,0.0,0.0,0.0,0.0,0.0,0.0,0.0,0.0,0.0,0.0,0.0,0.0,0.0,0.0,0.0,0.0,0.0,0.0,0.0,0.0,0.0,0.0,0.0,0.0,0.0,0.0,0.0,0.0,0.0,0.0,0.0,0.0,0.0,0.0,0.0,0.0,0.0,-0.5471,-0.5874,0.0,0.0,0.0,0.0,0.0,0.0,0.0,0.0,-0.5784,0.0,0.0,0.0,0.0,0.0,0.0,0.0,0.0,0.0,0.0,0.0,0.0,0.0,0.0,0.0,0.0,0.0,0.0,0.0,0.0,0.0,0.0,0.0,0.0,0.0,0.0,0.0,0.0,0.0,0.0,0.0,0.0,0.0,0.0,0.0,0.0,0.0,0.0,0.0,0.0,0.0,0.0,0.0,0.0,0.0,0.0,0.0,0.0,0.0,0.0,0.0,0.0,0.0,0.0,0.0,0.0,-1.7928,-1.745,-1.7809,-1.9058,-1.9116,-1.9139,-1.9147,-1.8903,-1.8623,-1.8483,0.0,0.0,0.0,0.0,0.0,0.0,0.0,0.0,0.0,0.0,0.0,0.0,0.0,0.0,0.0,0.0,0.0,0.0,0.0,0.0,0.0,0.0,0.0,0.0,0.0,0.0,0.0,0.0,0.0,0.0,0.0,0.0,0.0,0.0,0.0,0.0,0.0,0.0,0.0,-0.638,-0.6482,0.0,0.0,0.0,0.0,0.0,0.0,0.0,0.0,-0.6044,0.0,0.0,0.0,0.0,0.0,0.0,0.0,0.0,0.0,0.0,0.0,0.0,0.0,0.0,0.0,0.0,0.0,0.0,0.0,0.0,0.0,0.0,0.0,0.0,0.0,0.0,0.0,0.0,0.0,0.0,0.0,0.0,0.0,0.0,0.0,0.0,0.0,0.0,0.0,0.0,0.0,0.0,0.0,0.0,0.0,0.0,0.0,0.0,0.0,0.0,0.0,0.0,0.0,0.0,0.0,-1.7426,-1.7624,-1.8172,-1.9072,-1.9116,-1.9116,-1.9087,-1.8657,-1.8385,0.0,0.0,0.0,0.0,0.0,0.0,0.0,0.0,0.0,0.0,0.0,0.0,0.0,0.0,0.0,0.0,0.0,0.0,0.0,0.0,0.0,0.0,0.0,0.0,0.0,0.0,0.0,0.0,0.0,0.0,0.0,0.0,0.0,0.0,0.0,0.0,0.0,0.0,0.0,0.0,-0.6717,-0.6945,-0.7401,0.0,0.0,0.0,0.0,0.0,0.0,-0.702,-0.6756,0.0,0.0,0.0,0.0,0.0,0.0,0.0,0.0,0.0,0.0,0.0,0.0,0.0,0.0,0.0,0.0,0.0,0.0,0.0,0.0,0.0,0.0,0.0,0.0,0.0,0.0,0.0,0.0,0.0,0.0,0.0,0.0,0.0,0.0,0.0,0.0,0.0,0.0,0.0,0.0,0.0,0.0,0.0,0.0,0.0,0.0,0.0,0.0,0.0,0.0,0.0,0.0,0.0,0.0,0.0,-1.7397,-1.8043,-1.8753,-1.9449,-1.9478,-1.942,-1.9304,-1.8753,-1.8316,0.0,0.0,0.0,0.0,0.0,0.0,0.0,0.0,0.0,0.0,0.0,0.0,0.0,0.0,0.0,0.0,0.0,0.0,0.0,0.0,0.0,0.0,0.0,0.0,0.0,0.0,0.0,0.0,0.0,0.0,0.0,0.0,0.0,0.0,0.0,0.0,0.0,0.0,0.0,0.0,0.0,-0.7498,-0.8246,-0.8262,0.0,0.0,0.0,0.0,-0.7871,-0.7551,0.0,0.0,0.0,0.0,0.0,0.0,0.0,0.0,0.0,0.0,0.0,0.0,0.0,0.0,0.0,0.0,0.0,0.0,0.0,0.0,0.0,0.0,0.0,0.0,0.0,0.0,0.0,0.0,0.0,0.0,0.0,0.0,0.0,0.0,0.0,0.0,0.0,0.0,0.0,0.0,0.0,0.0,0.0,0.0,0.0,0.0,0.0,0.0,0.0,0.0,0.0,0.0,0.0,0.0,0.0,0.0,-1.8674,-1.8896,-1.958,-2.0698,-2.077,-2.0524,-2.0001,-1.9333,-1.8462,0.0,0.0,0.0,0.0,0.0,0.0,0.0,0.0,0.0,0.0,0.0,0.0,0.0,0.0,0.0,0.0,0.0,0.0,0.0,0.0,0.0,0.0,0.0,0.0,0.0,0.0,0.0,0.0,0.0,0.0,0.0,0.0,0.0,0.0,0.0,0.0,0.0,0.0,0.0,0.0,0.0,-0.8004,-0.8119,-0.7812,-0.7599,0.0,0.0,-0.7599,-0.8019,-0.8025,0.0,0.0,0.0,0.0,0.0,0.0,0.0,0.0,0.0,0.0,0.0,0.0,0.0,0.0,0.0,0.0,0.0,0.0,0.0,0.0,0.0,0.0,0.0,0.0,0.0,0.0,0.0,0.0,0.0,0.0,0.0,0.0,0.0,0.0,0.0,0.0,0.0,0.0,0.0,0.0,0.0,0.0,0.0,0.0,0.0,0.0,0.0,0.0,0.0,0.0,0.0,0.0,0.0,0.0,0.0,-1.8939,-1.9405,-1.9922,-2.0451,-2.0959,-2.0988,-2.0954,-2.0892,-2.0436,-1.9864,0.0,0.0,0.0,0.0,0.0,0.0,0.0,0.0,0.0,0.0,0.0,0.0,0.0,0.0,0.0,0.0,0.0,0.0,0.0,0.0,0.0,0.0,0.0,0.0,0.0,0.0,0.0,0.0,0.0,0.0,0.0,0.0,0.0,0.0,0.0,0.0,0.0,0.0,0.0,0.0,0.0,0.0,-0.8725,-0.8482,0.0,0.0,0.0,-0.8223,-0.8421,0.0,0.0,0.0,0.0,0.0,0.0,0.0,0.0,0.0,0.0,0.0,0.0,0.0,0.0,0.0,0.0,0.0,0.0,0.0,0.0,0.0,0.0,0.0,0.0,0.0,0.0,0.0,0.0,0.0,0.0,0.0,0.0,0.0,0.0,0.0,0.0,0.0,0.0,0.0,0.0,0.0,0.0,0.0,0.0,0.0,0.0,0.0,0.0,0.0,0.0,0.0,0.0,0.0,0.0,0.0,0.0,0.0,-2.0361,-2.0961,-2.1322,-2.1481,-2.1524,-2.1618,-2.1713,-2.1449,0.0,0.0,0.0,0.0,0.0,0.0,0.0,0.0,0.0,0.0,0.0,0.0,0.0,0.0,0.0,0.0,0.0,0.0,0.0,0.0,0.0,0.0,0.0,0.0,0.0,0.0,0.0,-1.0345,0.0,0.0,0.0,0.0,0.0,0.0,0.0,0.0,0.0,0.0,0.0,0.0,0.0,0.0,-0.8837,-0.9263,-0.9066,-0.8919,0.0,0.0,-0.8717,-0.8912,-0.9109,-0.9211,0.0,0.0,0.0,0.0,0.0,0.0,0.0,0.0,0.0,0.0,0.0,0.0,0.0,0.0,0.0,0.0,0.0,0.0,0.0,0.0,0.0,0.0,0.0,0.0,0.0,0.0,0.0,0.0,0.0,0.0,0.0,0.0,0.0,0.0,0.0,0.0,0.0,0.0,0.0,0.0,0.0,0.0,0.0,0.0,0.0,0.0,0.0,0.0,0.0,0.0,0.0,0.0,0.0,0.0,-2.1191,-2.183,-2.1902,-2.2207,-2.2728,-2.2921,-2.2805,-2.2441,-2.2229,-2.1665,0.0,0.0,0.0,0.0,0.0,0.0,0.0,0.0,0.0,0.0,0.0,0.0,0.0,0.0,0.0,0.0,0.0,0.0,0.0,0.0,0.0,0.0,0.0,0.0,0.0,0.0,0.0,0.0,0.0,0.0,0.0,0.0,0.0,0.0,0.0,0.0,0.0,0.0,0.0,0.0,0.0,-0.9047,-0.9695,-0.934,-0.9214,0.0,-0.928,-0.8954,-0.9474,-0.9451,-0.9368,-0.9278,0.0,0.0,0.0,0.0,0.0,0.0,0.0,0.0,0.0,0.0,0.0,0.0,0.0,0.0,0.0,0.0,0.0,0.0,0.0,0.0,0.0,0.0,0.0,0.0,0.0,0.0,0.0,0.0,0.0,0.0,0.0,0.0,0.0,0.0,0.0,0.0,0.0,0.0,0.0,0.0,0.0,0.0,0.0,0.0,0.0,0.0,0.0,0.0,0.0,0.0,0.0,0.0,0.0,-2.1931,-2.257,-2.254,-2.2656,-2.2873,-2.2947,-2.3157,-2.3588,-2.3655,-2.3559,0.0,0.0,0.0,0.0,0.0,0.0,0.0,0.0,0.0,0.0,0.0,0.0,0.0,0.0,0.0,0.0,0.0,0.0,0.0,0.0,0.0,0.0,0.0,0.0,0.0,0.0,0.0,0.0,-1.2392,-1.1876,-1.1417,0.0,0.0,0.0,0.0,0.0,0.0,0.0,0.0,0.0,0.0,-1.061,-1.0771,-1.0372,0.0,0.0,-1.0098,-1.0021,-1.0748,-1.0624,-1.0544,-1.0802,-1.0551,0.0,0.0,0.0,0.0,0.0,0.0,0.0,0.0,0.0,0.0,0.0,0.0,0.0,0.0,0.0,0.0,0.0,0.0,0.0,0.0,0.0,0.0,0.0,0.0,0.0,0.0,0.0,0.0,0.0,0.0,0.0,0.0,0.0,0.0,0.0,0.0,0.0,0.0,0.0,0.0,0.0,0.0,0.0,0.0,0.0,0.0,0.0,0.0,0.0,0.0,0.0,0.0,-2.2497,-2.2888,-2.2888,-2.2902,-2.2933,-2.2978,-2.3363,-2.4151,-2.423,-2.4477,0.0,0.0,0.0,0.0,0.0,0.0,0.0,0.0,0.0,0.0,0.0,0.0,0.0,0.0,0.0,0.0,0.0,0.0,0.0,0.0,0.0,0.0,0.0,0.0,0.0,0.0,0.0,0.0,-1.3408,-1.2819,-1.2209,0.0,0.0,0.0,0.0,0.0,0.0,0.0,0.0,0.0,0.0,-1.1989,-1.2148,-1.1671,-1.1316,-1.1412,-1.1009,-1.0856,-1.144,-1.1495,-1.1575,-1.2011,0.0,0.0,0.0,0.0,0.0,0.0,0.0,0.0,0.0,0.0,0.0,0.0,0.0,0.0,0.0,0.0,0.0,0.0,0.0,0.0,0.0,0.0,0.0,0.0,0.0,0.0,0.0,0.0,0.0,0.0,-2.4408,0.0,0.0,0.0,0.0,0.0,0.0,0.0,0.0,0.0,0.0,0.0,0.0,0.0,0.0,0.0,0.0,0.0,0.0,0.0,0.0,0.0,0.0,-2.2859,-2.2888,-2.2888,-2.2933,-2.3082,-2.3246,-2.3451,-2.3782,-2.3625,-2.3824,-2.443,0.0,0.0,0.0,0.0,0.0,0.0,0.0,0.0,0.0,0.0,0.0,0.0,0.0,0.0,0.0,0.0,0.0,0.0,0.0,0.0,0.0,0.0,0.0,0.0,0.0,0.0,-1.434,-1.4362,-1.4258,0.0,0.0,0.0,0.0,0.0,0.0,0.0,0.0,0.0,0.0,-1.266,-1.2954,-1.3719,-1.315,-1.2659,-1.2668,-1.1919,-1.1326,-1.1439,-1.188,-1.238,0.0,0.0,0.0,0.0,0.0,0.0,0.0,0.0,0.0,0.0,0.0,0.0,0.0,0.0,0.0,0.0,0.0,0.0,0.0,0.0,0.0,0.0,0.0,0.0,0.0,0.0,0.0,-2.4523,-2.4523,0.0,0.0,0.0,0.0,0.0,0.0,0.0,0.0,0.0,0.0,0.0,-2.4601,-2.4754,0.0,0.0,0.0,0.0,0.0,0.0,0.0,0.0,0.0,0.0,0.0,0.0,-2.2888,-2.2888,-2.2888,-2.2902,-2.2978,-2.3127,-2.3378,-2.3852,-2.3909,-2.423,-2.4902,0.0,0.0,0.0,0.0,0.0,0.0,0.0,0.0,0.0,0.0,0.0,0.0,0.0,0.0,0.0,0.0,0.0,0.0,0.0,0.0,0.0,0.0,0.0,0.0,0.0,-1.4373,0.0,0.0,0.0,0.0,0.0,0.0,0.0,0.0,0.0,0.0,0.0,-1.3205,-1.3932,-1.4304,-1.4573,-1.4883,-1.4572,-1.4366,0.0,0.0,0.0,0.0,0.0,0.0,0.0,0.0,0.0,0.0,0.0,0.0,0.0,0.0,-1.311,-1.2226,-1.148,-1.0838,-1.04,0.0,0.0,0.0,0.0,0.0,0.0,0.0,0.0,0.0,0.0,0.0,0.0,0.0,0.0,-2.5253,0.0,-2.5238,0.0,0.0,0.0,0.0,0.0,0.0,0.0,0.0,-2.6277,-2.6046,-2.5362,-2.5668,-2.5594,0.0,-2.5153,-2.4863,0.0,0.0,0.0,0.0,0.0,0.0,0.0,0.0,-2.3231,-2.3231,-2.3275,-2.3275,-2.3319,-2.3246,-2.3422,-2.3794,-2.4188,-2.4583,-2.5059,-2.4847,-2.4808,0.0,0.0,0.0,0.0,0.0,0.0,0.0,0.0,0.0,0.0,0.0,0.0,0.0,0.0,0.0,0.0,0.0,0.0,0.0,0.0,0.0,0.0,0.0,-1.4753,0.0,0.0,0.0,0.0,0.0,0.0,0.0,0.0,0.0,-1.3679,-1.3959,-1.4429,-1.5195,-1.5532,-1.5859,-1.6031,0.0,0.0,0.0,0.0,0.0,0.0,0.0,-1.5138,-1.5853,-1.5565,-1.5196,-1.5264,-1.5391,-1.5449,-1.5148,0.0,0.0,-1.3688,-1.2998,-1.2461,-1.2077,-1.16,-1.1135,-1.0519,-1.0276,-1.0151,0.0,0.0,0.0,0.0,0.0,0.0,0.0,0.0,-2.6674,-2.6657,0.0,-2.6573,0.0,0.0,0.0,0.0,0.0,-2.6262,0.0,0.0,-2.6295,-2.6277,-2.6203,-2.6203,-2.622,-2.6203,-2.6168,-2.5917,-2.5368,-2.4446,0.0,0.0,0.0,0.0,0.0,0.0,-2.3779,-2.3879,-2.3879,-2.3979,-2.4063,-2.3754,-2.3581,-2.3638,-2.4461,-2.4902,-2.4902,-2.4808,-2.4712,-2.4672,-2.3709,0.0,0.0,0.0,0.0,0.0,0.0,0.0,0.0,0.0,0.0,0.0,0.0,0.0,0.0,0.0,0.0,0.0,0.0,0.0,0.0,-1.5638,0.0,0.0,0.0,0.0,0.0,0.0,0.0,0.0,0.0,0.0,-1.4965,-1.4787,-1.5142,-1.6278,0.0,0.0,0.0,0.0,-1.6177,-1.6177,-1.5545,-1.5021,-1.508,-1.5661,-1.612,-1.6177,0.0,0.0,-1.6093,-1.6457,-1.6637,-1.6104,-1.6457,-1.6389,-1.5061,-1.4505,-1.4278,-1.4227,-1.4022,-1.3837,-1.3243,-1.2918,-1.2769,-2.7402,0.0,0.0,0.0,0.0,-2.6708,-2.6708,-2.6708,-2.6708,-2.6708,-2.6708,-2.6657,0.0,0.0,0.0,0.0,0.0,0.0,-2.6365,-2.6503,-2.6382,-2.6347,-2.6415,-2.6329,-2.6258,-2.622,-2.6203,-2.6132,-2.5954,-2.5368,-2.4712,-2.4105,0.0,0.0,0.0,0.0,-2.3879,-2.3879,-2.3879,-2.409,-2.4461,-2.4364,-2.4256,-2.4094,-2.4623,-2.4902,-2.4902,-2.516,-2.5105,-2.4712,-2.4389,0.0,0.0,0.0,0.0,0.0,0.0,0.0,0.0,0.0,0.0,0.0,0.0,0.0,0.0,0.0,0.0,0.0,0.0,0.0,-1.6478,-1.6788,-1.6896,0.0,0.0,0.0,0.0,0.0,0.0,0.0,0.0,0.0,-1.7144,-1.646,-1.6278,0.0,0.0,-1.717,-1.7534,-1.7368,-1.7301,-1.7512,-1.7335,0.0,-1.7168,-1.7101,-1.7157,-1.7457,-1.7523,-1.7423,-1.719,-1.7368,-1.7423,-1.7468,-1.7346,-1.7134,-1.6775,-1.6368,-1.5921,-1.5517,-1.5391,-1.5148,-1.456,-1.4373,-1.4195,-2.7452,-2.6455,-2.6505,-2.6556,-2.6708,-2.6708,-2.6708,-2.6708,-2.6708,-2.6708,-2.6674,-2.6387,-2.6268,-2.6251,-2.5832,0.0,0.0,0.0,-2.5913,-2.605,-2.6195,-2.631,-2.6364,-2.5977,-2.5809,-2.5756,-2.5475,-2.5342,-2.5342,-2.5032,-2.4604,-2.409,0.0,0.0,-2.3566,-2.4006,-2.4158,-2.4078,-2.4063,-2.4256,-2.4704,-2.4752,-2.4768,-2.4784,-2.502,-2.5137,-2.5121,-2.5351,-2.5335,-2.5028,-2.4592,-2.4184,0.0,0.0,0.0,0.0,0.0,0.0,0.0,0.0,0.0,0.0,0.0,-1.9249,-1.7643,0.0,0.0,0.0,-1.7854,-1.7777,-1.7879,-1.8141,0.0,0.0,0.0,0.0,0.0,0.0,0.0,-1.7838,-1.8105,-1.829,-1.829,-1.7637,-1.7256,-1.7556,-1.7601,-1.7656,-1.781,0.0,-1.7852,-1.7798,-1.7775,-1.7706,-1.75,-1.7243,-1.7126,-1.7413,-1.7543,-1.756,-1.756,-1.7718,-1.792,-1.803,-1.781,-1.759,-1.77,-1.7312,-1.6874,-1.6343,-1.6218,-1.6046,-1.5449,-1.5274,-1.5148,-2.7503,-2.8078,-2.7992,-2.7571,-2.6877,-2.6877,-2.6877,-2.6877,-2.6877,-2.686,-2.6826,-2.6099,-2.5744,-2.5642,-2.4792,0.0,-2.4426,-2.4979,-2.5278,-2.533,-2.5907,-2.622,-2.6187,-2.5508,-2.5193,-2.5176,-2.4497,-2.4183,-2.4216,-2.4199,-2.4067,-2.3865,-2.4435,-2.4296,-2.3561,-2.4209,-2.4467,-2.4174,-2.4158,-2.4378,-2.4823,-2.491,-2.5121,-2.5427,-2.5503,-2.554,-2.5503,-2.554,-2.554,-2.5427,-2.4527,-2.4158,-2.4511,0.0,0.0,0.0,0.0,0.0,0.0,0.0,0.0,0.0,0.0,0.0,0.0,0.0,0.0,0.0,-1.9802,0.0,-1.9732,-1.9466,0.0,0.0,0.0,-1.8163,-1.8244,-1.8506,-1.8667,-1.8667,0.0,0.0,-1.8555,-1.8286,-1.8112,-1.8078,-1.8047,-1.8004,-1.8024,-1.7989,-1.784,-1.741,-1.7341,-1.718,-1.6823,-1.6681,-1.6692,-1.6704,-1.6928,-1.7278,-1.7312,-1.7634,-1.7966,-1.8009,-1.7807,-1.7675,-1.7958,-1.7521,-1.7158,-1.6759,-1.68,-1.6637,-1.6161,-1.6046,-1.5853,-3.0734,-3.0328,-2.9803,-2.9127,-2.8433,-2.8433,-2.8486,-2.8469,-2.845,-2.8469,-2.8383,-2.7621,-2.6979,-2.642,-2.6218,-2.6101,-2.6117,-2.6168,-2.6217,-2.6252,-2.6227,-2.6222,-2.626,-2.604,-2.5938,-2.5938,-2.5756,-2.5706,-2.569,-2.5673,-2.548,-2.5074,-2.502,-2.441,-2.3258,-2.3538,-2.3538,-2.3174,-2.3136,-2.3463,-2.4112,-2.4926,-2.5237,-2.5059,-2.5701,-2.5864,-2.5503,-2.5864,-2.5717,-2.5098,-2.4823,-2.4364,-2.3681,-2.3407,0.0,0.0,0.0,0.0,0.0,0.0,0.0,0.0,0.0,-2.1405,-2.0754,0.0,-1.9993,0.0,-2.0718,-2.0798,-2.0132,-2.0302,0.0,0.0,-1.961,-1.9443,-1.9708,-1.9604,-1.95,-1.9396,-1.9344,-1.9092,-1.8394,-1.8243,-1.8139,-1.7968,-1.7702,-1.7456,-1.7315,-1.7284,-1.7299,-1.7369,-1.7345,-1.7347,-1.7156,-1.7205,-1.7083,-1.691,-1.6965,-1.7085,-1.7097,-1.719,-1.7346,-1.7497,-1.7346,-1.7233,-1.7268,-1.6917,-1.6723,-1.6602,-1.6894,-1.7155,-1.6987,-1.6976,-1.6853,-3.256,-3.2138,-3.1749,-3.1326,-3.0852,-2.955,-2.9011,-2.9011,-2.9011,-2.9011,-2.8941,-2.8146,-2.7402,-2.6708,-2.6674,-2.664,-2.6623,-2.6803,-2.6883,-2.69,-2.7105,-2.7035,-2.6742,-2.6388,-2.6038,-2.5706,-2.5392,-2.5226,-2.5226,-2.5226,-2.5271,-2.5321,-2.5172,-2.4888,-2.4492,-2.377,-2.3115,-2.254,-2.2708,-2.3006,-2.3401,-2.4308,-2.4788,-2.4766,-2.5517,-2.5864,-2.5828,-2.6079,-2.5881,-2.5214,-2.4887,-2.4461,-2.3782,-2.3451,-2.3231,0.0,0.0,0.0,0.0,0.0,0.0,0.0,0.0,0.0,0.0,0.0,-2.1049,-2.0941,-2.1647,-2.1793,-2.1166,-2.1396,-2.1396,-2.0871,-2.066,-2.061,-2.0573,-2.0459,-2.0155,-1.9724,-1.9636,-1.9283,-1.84,-1.8265,-1.8225,-1.7983,-1.7872,-1.77,-1.7472,-1.7412,-1.7327,-1.7099,-1.7063,-1.6967,-1.6762,-1.6714,-1.6621,-1.6539,-1.6658,-1.6824,-1.6836,-1.7013,-1.7228,-1.7363,-1.7168,-1.702,-1.7118,-1.6799,-1.6539,-1.6719,-1.6843,-1.6941,-1.6922,-1.6933,-1.6922,-3.3541,-3.3541,-3.344,-3.3389,-3.3186,-3.0632,-2.955,-2.9533,-2.9485,-2.9333,-2.9093,-2.8399,-2.7706,-2.6996,-2.691,-2.6875,-2.6838,-2.7317,-2.7524,-2.7483,-2.8113,-2.808,-2.7433,-2.6783,-2.6154,-2.5508,-2.4878,-2.4564,-2.4547,-2.4547,-2.4895,-2.5491,-2.5408,-2.5671,-2.6181,-2.458,-2.3355,-2.2508,-2.2985,-2.318,-2.3101,-2.3781,-2.4372,-2.4754,-2.5206,-2.5631,-2.6096,-2.6115,-2.5917,-2.5503,-2.502,-2.4583,-2.4261,-2.3711,-2.3363,0.0,-2.3231,0.0,0.0,0.0,0.0,0.0,0.0,0.0,0.0,-2.2072,-2.1935,-2.1712,-2.237,-2.2661,-2.2217,-2.2431,-2.2324,-2.1759,-2.1712,-2.1527,-2.1094,-2.1032,-2.066,-1.9803,-1.9703,-1.9386,-1.8665,-1.8503,-1.8402,-1.8304,-1.8487,-1.8448,-1.8131,-1.8024,-1.7721,-1.6961,-1.6854,-1.6934,-1.6544,-1.6317,-1.6317,-1.6329,-1.6539,-1.6757,-1.6781,-1.7001,-1.7267,-1.7315,-1.7075,-1.7003,-1.7303,-1.6858,-1.6616,-1.6786,-1.6616,-1.6463,-1.6523,-1.653,-1.6539,-3.4286,-3.4235,-3.3643,-3.3389,-3.3355,-3.2814,-3.2577,-3.2527,-3.1935,-3.1004,-2.9922,-2.9753,-2.9245,-2.8569,-2.8552,-2.8463,-2.837,-2.8448,-2.8402,-2.8272,-2.8345,-2.8307,-2.8158,-2.8025,-2.7893,-2.776,-2.7611,-2.7582,-2.7561,-2.7561,-2.7628,-2.7727,-2.7147,-2.6805,-2.6608,0.0,0.0,0.0,-2.501,-2.5195,-2.4648,-2.5243,-2.5647,-2.5711,-2.5243,0.0,-2.5594,-2.5647,-2.5577,-2.5503,-2.5389,0.0,0.0,0.0,0.0,0.0,0.0,0.0,0.0,0.0,0.0,0.0,-2.2902,-2.2872,-2.2704,-2.2583,-2.237,-2.2123,-2.2231,-2.2263,-2.2231,-2.2231,-2.2231,-2.2077,-2.2077,-2.1848,-2.1236,-2.1153,-2.0781,-1.9804,-1.9737,-1.9548,-1.9158,-1.9027,-1.9091,-1.9208,-1.9257,-1.9203,-1.8957,-1.8681,-1.8418,-1.827,-1.816,-1.816,-1.8071,-1.8007,-1.7944,-1.8033,-1.7715,-1.753,-1.7473,-1.696,-1.6685,-1.6942,-1.6679,-1.6584,-1.6904,-1.6748,-1.6532,-1.6458,-1.6248,-1.617,-1.6466,-1.6528,-1.6589,-3.618,0.0,-3.5385,-3.5064,0.0,-3.4658,-3.4506,-3.4421,-3.3305,-3.2425,-3.1749,-3.1732,-3.1529,-3.1173,-3.1117,-3.0836,-3.0426,-3.0342,-3.0101,-2.9688,-2.9593,-2.933,-2.9021,-2.9021,-2.8799,-2.8428,-2.845,-2.8467,-2.8428,-2.8428,-2.8555,-2.887,-2.8506,-2.8428,-2.8582,-2.8405,-2.737,-2.5392,-2.5713,-2.5699,-2.5388,-2.5799,-2.6149,-2.631,-2.5775,0.0,0.0,0.0,0.0,0.0,0.0,0.0,0.0,-2.3852,0.0,-2.3581,-2.329,-2.3068,-2.2992,-2.2947,-2.2888,-2.2888,-2.2888,-2.2902,-2.2869,-2.2781,-2.2706,-2.2569,-2.2555,-2.2555,-2.2555,-2.2283,-2.2098,-2.2098,-2.1812,-2.1425,-2.1183,-2.1397,-2.1238,-2.0455,-2.0496,-2.0492,-1.9853,-1.9781,-1.9855,-2.0071,-2.0291,-2.0395,-2.0251,-1.9557,-1.9054,-1.9021,-1.9008,-1.9008,-1.9008,-1.9008,-1.9035,-1.8956,-1.8726,-1.8569,-1.8543,-1.8059,-1.7624,-1.751,-1.7204,-1.701,-1.6884,-1.6791,-1.6705,-1.6607,-1.6522,-1.6517,-1.6773,-1.6513,-1.6197,-3.7922,-3.7855,-3.7229,-3.6975,-3.6924,-3.6299,-3.596,-3.5723,0.0,0.0,0.0,-3.3389,-3.3389,-3.3406,-3.3262,-3.2883,-3.2328,-3.2261,-3.1884,-3.1297,-3.1024,-3.0558,-2.9976,-2.9826,-2.9436,-2.8771,-2.8871,-2.8832,-2.8754,-2.8754,-2.9036,-2.9566,-2.9599,-2.9914,-3.0435,-3.0468,-2.935,-2.7061,-2.6618,-2.6423,-2.6374,-2.651,-2.672,-2.7071,-2.6486,-2.6341,-2.6647,-2.5767,-2.5073,-2.4596,-2.4471,-2.4368,-2.4317,-2.3839,-2.3711,-2.3909,-2.3523,-2.3187,-2.3082,-2.2947,-2.2844,-2.2743,-2.2613,-2.2656,-2.2859,-2.2888,-2.2844,-2.2743,-2.2728,-2.2685,-2.2555,-2.2149,-2.1873,-2.196,-2.1496,-2.1191,-2.122,-2.1641,-2.1657,-2.0983,-2.1183,-2.1355,-2.0769,-2.0797,-2.0911,-2.1226,-2.1676,-2.1914,-2.1906,-2.1087,-2.0356,-2.0479,-2.0601,-2.0365,-2.0283,-2.0378,-2.0229,-2.0446,-2.0256,-2.008,-2.0021,-1.9745,-1.9328,-1.9083,-1.8645,-1.8328,-1.7869,-1.786,-1.7574,-1.744,-1.7414,-1.7414,-1.7499,-1.6985,-1.6483,-3.7922,-3.7905,-3.7804,-3.7736,-3.7753,-3.7635,-3.7212,-3.6502,-3.4996,-3.3998,-3.3389,-3.3389,-3.3389,-3.3389,-3.3381,-3.3288,-3.3119,-3.3136,-3.3009,-3.2772,-3.2026,-3.1591,-3.1458,-3.0842,-3.0451,-3.0228,-3.0294,-3.0335,-3.0212,-3.0195,-3.0261,-3.0303,-3.0361,-3.041,-3.0468,-3.0468,-3.0311,-2.993,-2.9815,-2.9518,-2.8907,-2.8592,-2.845,-2.8459,-2.7502,-2.6931,-2.6931,-2.6778,-2.6377,-2.5727,-2.568,-2.5248,-2.4348,-2.4135,-2.3809,-2.3451,-2.3246,-2.3082,-2.2947,-2.2902,-2.2656,-2.2164,-2.1598,-2.1743,-2.2772,-2.2888,-2.2671,-2.2207,-2.2135,-2.1888,-2.1365,-2.1235,-2.1409,-2.1917,-2.1917,-2.1859,-2.1859,-2.1975,-2.1844,-2.1207,-2.1019,-2.1439,-2.1831,-2.2235,-2.2634,-2.3073,-2.3383,-2.3997,-2.3855,-2.3271,-2.2937,-2.3301,-2.3441,-2.3441,-2.3161,-2.3399,-2.3217,-2.3455,-2.2881,-2.2502,-2.2488,-2.1888,-2.1448,-2.1611,-2.1255,-2.0955,-2.0684,-2.057,-2.0031,-1.9516,-1.9236,-1.9175,-1.9078,-1.8831,-1.8328,-3.9073,-3.9039,-3.8667,-3.8497,-3.8464,-3.8075,-3.7719,-3.7347,-3.6654,-3.569,-3.4658,-3.4607,-3.4607,-3.4624,-3.4536,-3.4317,-3.3929,-3.3886,-3.3607,-3.3117,-3.2687,-3.2467,-3.2374,-3.2057,-3.1606,-3.1156,-3.1249,-3.0991,-3.0543,-3.0468,-3.0468,-3.0468,-3.0468,-3.0468,-3.0468,-3.0468,-3.0468,-3.0468,-3.0468,-3.0344,-3.0013,-2.979,-2.9707,-2.9707,-2.8628,-2.8003,-2.7987,-2.7365,-2.6904,-2.6588,-2.6318,-2.6034,-2.5779,-2.4869,-2.4368,-2.4353,-2.3659,-2.3201,-2.3112,-2.2978,-2.2772,-2.2482,-2.2193,-2.228,-2.283,-2.225,-2.1772,-2.1481,-2.1452,-2.1496,-2.1496,-2.122,-2.1394,-2.241,-2.2207,-2.2149,-2.2483,-2.2846,-2.2889,-2.2657,-2.2904,-2.3223,-2.3528,-2.3804,-2.4003,-2.4192,-2.4509,-2.4768,-2.5149,-2.4862,-2.4519,-2.4519,-2.4554,-2.449,-2.449,-2.4476,-2.4476,-2.4461,-2.4247,-2.4075,-2.4075,-2.3581,-2.3277,-2.2999,-2.2771,-2.2423,-2.2027,-2.1795,-2.1422,-2.0901,-2.0645,-2.0473,-2.0196,-2.0028,-1.9533,-4.0087,-4.002,-3.9462,-3.9225,-3.9174,-3.865,-3.8294,-3.8159,-3.8142,-3.7398,-3.6214,-3.596,-3.5876,-3.5876,-3.565,-3.5228,-3.4793,-3.4655,-3.4307,-3.3741,-3.3503,-3.3332,-3.3228,-3.305,-3.2607,-3.2004,-3.2057,-3.1674,-3.0925,-3.0817,-3.0675,-3.0526,-3.0468,-3.0468,-3.0468,-3.0468,-3.0468,-3.0468,-3.0468,-3.0468,-3.0468,-3.0468,-3.0468,-3.0435,-2.9615,-2.9111,-2.8994,-2.8196,-2.7572,-2.7327,-2.6995,-2.6829,-2.6816,-2.5693,-2.5107,-2.5224,-2.4343,-2.3762,-2.3703,-2.3244,-2.2991,-2.3136,-2.2875,-2.2743,-2.2786,-2.2033,-2.1438,-2.1452,-2.167,-2.1873,-2.2091,-2.1786,-2.1902,-2.2917,-2.273,-2.2773,-2.331,-2.3833,-2.4109,-2.4167,-2.4573,-2.4834,-2.4892,-2.4979,-2.5061,-2.5206,-2.527,-2.5487,-2.5908,-2.601,-2.5792,-2.5487,-2.5313,-2.5371,-2.5284,-2.5278,-2.5292,-2.527,-2.5249,-2.5292,-2.5307,-2.5128,-2.4905,-2.4488,-2.4247,-2.3934,-2.3302,-2.3146,-2.2932,-2.2463,-2.2178,-2.1853,-2.1355,-2.114,-2.0611,-4.0087,-4.007,-3.9986,-3.9986,-3.9935,-3.9868,-3.9462,-3.8937,-3.8903,-3.8464,-3.7669,-3.6975,-3.6688,-3.6569,-3.5915,-3.556,-3.552,-3.5459,-3.5391,-3.5256,-3.461,-3.4263,-3.4169,-3.3493,-3.3048,-3.2964,-3.2998,-3.257,-3.1867,-3.1716,-3.1274,-3.0593,-3.0468,-3.0468,-3.0468,-3.0468,-3.0468,-3.0468,-3.0468,-3.0468,-3.0468,-3.0468,-3.0468,-3.0468,-3.0402,-3.0143,-2.9691,-2.9588,-2.9074,-2.8104,-2.7952,-2.7491,-2.6621,-2.6317,-2.5971,-2.5463,-2.528,-2.5186,-2.5018,-2.3862,-2.3345,-2.3829,-2.2862,-2.2454,-2.2902,-2.283,-2.2714,-2.2801,-2.3296,-2.3238,-2.2888,-2.2714,-2.302,-2.376,-2.3775,-2.3978,-2.4573,-2.4762,-2.4791,-2.4699,-2.495,-2.4892,-2.5052,-2.54,-2.5908,-2.6344,-2.6358,-2.6402,-2.6547,-2.6576,-2.6591,-2.6547,-2.6576,-2.6533,-2.6489,-2.6591,-2.6431,-2.6474,-2.6547,-2.646,-2.6387,-2.6445,-2.6518,-2.5936,-2.622,-2.5864,-2.5517,-2.5437,-2.5162,-2.4283,-2.3826,-2.3363,-2.2888,-2.2553,-2.1957,-4.0087,-4.0087,-4.0087,-4.0087,-4.0087,-4.0087,-3.9901,-3.9648,-3.9631,-3.9462,-3.9123,-3.8413,-3.7855,-3.7398,-3.6654,-3.6315,-3.6282,-3.5808,-3.5594,-3.5549,-3.5217,-3.502,-3.4897,-3.46,-3.4169,-3.3795,-3.3751,-3.3349,-3.2663,-3.2109,-3.1615,-3.1224,-3.0758,-3.0468,-3.0468,-3.0468,-3.0468,-3.0468,-3.0468,-3.0468,-3.0468,-3.0468,-3.0468,-3.0468,-3.0468,-3.0426,-3.0241,-3.0199,-2.988,-2.9171,-2.8828,-2.8491,-2.8027,-2.7318,-2.6796,-2.6487,-2.5732,-2.5269,-2.5188,-2.4531,-2.4214,-2.449,-2.4054,-2.3818,-2.3989,-2.4399,-2.4617,-2.453,-2.3862,-2.3325,-2.3499,-2.3499,-2.3891,-2.4762,-2.5009,-2.5255,-2.5937,-2.5995,-2.601,-2.5995,-2.5995,-2.5995,-2.6025,-2.6213,-2.6474,-2.675,-2.6794,-2.6794,-2.6794,-2.6794,-2.6794,-2.6794,-2.6794,-2.6794,-2.6794,-2.6794,-2.6794,-2.6794,-2.6794,-2.6794,-2.6794,-2.6794,-2.6779,-2.6794,-2.6794,-2.6721,-2.6387,-2.6344,-2.6184,-2.5487,-2.4544,-2.3789,-2.3543,-2.3149,-2.2552,-4.0087,-4.0087,-4.0087,-4.0087,-4.0087,-4.0087,-4.0087,-4.0087,-4.0087,-4.0087,-4.002,-3.9512,-3.9005,-3.843,-3.7533,-3.7094,-3.6992,-3.6282,-3.5915,-3.5807,-3.5621,-3.5475,-3.5383,-3.5383,-3.5098,-3.4645,-3.4578,-3.4192,-3.3453,-3.2646,-3.2193,-3.2033,-3.1274,-3.0866,-3.0866,-3.0824,-3.0782,-3.0815,-3.099,-3.1106,-3.1106,-3.0924,-3.0725,-3.0543,-3.0468,-3.0468,-3.0468,-3.0468,-3.0342,-2.9984,-2.9528,-2.9212,-2.9058,-2.8124,-2.7533,-2.7298,-2.6426,-2.58,-2.5717,-2.5394,-2.5232,-2.5392,-2.5305,-2.5197,-2.54,-2.5792,-2.6039,-2.5937,-2.4805,-2.4312,-2.4588,-2.4689,-2.511,-2.5952,-2.6054,-2.6286,-2.6678,-2.6794,-2.6736,-2.6794,-2.6663,-2.6794,-2.6779,-2.675,-2.6765,-2.6779,-2.6794,-2.6794,-2.6794,-2.6794,-2.6794,-2.6794,-2.6794,-2.6794,-2.6794,-2.6794,-2.6794,-2.6794,-2.6794,-2.6794,-2.6794,-2.6794,-2.6794,-2.6794,-2.6794,-2.6765,-2.6663,-2.6678,-2.6576,-2.5821,-2.4936,-2.4123,-2.3833,-2.3368,-2.2975,-4.0087,-4.0087,-4.0087,-4.0087,-4.0087,-4.0087,-4.0087,-4.0087,-4.0087,-4.0087,-4.0087,-4.002,-3.9986,-3.9817,-3.8497,-3.7855,-3.777,-3.706,-3.6738,-3.6671,-3.5994,-3.5594,-3.5577,-3.552,-3.5503,-3.5397,-3.5352,-3.5004,-3.4314,-3.359,-3.3177,-3.3024,-3.215,-3.1757,-3.1715,-3.1629,-3.1586,-3.1636,-3.2133,-3.2514,-3.2448,-3.1885,-3.1255,-3.0667,-3.0468,-3.0468,-3.0468,-3.0468,-3.0468,-3.0426,-2.9984,-2.9572,-2.912,-2.8576,-2.8115,-2.7705,-2.7505,-2.739,-2.7149,-2.6539,-2.63,-2.6667,-2.6156,-2.5995,-2.6497,-2.6628,-2.6701,-2.6692,-2.646,-2.6387,-2.6431,-2.63,-2.6431,-2.6605,-2.6707,-2.6721,-2.6765,-2.6794,-2.6794,-2.6794,-2.6794,-2.6794,-2.6794,-2.6794,-2.6794,-2.6794,-2.6794,-2.6794,-2.6794,-2.6794,-2.6794,-2.6794,-2.6794,-2.6794,-2.6794,-2.6794,-2.6794,-2.6794,-2.6794,-2.6794,-2.6794,-2.6794,-2.6794,-2.6794,-2.6794,-2.6794,-2.6794,-2.6678,-2.6474,-2.5966,-2.5371,-2.4733,-2.4239,-2.3455,-2.3018,-4.0087,-4.0087,-4.0087,-4.0087,-4.0087,-4.0087,-4.0087,-4.0087,-4.0087,-4.0087,-4.0087,-4.0087,-4.0087,-4.0037,-3.9546,-3.9039,-3.8548,-3.7838,-3.7499,-3.7415,-3.6705,-3.6366,-3.6315,-3.583,-3.5577,-3.5577,-3.5594,-3.5414,-3.5093,-3.4374,-3.3977,-3.3782,-3.3031,-3.2637,-3.2637,-3.249,-3.243,-3.2463,-3.2625,-3.2663,-3.2696,-3.2431,-3.215,-3.1885,-3.099,-3.0468,-3.0468,-3.0468,-3.0384,-3.007,-2.9897,-2.9722,-2.9572,-2.9377,-2.9196,-2.8966,-2.8304,-2.7894,-2.778,-2.7214,-2.6931,-2.7071,-2.6872,-2.6733,-2.6953,-2.7026,-2.7041,-2.6951,-2.6951,-2.6899,-2.6846,-2.6794,-2.6794,-2.6794,-2.6794,-2.6794,-2.6794,-2.6794,-2.6794,-2.6794,-2.6794,-2.6794,-2.6794,-2.6794,-2.6794,-2.6794,-2.6794,-2.6794,-2.6794,-2.6794,-2.6794,-2.6794,-2.6794,-2.6794,-2.6794,-2.6794,-2.6794,-2.6794,-2.6794,-2.6794,-2.6794,-2.6794,-2.6794,-2.6794,-2.6794,-2.6794,-2.6794,-2.6765,-2.6547,-2.6416,-2.5807,-2.5139,-2.4646,-2.392,-2.3351,-4.0087,-4.0087,-4.0087,-4.0087,-4.0087,-4.0087,-4.0087,-4.0087,-4.0087,-4.0087,-4.0087,-4.0087,-4.0087,-4.0087,-4.0087,-3.9834,-3.9292,-3.8599,-3.8261,-3.8176,-3.7483,-3.7127,-3.7009,-3.6349,-3.5994,-3.596,-3.5723,-3.5639,-3.5588,-3.5043,-3.4823,-3.4711,-3.3933,-3.3503,-3.346,-3.3328,-3.324,-3.3195,-3.3321,-3.3408,-3.3375,-3.316,-3.3044,-3.2862,-3.1851,-3.109,-3.0874,-3.0642,-3.0384,-3.007,-2.9897,-2.975,-2.9617,-2.9589,-2.9572,-2.9467,-2.8873,-2.8415,-2.8271,-2.7845,-2.7458,-2.7393,-2.7269,-2.7167,-2.7167,-2.7167,-2.713,-2.7093,-2.7055,-2.7055,-2.6937,-2.6922,-2.6884,-2.6832,-2.6794,-2.6794,-2.6794,-2.6794,-2.6794,-2.6794,-2.6794,-2.6794,-2.6794,-2.6794,-2.6794,-2.6794,-2.6794,-2.6794,-2.6794,-2.6794,-2.6794,-2.6794,-2.6794,-2.6794,-2.6794,-2.6794,-2.6794,-2.6794,-2.6794,-2.6794,-2.6794,-2.6794,-2.6794,-2.6794,-2.6794,-2.6794,-2.6794,-2.6794,-2.6765,-2.6736,-2.6199,-2.5473,-2.495,-2.4428,-2.3891,-4.0087,-4.0087,-4.0087,-4.0087,-4.0087,-4.0087,-4.0087,-4.0087,-4.0087,-4.0087,-4.0087,-4.0087,-4.0087,-4.0087,-4.0087,-4.0054,-3.9868,-3.9292,-3.9005,-3.892,-3.8244,-3.7922,-3.7872,-3.7127,-3.6721,-3.662,-3.596,-3.5639,-3.5605,-3.5509,-3.5476,-3.5391,-3.4745,-3.4337,-3.4231,-3.4096,-3.3927,-3.3951,-3.4369,-3.4733,-3.48,-3.4121,-3.3789,-3.3723,-3.3011,-3.2332,-3.1702,-3.1023,-3.0634,-3.0509,-3.0136,-2.9633,-2.9364,-2.9303,-2.9212,-2.9257,-2.912,-2.9044,-2.8904,-2.8415,-2.8061,-2.7963,-2.756,-2.7408,-2.7458,-2.7408,-2.7357,-2.7372,-2.7372,-2.7284,-2.7269,-2.7269,-2.7181,-2.6884,-2.6846,-2.6832,-2.6832,-2.6794,-2.6794,-2.6794,-2.6794,-2.6794,-2.6794,-2.6794,-2.6794,-2.6794,-2.6794,-2.6794,-2.6794,-2.6794,-2.6794,-2.6794,-2.6794,-2.6794,-2.6794,-2.6794,-2.6794,-2.6794,-2.6794,-2.6794,-2.6794,-2.6794,-2.6794,-2.6794,-2.6794,-2.6794,-2.6794,-2.6794,-2.6794,-2.6678,-2.6155,-2.5836,-2.5386,-2.4878,-2.4283,-4.0087,-4.0087,-4.0087,-4.0087,-4.0087,-4.0087,-4.0087,-4.0087,-4.0087,-4.0087,-4.0087,-4.0087,-4.0087,-4.0087,-4.0087,-4.0087,-4.0054,-3.9884,-3.9732,-3.9597,-3.8988,-3.865,-3.8514,-3.7905,-3.728,-3.6721,-3.5994,-3.5639,-3.5656,-3.5639,-3.5639,-3.5526,-3.5284,-3.5138,-3.5059,-3.4848,-3.4738,-3.4725,-3.4814,-3.4899,-3.4883,-3.4684,-3.4551,-3.4468,-3.3839,-3.3309,-3.3094,-3.2415,-3.1785,-3.1262,-3.1127,-3.0724,-3.0201,-3.007,-3.007,-3.0011,-2.975,-2.9572,-2.9483,-2.9074,-2.8795,-2.8701,-2.8559,-2.8511,-2.8511,-2.8479,-2.8431,-2.8383,-2.8383,-2.8222,-2.7879,-2.8027,-2.7879,-2.7181,-2.7093,-2.7041,-2.6937,-2.6899,-2.6794,-2.6794,-2.6794,-2.6794,-2.6794,-2.6794,-2.6794,-2.6794,-2.6794,-2.6794,-2.6794,-2.6794,-2.6794,-2.6794,-2.6794,-2.6794,-2.6794,-2.6794,-2.6794,-2.6794,-2.6794,-2.6794,-2.6794,-2.6794,-2.6794,-2.6794,-2.6794,-2.6794,-2.6794,-2.6794,-2.6794,-2.6794,-2.6533,-2.6199,-2.585,-2.5357,-2.4791,-4.0087,-4.0087,-4.0087,-4.0087,-4.0087,-4.0087,-4.0087,-4.0087,-4.0087,-4.0087,-4.0087,-4.0087,-4.0087,-4.0087,-4.0087,-4.0087,-4.0087,-4.0087,-4.0087,-4.0037,-3.9665,-3.9394,-3.9292,-3.865,-3.7922,-3.7178,-3.6434,-3.6045,-3.6045,-3.5774,-3.5639,-3.5594,-3.5549,-3.5475,-3.5446,-3.5245,-3.5152,-3.5041,-3.4947,-3.4899,-3.4899,-3.4899,-3.4899,-3.4833,-3.4435,-3.422,-3.417,-3.374,-3.3061,-3.2232,-3.2017,-3.1769,-3.1355,-3.108,-3.0882,-3.079,-3.0405,-3.007,-3.0027,-2.9617,-2.9492,-2.9635,-2.9354,-2.9232,-2.9389,-2.9357,-2.9044,-2.8997,-2.8935,-2.8795,-2.8496,-2.8591,-2.8496,-2.7993,-2.7645,-2.7372,-2.713,-2.6989,-2.6989,-2.6937,-2.6884,-2.6899,-2.6846,-2.6779,-2.6779,-2.6794,-2.6794,-2.6794,-2.6794,-2.6794,-2.6794,-2.6794,-2.6794,-2.6794,-2.6794,-2.6794,-2.6794,-2.6794,-2.6794,-2.6794,-2.6794,-2.6794,-2.6794,-2.6794,-2.6794,-2.6794,-2.6794,-2.6794,-2.6794,-2.6794,-2.6794,-2.6576,-2.6228,-2.5879,-2.5371,-4.0087,-4.0087,-4.0087,-4.0087,-4.0087,-4.0087,-4.0087,-4.0087,-4.0087,-4.0087,-4.0087,-4.0087,-4.0087,-4.0087,-4.0087,-4.0087,-4.0087,-4.0087,-4.0087,-4.0087,-3.9986,-3.9969,-3.9851,-3.9208,-3.8531,-3.7939,-3.7195,-3.6806,-3.662,-3.6096,-3.5656,-3.5622,-3.5577,-3.5487,-3.5383,-3.5308,-3.5152,-3.4994,-3.4947,-3.4947,-3.4899,-3.4899,-3.4899,-3.4899,-3.4849,-3.4816,-3.4767,-3.4684,-3.4104,-3.2945,-3.268,-3.2531,-3.2497,-3.2034,-3.1643,-3.1609,-3.1023,-3.0799,-3.0566,-3.043,-3.0389,-3.0859,-3.0186,-2.9546,-3.0305,-2.9968,-2.9555,-2.9523,-2.9366,-2.9212,-2.9166,-2.9212,-2.9166,-2.9044,-2.8352,-2.773,-2.7321,-2.7218,-2.7167,-2.713,-2.7093,-2.7003,-2.7003,-2.6937,-2.6832,-2.6846,-2.6846,-2.6846,-2.6794,-2.6794,-2.6794,-2.6779,-2.6779,-2.6794,-2.6794,-2.6794,-2.6794,-2.6794,-2.6779,-2.6832,-2.6779,-2.6794,-2.6794,-2.6794,-2.6794,-2.6794,-2.6794,-2.6794,-2.6794,-2.6794,-2.6794,-2.6794,-2.6591,-2.6228,-2.593,-4.0087,-4.0087,-4.0087,-4.0087,-4.0087,-4.0087,-4.0087,-4.0087,-4.0087,-4.0087,-4.0087,-4.0087,-4.0087,-4.0087,-4.0087,-4.0087,-4.0087,-4.0087,-4.0087,-4.0087,-4.0087,-4.0087,-3.9935,-3.936,-3.892,-3.8616,-3.7973,-3.733,-3.6806,-3.6603,-3.6197,-3.5622,-3.5616,-3.5554,-3.5463,-3.5337,-3.5198,-3.5105,-3.5041,-3.4994,-3.4899,-3.4899,-3.4899,-3.4899,-3.4899,-3.4899,-3.4899,-3.4899,-3.4502,-3.3574,-3.2945,-3.2663,-3.2746,-3.2531,-3.2415,-3.2365,-3.2216,-3.2067,-3.2067,-3.1946,-3.1989,-3.2154,-3.1761,-3.1872,-3.1974,-3.1368,-3.098,-3.0833,-3.0489,-2.9957,-2.9782,-2.9897,-2.9941,-2.9572,-2.8764,-2.8076,-2.783,-2.7458,-2.7167,-2.7167,-2.7181,-2.7181,-2.7144,-2.7093,-2.7026,-2.6937,-2.6951,-2.6951,-2.6884,-2.6832,-2.6884,-2.6832,-2.6779,-2.6779,-2.6794,-2.6794,-2.6794,-2.6794,-2.6832,-2.6832,-2.6832,-2.6794,-2.6794,-2.6794,-2.6846,-2.6846,-2.6846,-2.6846,-2.6794,-2.6832,-2.6832,-2.6884,-2.6846,-2.6614,-2.636,-4.0087,-4.0087,-4.0087,-4.0087,-4.0087,-4.0087,-4.0087,-4.0087,-4.0087,-4.0087,-4.0087,-4.0087,-4.0087,-4.0087,-4.0087,-4.0087,-4.0087,-4.0087,-4.0087,-4.0087,-4.0087,-4.0087,-3.9969,-3.958,-3.9462,-3.936,-3.87,-3.8176,-3.7753,-3.7432,-3.684,-3.6265,-3.6084,-3.584,-3.5492,-3.5446,-3.5308,-3.5198,-3.5135,-3.5041,-3.4994,-3.4947,-3.4899,-3.4899,-3.4899,-3.4899,-3.4899,-3.4899,-3.4667,-3.4253,-3.3856,-3.3607,-3.3574,-3.3292,-3.316,-3.3143,-3.2878,-3.2646,-3.2663,-3.268,-3.2845,-3.2994,-3.2911,-3.2878,-3.2928,-3.2497,-3.2067,-3.1973,-3.1404,-3.0886,-3.0592,-3.054,-3.0375,-3.007,-2.9316,-2.8732,-2.8559,-2.8027,-2.7745,-2.7595,-2.7458,-2.7284,-2.7284,-2.7233,-2.7196,-2.7144,-2.7093,-2.7041,-2.7041,-2.6974,-2.6922,-2.6922,-2.6884,-2.6937,-2.6937,-2.6989,-2.7203,-2.7218,-2.7203,-2.7152,-2.6974,-2.6937,-2.6832,-2.6832,-2.6899,-2.6951,-2.6989,-2.6989,-2.6989,-2.7041,-2.6989,-2.6989,-2.6989,-2.6937,-2.6696,-4.0087,-4.0087,-4.0087,-4.0087,-4.0087,-4.0087,-4.0087,-4.0087,-4.0087,-4.0087,-4.0087,-4.0087,-4.0087,-4.0087,-4.0087,-4.0087,-4.0087,-4.0087,-4.0087,-4.0087,-4.0087,-4.0087,-4.007,-4.0003,-3.9952,-3.9884,-3.9377,-3.9022,-3.8684,-3.8227,-3.7635,-3.7009,-3.6823,-3.6388,-3.584,-3.5638,-3.5446,-3.5337,-3.5245,-3.5152,-3.5088,-3.5041,-3.4994,-3.4947,-3.4899,-3.4899,-3.4899,-3.4899,-3.4866,-3.4883,-3.4899,-3.4767,-3.4717,-3.4187,-3.3955,-3.3839,-3.3442,-3.311,-3.2978,-3.3143,-3.3259,-3.369,-3.3326,-3.316,-3.3607,-3.3243,-3.2812,-3.2812,-3.215,-3.1676,-3.1351,-3.0964,-3.065,-3.0408,-3.0027,-2.9661,-2.9257,-2.867,-2.8288,-2.824,-2.7745,-2.7488,-2.7401,-2.7335,-2.7233,-2.7233,-2.7233,-2.7181,-2.713,-2.7078,-2.7115,-2.7115,-2.7078,-2.7055,-2.7144,-2.7181,-2.7545,-2.778,-2.7815,-2.7765,-2.7408,-2.7269,-2.7041,-2.6989,-2.713,-2.7269,-2.7321,-2.7321,-2.7372,-2.7423,-2.7509,-2.7408,-2.7269,-2.713,-2.6953,-4.0087,-4.0087,-4.0087,-4.0087,-4.0087,-4.0087,-4.0087,-4.0087,-4.0087,-4.0087,-4.0087,-4.0087,-4.0087,-4.0087,-4.0087,-4.0087,-4.0087,-4.0087,-4.0087,-4.0087,-4.0087,-4.0087,-4.0087,-4.0087,-4.0087,-4.002,-3.9935,-3.9546,-3.9073,-3.8836,-3.8379,-3.7702,-3.7212,-3.6705,-3.6439,-3.5915,-3.5566,-3.5429,-3.54,-3.5337,-3.5245,-3.5198,-3.5152,-3.5058,-3.4994,-3.4899,-3.4899,-3.4899,-3.4899,-3.4899,-3.4899,-3.4947,-3.4849,-3.4717,-3.4584,-3.4535,-3.4485,-3.4352,-3.4386,-3.4303,-3.4452,-3.4502,-3.4386,-3.4485,-3.4535,-3.3988,-3.3607,-3.3442,-3.2895,-3.2282,-3.1752,-3.1504,-3.1123,-3.0716,-3.0434,-3.0258,-3.0027,-2.9088,-2.848,-2.8255,-2.7894,-2.7575,-2.7575,-2.7575,-2.7473,-2.7386,-2.7335,-2.7335,-2.7269,-2.7218,-2.7269,-2.7269,-2.7233,-2.7248,-2.756,-2.7695,-2.8207,-2.8432,-2.848,-2.848,-2.811,-2.766,-2.7509,-2.7458,-2.7494,-2.7645,-2.7845,-2.8076,-2.8207,-2.8174,-2.8027,-2.7845,-2.7595,-2.7408,-2.7357,-4.0188,-4.0188,-4.0138,-4.0087,-4.0087,-4.0087,-4.0087,-4.0087,-4.0087,-4.0087,-4.0087,-4.0087,-4.0087,-4.0087,-4.0087,-4.0087,-4.0087,-4.0087,-4.0087,-4.0087,-4.0087,-4.0087,-4.0087,-4.0087,-4.0087,-4.0087,-4.007,-3.9817,-3.958,-3.9411,-3.914,-3.8464,-3.7973,-3.7432,-3.6874,-3.6366,-3.5949,-3.5599,-3.5537,-3.5446,-3.5383,-3.5337,-3.5291,-3.5198,-3.5152,-3.5105,-3.5105,-3.5041,-3.5011,-3.4994,-3.4994,-3.4947,-3.4899,-3.4899,-3.4899,-3.4899,-3.4899,-3.4899,-3.4883,-3.4899,-3.4866,-3.4899,-3.4899,-3.4899,-3.4866,-3.4502,-3.4352,-3.4154,-3.3624,-3.2911,-3.2199,-3.1719,-3.1388,-3.1106,-3.0725,-3.0501,-3.0326,-2.9601,-2.8919,-2.8685,-2.8255,-2.7894,-2.776,-2.786,-2.776,-2.766,-2.7894,-2.783,-2.7488,-2.7423,-2.7423,-2.7423,-2.7335,-2.7473,-2.7879,-2.8352,-2.8966,-2.9134,-2.9134,-2.918,-2.9104,-2.8543,-2.7993,-2.8076,-2.8174,-2.8304,-2.8543,-2.8779,-2.8826,-2.8496,-2.8255,-2.811,-2.8027,-2.783,-2.783,-4.0288,-4.0288,-4.0188,-4.0138,-4.0138,-4.0121,-4.0121,-4.0121,-4.0138,-4.0087,-4.0087,-4.0087,-4.0087,-4.0087,-4.0087,-4.0087,-4.0087,-4.0087,-4.0087,-4.0087,-4.0087,-4.0087,-4.0087,-4.0087,-4.0087,-4.0087,-4.0087,-4.002,-4.0037,-4.0037,-3.9665,-3.9191,-3.8971,-3.8328,-3.7398,-3.6958,-3.662,-3.5982,-3.5869,-3.5655,-3.5492,-3.5412,-3.5367,-3.5337,-3.5291,-3.5261,-3.5261,-3.5198,-3.5152,-3.5135,-3.5152,-3.5058,-3.5011,-3.4947,-3.4899,-3.4899,-3.4899,-3.4899,-3.4899,-3.4899,-3.4899,-3.4899,-3.4899,-3.4899,-3.4883,-3.4849,-3.48,-3.4651,-3.4237,-3.3657,-3.2928,-3.2497,-3.2,-3.151,-3.1007,-3.0692,-3.0443,-3.0113,-2.9705,-2.9257,-2.8779,-2.8367,-2.8222,-2.8271,-2.8091,-2.7978,-2.8255,-2.8304,-2.7944,-2.7725,-2.776,-2.761,-2.7575,-2.7894,-2.8319,-2.881,-2.9467,-2.9689,-2.9733,-2.9777,-2.9793,-2.9512,-2.9012,-2.8795,-2.8889,-2.9028,-2.9196,-2.9393,-2.9241,-2.8764,-2.8717,-2.8826,-2.8638,-2.8304,-2.8304,-4.0387,-4.0305,-4.0288,-4.0255,-4.0238,-4.0138,-4.0188,-4.0238,-4.0138,-4.0087,-4.0087,-4.0087,-4.0087,-4.0087,-4.0087,-4.0087,-4.0087,-4.0087,-4.0087,-4.0087,-4.0087,-4.0087,-4.0087,-4.0087,-4.0087,-4.0087,-4.0087,-4.0087,-4.0087,-4.0054,-3.9952,-3.9766,-3.9326,-3.8751,-3.843,-3.8024,-3.7347,-3.6654,-3.6455,-3.6185,-3.5768,-3.5566,-3.5503,-3.5446,-3.5383,-3.5337,-3.5291,-3.5291,-3.5245,-3.5245,-3.5291,-3.5261,-3.5198,-3.5135,-3.5041,-3.4947,-3.4947,-3.4947,-3.4963,-3.4947,-3.4899,-3.4899,-3.4947,-3.4947,-3.4899,-3.4947,-3.4947,-3.4866,-3.4733,-3.4386,-3.369,-3.3326,-3.2762,-3.2067,-3.1444,-3.1113,-3.0683,-3.0401,-3.0156,-2.9705,-2.9303,-2.8889,-2.8748,-2.8701,-2.8701,-2.8638,-2.8779,-2.8826,-2.8606,-2.8367,-2.8207,-2.8027,-2.7795,-2.8271,-2.8795,-2.9332,-2.9837,-3.0113,-3.0199,-3.0199,-3.0241,-3.0342,-3.0113,-2.9633,-2.9499,-2.9617,-2.9793,-2.9941,-2.9881,-2.954,-2.9556,-2.9617,-2.9196,-2.8826,-2.8873,-4.0551,-4.0502,-4.0436,-4.0387,-4.0387,-4.0238,-4.0238,-4.0305,-4.0188,-4.0087,-4.0087,-4.0087,-4.0087,-4.0087,-4.0087,-4.0087,-4.0087,-4.0087,-4.0087,-4.0087,-4.0087,-4.0087,-4.0087,-4.0087,-4.0087,-4.0087,-4.0087,-4.0087,-4.0087,-4.0087,-4.0087,-4.0003,-3.9681,-3.9377,-3.9005,-3.8616,-3.8075,-3.7483,-3.7009,-3.6654,-3.618,-3.5893,-3.5611,-3.5549,-3.5503,-3.5458,-3.5458,-3.5429,-3.5383,-3.54,-3.5383,-3.5337,-3.5337,-3.5291,-3.5228,-3.5135,-3.5105,-3.5105,-3.5105,-3.5105,-3.5152,-3.5105,-3.5105,-3.5105,-3.5088,-3.5088,-3.5041,-3.4994,-3.4883,-3.4767,-3.4386,-3.4054,-3.3458,-3.2829,-3.215,-3.1553,-3.1123,-3.0742,-3.0425,-3.0146,-2.975,-2.9393,-2.912,-2.912,-2.9257,-2.9303,-2.9348,-2.9303,-2.9212,-2.8966,-2.867,-2.8591,-2.8463,-2.8826,-2.9303,-2.9705,-3.007,-3.0342,-3.0468,-3.0468,-3.0468,-3.0468,-3.0384,-3.0087,-3.0087,-3.007,-3.0156,-3.0258,-3.0284,-3.0284,-3.0156,-2.9924,-2.9617,-2.9393,-2.9438,-4.0745,-4.0697,-4.06,-4.0534,-4.0534,-4.0387,-4.0355,-4.0355,-4.0188,-4.0138,-4.0138,-4.0138,-4.0087,-4.0087,-4.0087,-4.0087,-4.0087,-4.0087,-4.0087,-4.0087,-4.0087,-4.0087,-4.0087,-4.0087,-4.0087,-4.0087,-4.0087,-4.0087,-4.0087,-4.0087,-4.0087,-4.0054,-4.007,-3.9851,-3.9343,-3.9242,-3.8751,-3.8176,-3.7584,-3.7178,-3.6671,-3.6062,-3.5639,-3.5639,-3.5639,-3.5577,-3.5594,-3.5549,-3.5503,-3.552,-3.552,-3.5492,-3.5383,-3.5475,-3.5492,-3.5383,-3.5337,-3.5308,-3.5308,-3.5308,-3.5261,-3.5261,-3.5308,-3.5291,-3.5291,-3.5245,-3.5245,-3.5088,-3.5041,-3.493,-3.4717,-3.4369,-3.3972,-3.3541,-3.2729,-3.1918,-3.1494,-3.1113,-3.0758,-3.0448,-3.0103,-2.9881,-2.9661,-2.9677,-2.9853,-2.9837,-2.9881,-2.9837,-2.9705,-2.9438,-2.9196,-2.915,-2.9212,-2.9467,-2.9793,-3.0027,-3.03,-3.0426,-3.0468,-3.0468,-3.0468,-3.0468,-3.0384,-3.03,-3.0342,-3.0342,-3.0468,-3.0468,-3.0426,-3.0384,-3.0426,-3.0284,-2.9968,-2.9881,-2.9924,-4.0793,-4.0714,-4.0697,-4.0697,-4.0648,-4.0534,-4.0551,-4.06,-4.0355,-4.0288,-4.0238,-4.0138,-4.0087,-4.0087,-4.0087,-4.0087,-4.0087,-4.0087,-4.0087,-4.0087,-4.0087,-4.0087,-4.0087,-4.0087,-4.0087,-4.0087,-4.0087,-4.0087,-4.0087,-4.0087,-4.0087,-4.0087,-4.007,-4.0003,-3.9834,-3.9783,-3.958,-3.8988,-3.8734,-3.8041,-3.6891,-3.6045,-3.5757,-3.5639,-3.5639,-3.5639,-3.5639,-3.5594,-3.5594,-3.5594,-3.5594,-3.5577,-3.556,-3.556,-3.5577,-3.5487,-3.5412,-3.5308,-3.5354,-3.5354,-3.5337,-3.5337,-3.5337,-3.5308,-3.5354,-3.5354,-3.5291,-3.5105,-3.5105,-3.5058,-3.4994,-3.4864,-3.4419,-3.4084,-3.3553,-3.263,-3.2017,-3.1556,-3.1174,-3.0675,-3.0359,-3.0342,-3.0258,-3.0359,-3.0401,-3.0384,-3.0342,-3.03,-3.0199,-2.9881,-2.9661,-2.9617,-2.9661,-2.9897,-3.0027,-3.03,-3.0384,-3.0468,-3.0468,-3.0468,-3.0468,-3.0468,-3.0468,-3.0426,-3.0468,-3.0468,-3.0468,-3.0468,-3.0468,-3.0468,-3.0468,-3.0468,-3.0426,-3.0384,-3.0284,-4.0888,-4.084,-4.0793,-4.0793,-4.0793,-4.0697,-4.0648,-4.0666,-4.0387,-4.0305,-4.0305,-4.0121,-4.0087,-4.0121,-4.0087,-4.0087,-4.0087,-4.0087,-4.0087,-4.0087,-4.0087,-4.0087,-4.0087,-4.0087,-4.0087,-4.0087,-4.0087,-4.0087,-4.0087,-4.0087,-4.0087,-4.0087,-4.0087,-4.007,-4.0087,-4.0087,-3.9918,-3.9563,-3.9123,-3.821,-3.7094,-3.6451,-3.6079,-3.5656,-3.5639,-3.5639,-3.5639,-3.5639,-3.5639,-3.5639,-3.5639,-3.5622,-3.5622,-3.5622,-3.5622,-3.556,-3.5532,-3.5503,-3.5458,-3.5458,-3.5458,-3.5458,-3.5458,-3.5503,-3.5458,-3.5429,-3.54,-3.5337,-3.5245,-3.5182,-3.5152,-3.5152,-3.4938,-3.4575,-3.421,-3.3461,-3.2646,-3.2041,-3.1583,-3.105,-3.0609,-3.0568,-3.0568,-3.0526,-3.0485,-3.0426,-3.0426,-3.0384,-3.0384,-3.03,-3.0156,-3.007,-3.0113,-3.0258,-3.03,-3.0426,-3.0426,-3.0468,-3.0468,-3.0468,-3.0468,-3.0468,-3.0468,-3.0485,-3.0526,-3.0526,-3.051,-3.051,-3.0526,-3.0485,-3.0468,-3.051,-3.051,-3.0468,-3.0426,-4.0995,-4.0871,-4.0871,-4.0871,-4.0871,-4.0793,-4.0745,-4.0697,-4.0485,-4.0404,-4.0337,-4.0238,-4.0138,-4.0138,-4.0138,-4.0087,-4.0087,-4.0087,-4.0087,-4.0087,-4.0087,-4.0087,-4.0087,-4.0087,-4.0087,-4.0087,-4.0087,-4.0087,-4.0087,-4.0087,-4.0087,-4.0087,-4.0087,-4.0087,-4.0087,-4.0087,-4.002,-4.0002,-3.9326,-3.8464,-3.755,-3.6975,-3.6485,-3.6045,-3.5757,-3.5639,-3.5639,-3.5639,-3.5639,-3.5639,-3.5639,-3.5639,-3.5639,-3.5639,-3.5639,-3.5622,-3.5577,-3.5594,-3.5594,-3.5594,-3.5639,-3.5639,-3.5639,-3.5594,-3.5577,-3.5566,-3.5508,-3.5492,-3.54,-3.5354,-3.5291,-3.5308,-3.5195,-3.4964,-3.476,-3.4029,-3.3378,-3.277,-3.2101,-3.1491,-3.1025,-3.0692,-3.0651,-3.0609,-3.0568,-3.051,-3.0468,-3.051,-3.051,-3.0526,-3.0443,-3.03,-3.0342,-3.0384,-3.0426,-3.0468,-3.0468,-3.051,-3.051,-3.051,-3.0526,-3.051,-3.0468,-3.0485,-3.0526,-3.0568,-3.0593,-3.0568,-3.0526,-3.0526,-3.051,-3.051,-3.051,-3.051,-3.0468,-4.1255,-4.0871,-4.0871,-4.0871,-4.0871,-4.0871,-4.0871,-4.084,-4.0697,-4.0648,-4.06,-4.0404,-4.0255,-4.0238,-4.0138,-4.0087,-4.0087,-4.0087,-4.0087,-4.0087,-4.0087,-4.0087,-4.0087,-4.0087,-4.0087,-4.0087,-4.0087,-4.0087,-4.0087,-4.0087,-4.0087,-4.0087,-4.0087,-4.0087,-4.0087,-4.0087,-4.0087,-3.9969,-3.9445,-3.9073,-3.8311,-3.7618,-3.6806,-3.6535,-3.6028,-3.5639,-3.5639,-3.5639,-3.5639,-3.5639,-3.5639,-3.5639,-3.5639,-3.5639,-3.5639,-3.5639,-3.5639,-3.5639,-3.5639,-3.5639,-3.5639,-3.5639,-3.5639,-3.5639,-3.5577,-3.5622,-3.5566,-3.5537,-3.5492,-3.5429,-3.5337,-3.5308,-3.5337,-3.527,-3.5036,-3.4616,-3.4013,-3.3493,-3.2806,-3.201,-3.1483,-3.1091,-3.0733,-3.0692,-3.0692,-3.0651,-3.0609,-3.0609,-3.0609,-3.0609,-3.0568,-3.0526,-3.0485,-3.0526,-3.051,-3.051,-3.0551,-3.0568,-3.0568,-3.0568,-3.0568,-3.0526,-3.0609,-3.0609,-3.0667,-3.0651,-3.0692,-3.0692,-3.0692,-3.0568,-3.0568,-3.0568,-3.0568,-3.0526,-3.051,-4.1401,-4.1255,-4.0995,-4.0871,-4.0871,-4.0871,-4.0871,-4.0888,-4.0745,-4.0648,-4.0583,-4.0404,-4.0305,-4.0255,-4.0188,-4.0087,-4.0087,-4.0087,-4.0087,-4.0087,-4.0087,-4.0087,-4.0087,-4.0087,-4.0087,-4.0087,-4.0087,-4.0087,-4.0087,-4.0087,-4.0087,-4.0087,-4.0087,-4.0087,-4.0087,-4.0087,-4.0087,-4.0037,-3.9766,-3.9495,-3.8802,-3.8091,-3.7263,-3.6738,-3.6045,-3.5673,-3.5639,-3.5639,-3.5639,-3.5639,-3.5639,-3.5639,-3.5639,-3.5639,-3.5639,-3.5639,-3.5639,-3.5639,-3.5639,-3.5639,-3.5639,-3.5639,-3.5639,-3.5639,-3.5639,-3.5639,-3.5577,-3.5594,-3.5566,-3.5503,-3.5503,-3.5503,-3.5503,-3.5475,-3.5278,-3.4959,-3.4555,-3.4034,-3.3429,-3.2639,-3.1993,-3.1523,-3.1139,-3.0814,-3.0831,-3.079,-3.0733,-3.0733,-3.0692,-3.0692,-3.0692,-3.0692,-3.0692,-3.0708,-3.0692,-3.0692,-3.0651,-3.0651,-3.0651,-3.0651,-3.0667,-3.0749,-3.079,-3.079,-3.079,-3.0773,-3.0814,-3.0855,-3.0814,-3.0749,-3.0708,-3.0667,-3.0626,-3.0568,-3.0568,-4.1735,-4.149,-4.1328,-4.1134,-4.0918,-4.0871,-4.0871,-4.0888,-4.0793,-4.0745,-4.0631,-4.0453,-4.0355,-4.0337,-4.0188,-4.0087,-4.0087,-4.0087,-4.0087,-4.0087,-4.0087,-4.0087,-4.0087,-4.0087,-4.0087,-4.0087,-4.0087,-4.0087,-4.0087,-4.0087,-4.0087,-4.0087,-4.0087,-4.0087,-4.0087,-4.0087,-4.0087,-4.0087,-4.002,-3.9884,-3.9259,-3.8616,-3.7872,-3.7178,-3.6434,-3.5876,-3.5723,-3.5639,-3.5639,-3.5639,-3.5639,-3.5639,-3.5639,-3.5639,-3.5639,-3.5639,-3.5639,-3.5639,-3.5639,-3.5639,-3.5639,-3.5639,-3.5639,-3.5639,-3.5639,-3.5639,-3.5577,-3.5577,-3.5594,-3.5639,-3.5639,-3.5594,-3.5532,-3.5503,-3.5532,-3.5279,-3.4975,-3.4503,-3.3895,-3.3237,-3.2572,-3.184,-3.1571,-3.1211,-3.0912,-3.0871,-3.0831,-3.0831,-3.0831,-3.0831,-3.0831,-3.0831,-3.0831,-3.0871,-3.0912,-3.0831,-3.0773,-3.0773,-3.0773,-3.0773,-3.0831,-3.0912,-3.0912,-3.0871,-3.0871,-3.0895,-3.0935,-3.0935,-3.0952,-3.0912,-3.0831,-3.079,-3.0708,-3.0667,-3.0651,-4.2279,-4.1604,-4.1906,-4.1622,-4.0965,-4.0935,-4.0935,-4.0918,-4.0888,-4.0871,-4.0823,-4.0631,-4.0485,-4.0419,-4.0288,-4.0188,-4.0138,-4.0138,-4.0138,-4.0138,-4.0138,-4.0138,-4.0087,-4.0087,-4.0087,-4.0087,-4.0087,-4.0087,-4.0087,-4.0087,-4.0087,-4.0087,-4.0087,-4.0087,-4.0087,-4.0087,-4.0087,-4.0087,-4.0087,-4.0003,-3.9783,-3.9174,-3.8447,-3.7702,-3.6941,-3.6299,-3.5757,-3.5639,-3.5639,-3.5639,-3.5639,-3.5639,-3.5639,-3.5639,-3.5639,-3.5639,-3.5639,-3.5639,-3.5639,-3.5639,-3.5639,-3.5639,-3.5639,-3.5639,-3.5639,-3.5639,-3.5639,-3.5639,-3.5639,-3.5639,-3.5639,-3.5639,-3.5577,-3.5577,-3.5577,-3.5509,-3.5188,-3.5003,-3.4428,-3.3786,-3.2883,-3.21,-3.1928,-3.1641,-3.119,-3.0992,-3.0912,-3.0912,-3.0952,-3.0952,-3.0992,-3.0992,-3.0992,-3.0992,-3.0992,-3.0952,-3.0912,-3.0895,-3.0895,-3.0895,-3.0952,-3.0992,-3.0952,-3.0952,-3.0952,-3.1015,-3.1015,-3.1015,-3.0992,-3.1009,-3.0912,-3.0871,-3.079,-3.0749,-3.0749,-4.2239,-4.1948,-4.1507,-4.1328,-4.1283,-4.1283,-4.1163,-4.0918,-4.0871,-4.0871,-4.0871,-4.068,-4.0648,-4.06,-4.0485,-4.0337,-4.0337,-4.0238,-4.0238,-4.0238,-4.0138,-4.0138,-4.007,-4.0121,-4.0087,-4.0087,-4.0087,-4.0087,-4.0087,-4.0087,-4.0087,-4.0087,-4.0087,-4.0087,-4.0087,-4.0087,-4.0087,-4.0087,-4.0087,-4.0054,-4.0003,-3.9394,-3.87,-3.7973,-3.7229,-3.6485,-3.5757,-3.5707,-3.5639,-3.5639,-3.5639,-3.5639,-3.5639,-3.5639,-3.5639,-3.5639,-3.5639,-3.5639,-3.5639,-3.5639,-3.5639,-3.5639,-3.5639,-3.5639,-3.5639,-3.5639,-3.5639,-3.5639,-3.5639,-3.5639,-3.5639,-3.5639,-3.5577,-3.5622,-3.5622,-3.5622,-3.547,-3.5341,-3.5003,-3.4336,-3.3482,-3.2334,-3.1782,-3.1596,-3.1213,-3.1112,-3.1072,-3.1072,-3.1072,-3.1112,-3.1112,-3.1112,-3.1112,-3.1112,-3.1072,-3.1032,-3.1032,-3.1032,-3.1015,-3.1015,-3.1032,-3.1072,-3.1072,-3.1072,-3.1112,-3.1151,-3.1095,-3.1112,-3.1112,-3.1128,-3.1032,-3.0952,-3.0871,-3.0831,-3.0773,-4.236,-4.1948,-4.1846,-4.1648,-4.1516,-4.1356,-4.1117,-4.0918,-4.0871,-4.0871,-4.0871,-4.0745,-4.0714,-4.0648,-4.0583,-4.0485,-4.0485,-4.0436,-4.0387,-4.0337,-4.0238,-4.0188,-4.0171,-4.0121,-4.007,-4.0087,-4.0087,-4.0087,-4.0087,-4.0087,-4.0087,-4.0087,-4.0087,-4.0087,-4.0087,-4.0087,-4.0087,-4.0087,-4.0087,-4.007,-3.9952,-3.958,-3.9056,-3.8345,-3.7618,-3.684,-3.6197,-3.5825,-3.5639,-3.5639,-3.5639,-3.5639,-3.5639,-3.5639,-3.5639,-3.5639,-3.5639,-3.5639,-3.5639,-3.5639,-3.5639,-3.5639,-3.5639,-3.5639,-3.5639,-3.5639,-3.5639,-3.5639,-3.5639,-3.5639,-3.5639,-3.5639,-3.5639,-3.5639,-3.5639,-3.5639,-3.5622,-3.5537,-3.547,-3.4759,-3.3829,-3.2679,-3.1562,-3.141,-3.1207,-3.119,-3.119,-3.119,-3.119,-3.119,-3.119,-3.119,-3.119,-3.1151,-3.1151,-3.1112,-3.1151,-3.119,-3.1151,-3.1095,-3.1112,-3.1151,-3.119,-3.119,-3.119,-3.1151,-3.119,-3.119,-3.1151,-3.1151,-3.1112,-3.1032,-3.0952,-3.0952,-3.0895,-4.2657,-4.1778,-4.2884,-4.2598,-4.1578,-4.1134,-4.0918,-4.0918,-4.0918,-4.0918,-4.0871,-4.0793,-4.0745,-4.0697,-4.0583,-4.0534,-4.0534,-4.0517,-4.0485,-4.0436,-4.0337,-4.0288,-4.0238,-4.0171,-4.0121,-4.0087,-4.0087,-4.0087,-4.0087,-4.0087,-4.0087,-4.0087,-4.0087,-4.0087,-4.0087,-4.0087,-4.0087,-4.0087,-4.0087,-4.0087,-4.0003,-3.9986,-3.9462,-3.8836,-3.821,-3.7449,-3.6755,-3.618,-3.5825,-3.569,-3.5639,-3.5639,-3.5639,-3.5639,-3.5639,-3.5639,-3.5639,-3.5639,-3.5639,-3.5639,-3.5639,-3.5639,-3.5639,-3.5639,-3.5639,-3.5639,-3.5639,-3.5639,-3.5639,-3.5639,-3.5639,-3.5639,-3.5639,-3.5639,-3.5639,-3.5639,-3.5639,-3.5605,-3.5605,-3.5013,-3.4049,-3.2916,-3.1613,-3.119,-3.119,-3.119,-3.119,-3.119,-3.119,-3.119,-3.119,-3.119,-3.119,-3.119,-3.119,-3.1151,-3.119,-3.119,-3.119,-3.1151,-3.119,-3.119,-3.119,-3.119,-3.119,-3.119,-3.119,-3.119,-3.119,-3.119,-3.1151,-3.1112,-3.0992,-3.1072,-3.1112,-4.2157,-4.1561,-4.1931,-4.1846,-4.149,-4.1088,-4.0871,-4.0918,-4.1163,-4.1209,-4.0871,-4.0888,-4.084,-4.0823,-4.0776,-4.0793,-4.0745,-4.0697,-4.0631,-4.0534,-4.0436,-4.0355,-4.0255,-4.0171,-4.0138,-4.0087,-4.0087,-4.0087,-4.0087,-4.0087,-4.0087,-4.0087,-4.0087,-4.0087,-4.0087,-4.0087,-4.0087,-4.0138,-4.0138,-4.0087,-4.0087,-4.0087,-3.9648,-3.914,-3.8785,-3.8038,-3.7089,-3.6649,-3.6243,-3.5707,-3.5656,-3.5639,-3.5639,-3.5639,-3.5639,-3.5639,-3.5639,-3.5639,-3.5639,-3.5639,-3.5639,-3.5639,-3.5639,-3.5639,-3.5639,-3.5639,-3.5639,-3.5639,-3.5639,-3.5639,-3.5639,-3.5639,-3.5639,-3.5639,-3.5639,-3.5639,-3.5639,-3.5639,-3.5588,-3.4928,-3.3981,-3.2899,-3.163,-3.119,-3.119,-3.119,-3.119,-3.119,-3.119,-3.119,-3.119,-3.119,-3.119,-3.119,-3.119,-3.119,-3.119,-3.119,-3.119,-3.119,-3.119,-3.119,-3.119,-3.119,-3.119,-3.119,-3.119,-3.119,-3.119,-3.119,-3.119,-3.1112,-3.1072,-3.1151,-3.119,-4.2092,-4.1561,-4.1692,-4.1692,-4.1534,-4.1463,-4.1255,-4.1012,-4.1163,-4.1117,-4.0918,-4.0871,-4.0871,-4.0871,-4.0871,-4.0871,-4.0871,-4.084,-4.0793,-4.068,-4.0485,-4.0436,-4.0337,-4.0188,-4.0138,-4.0087,-4.0087,-4.0087,-4.0121,-4.007,-4.0087,-4.0087,-4.0087,-4.0087,-4.0087,-4.0138,-4.0121,-4.0138,-4.0138,-4.0138,-4.0138,-4.0121,-3.9799,-3.9511,-3.934,-3.8408,-3.7488,-3.7199,-3.652,-3.5892,-3.5756,-3.5756,-3.5756,-3.5728,-3.5667,-3.5667,-3.5622,-3.5684,-3.5684,-3.5622,-3.5622,-3.5622,-3.5622,-3.5639,-3.5639,-3.5639,-3.5639,-3.5639,-3.5639,-3.5639,-3.5639,-3.5639,-3.5639,-3.5639,-3.5639,-3.5639,-3.5639,-3.5639,-3.5216,-3.4641,-3.3744,-3.2713,-3.1935,-3.1478,-3.119,-3.119,-3.119,-3.119,-3.119,-3.119,-3.119,-3.119,-3.119,-3.119,-3.119,-3.119,-3.119,-3.119,-3.119,-3.119,-3.119,-3.119,-3.119,-3.119,-3.119,-3.119,-3.119,-3.119,-3.119,-3.119,-3.119,-3.1151,-3.1151,-3.1151,-3.1151,-4.2378,-4.1604,-4.2032,-4.1948,-4.1648,-4.1888,-4.1622,-4.0918,-4.0918,-4.0871,-4.0871,-4.0871,-4.0871,-4.0871,-4.0871,-4.0871,-4.0871,-4.0888,-4.0888,-4.0888,-4.0566,-4.0485,-4.0387,-4.0221,-4.0138,-4.0087,-4.0138,-4.0121,-4.0121,-4.0188,-4.0188,-4.0138,-4.0138,-4.0138,-4.0138,-4.0138,-4.0188,-4.0238,-4.0238,-4.0188,-4.0121,-4.0121,-4.0171,-4.0085,-3.9642,-3.8976,-3.8303,-3.7632,-3.6864,-3.6351,-3.5975,-3.5975,-3.5932,-3.5888,-3.58,-3.58,-3.5756,-3.5756,-3.5756,-3.5711,-3.5667,-3.5667,-3.5622,-3.5622,-3.5639,-3.5639,-3.5639,-3.5639,-3.5639,-3.5639,-3.5639,-3.5639,-3.5639,-3.5639,-3.5639,-3.5639,-3.5639,-3.5487,-3.5047,-3.4455,-3.3694,-3.2662,-3.1664,-3.119,-3.119,-3.119,-3.119,-3.119,-3.119,-3.119,-3.119,-3.119,-3.119,-3.119,-3.119,-3.119,-3.119,-3.119,-3.119,-3.119,-3.119,-3.119,-3.119,-3.119,-3.119,-3.119,-3.119,-3.119,-3.119,-3.119,-3.119,-3.119,-3.119,-3.119,-3.119,-4.2537,-4.2032,-4.2157,-4.2115,-4.199,-4.1778,-4.1401,-4.0918,-4.0871,-4.0918,-4.0871,-4.0935,-4.0871,-4.0871,-4.0871,-4.0871,-4.0871,-4.0871,-4.0871,-4.0823,-4.0614,-4.0517,-4.0468,-4.0271,-4.0121,-4.0087,-4.0121,-4.0171,-4.0238,-4.0337,-4.0387,-4.037,-4.0337,-4.0238,-4.0238,-4.0238,-4.0288,-4.0337,-4.0337,-4.0337,-4.0288,-4.0238,-4.0271,-4.0303,-4.0012,-3.9685,-3.9033,-3.8333,-3.7615,-3.6966,-3.6249,-3.6044,-3.5993,-3.5975,-3.5932,-3.5932,-3.5888,-3.5888,-3.5888,-3.5844,-3.58,-3.58,-3.5756,-3.5728,-3.5684,-3.5639,-3.5639,-3.5639,-3.5639,-3.5639,-3.5639,-3.5639,-3.5639,-3.5639,-3.5639,-3.5639,-3.5639,-3.5284,-3.4912,-3.4218,-3.3541,-3.2645,-3.1613,-3.119,-3.119,-3.119,-3.119,-3.119,-3.119,-3.119,-3.119,-3.119,-3.119,-3.119,-3.119,-3.119,-3.119,-3.119,-3.119,-3.119,-3.119,-3.119,-3.119,-3.119,-3.119,-3.119,-3.119,-3.119,-3.119,-3.119,-3.119,-3.119,-3.119,-3.119,-3.119,-4.2768,-4.2516,-4.2279,-4.2216,-4.2157,-4.1906,-4.1709,-4.1445,-4.1237,-4.1163,-4.1134,-4.1012,-4.0871,-4.0918,-4.0871,-4.0871,-4.0871,-4.0871,-4.0871,-4.0823,-4.068,-4.0583,-4.0436,-4.032,-4.0288,-4.0238,-4.0288,-4.0337,-4.0404,-4.0436,-4.0468,-4.0517,-4.0436,-4.0436,-4.0436,-4.0387,-4.0436,-4.0502,-4.0534,-4.0534,-4.0436,-4.0436,-4.0436,-4.0502,-4.0449,-4.0155,-3.9718,-3.9015,-3.8311,-3.7418,-3.6543,-3.6174,-3.6105,-3.6079,-3.6079,-3.6062,-3.6019,-3.6019,-3.6019,-3.6019,-3.5932,-3.5932,-3.5932,-3.5888,-3.5844,-3.58,-3.5667,-3.5622,-3.5639,-3.5639,-3.5639,-3.5639,-3.5639,-3.5639,-3.5639,-3.5639,-3.5639,-3.5487,-3.4742,-3.3795,-3.3203,-3.2696,-3.1782,-3.119,-3.119,-3.119,-3.119,-3.119,-3.119,-3.119,-3.119,-3.119,-3.119,-3.119,-3.119,-3.119,-3.119,-3.119,-3.119,-3.119,-3.119,-3.119,-3.119,-3.119,-3.119,-3.119,-3.119,-3.119,-3.119,-3.119,-3.119,-3.119,-3.119,-3.119,-3.123,-4.2886,-4.2902,-4.2537,-4.2338,-4.2297,-4.2297,-4.2257,-4.2115,-4.1796,-4.1604,-4.1578,-4.1255,-4.1041,-4.0918,-4.0871,-4.0871,-4.0871,-4.0871,-4.0871,-4.0871,-4.0745,-4.0631,-4.0583,-4.0485,-4.0387,-4.0387,-4.0436,-4.0485,-4.0534,-4.0583,-4.0631,-4.0614,-4.0614,-4.0645,-4.0645,-4.0693,-4.0819,-4.0789,-4.0806,-4.0758,-4.071,-4.0648,-4.06,-4.0648,-4.0693,-4.0397,-4.0014,-3.9526,-3.8888,-3.7887,-3.681,-3.6354,-3.6191,-3.6191,-3.6318,-3.6276,-3.6174,-3.6233,-3.6276,-3.6241,-3.6131,-3.6062,-3.6062,-3.6062,-3.6045,-3.5932,-3.58,-3.5711,-3.5667,-3.5622,-3.5622,-3.5639,-3.5639,-3.5639,-3.5639,-3.5639,-3.5639,-3.5588,-3.4658,-3.3609,-3.3068,-3.2645,-3.1901,-3.1292,-3.119,-3.119,-3.119,-3.119,-3.119,-3.119,-3.119,-3.119,-3.119,-3.119,-3.119,-3.119,-3.119,-3.119,-3.119,-3.119,-3.119,-3.119,-3.119,-3.119,-3.119,-3.119,-3.119,-3.119,-3.119,-3.123,-3.1312,-3.1351,-3.123,-3.1269,-3.1269,-4.2807,-4.3375,-4.3267,-4.3069,-4.2806,-4.2768,-4.2555,-4.2239,-4.2115,-4.2074,-4.2032,-4.1966,-4.164,-4.0918,-4.0871,-4.0965,-4.1134,-4.1041,-4.0918,-4.0871,-4.0871,-4.0728,-4.068,-4.0662,-4.0517,-4.0614,-4.0758,-4.068,-4.0931,-4.0948,-4.1041,-4.1265,-4.1185,-4.1303,-4.1656,-4.1613,-4.1437,-4.1338,-4.1265,-4.1293,-4.1192,-4.1024,-4.0697,-4.0745,-4.0793,-4.0737,-4.0526,-4.0008,-3.9267,-3.8267,-3.7232,-3.6627,-3.6385,-3.6385,-3.6492,-3.6615,-3.6474,-3.6533,-3.6557,-3.6603,-3.658,-3.6409,-3.6409,-3.6392,-3.6284,-3.6088,-3.5958,-3.581,-3.5783,-3.5667,-3.5667,-3.5639,-3.5639,-3.5639,-3.5639,-3.5639,-3.5639,-3.5436,-3.4928,-3.4032,-3.3288,-3.251,-3.1512,-3.119,-3.119,-3.119,-3.119,-3.119,-3.119,-3.119,-3.119,-3.119,-3.119,-3.119,-3.119,-3.119,-3.119,-3.119,-3.119,-3.119,-3.119,-3.119,-3.119,-3.119,-3.119,-3.119,-3.119,-3.119,-3.1269,-3.1291,-3.1524,-3.1582,-3.1428,-3.1406,-3.1466]},{"header":{"parameterUnit":"m.s-1","parameterCategory":1,"la1":31.0,"la2":29.5877,"lo1":-88.7671,"lo2":-86.6584,"dy":0.0162,"dx":0.0185,"nx":115,"ny":88,"refTime":"2023-11-02T18:00:00:Z","depth":0,"parameterNumber":3,"parameterNumberName":"V-component_of_WINDS"},"data":[0.0,0.0,0.0,0.0,0.0,0.0,0.0,0.0,0.0,0.0,0.0,0.0,0.0,0.0,0.0,0.0,0.0,0.0,0.0,0.0,0.0,0.0,0.0,0.0,0.0,0.0,0.0,0.0,0.0,0.0,0.0,0.0,0.0,0.0,0.0,0.0,0.0,0.0,0.0,0.0,0.0,0.0,0.0,0.0,0.0,0.0,0.0,0.0,0.0,0.0,0.0,0.0,0.0,0.0,0.0,0.0,0.0,0.0,0.0,0.0,0.0,0.0,0.0,0.0,0.0,0.0,0.0,0.0,0.0,0.0,0.0,0.0,0.0,0.0,0.0,0.0,0.0,0.0,0.0,0.0,0.0,0.0,0.0,0.0,0.0,0.0,0.0,0.0,0.0,0.0,0.0,0.0,0.0,0.0,0.0,0.0,0.0,0.0,0.0,0.0,0.0,0.0,0.0,0.0,0.0,0.0,0.0,0.0,0.0,0.0,0.0,0.0,0.0,0.0,0.0,0.0,0.0,0.0,0.0,0.0,0.0,0.0,0.0,0.0,0.0,0.0,0.0,0.0,0.0,0.0,0.0,0.0,0.0,0.0,0.0,0.0,0.0,0.0,0.0,0.0,0.0,0.0,0.0,0.0,0.0,0.0,0.0,0.0,0.0,0.0,0.0,0.0,0.0,0.0,0.0,0.0,0.0,0.0,0.0,0.0,0.0,0.0,0.0,0.0,0.0,0.0,0.0,0.0,0.0,0.0,0.0,0.0,0.0,0.0,0.0,0.0,0.0,0.0,0.0,0.0,0.0,0.0,0.0,0.0,0.0,0.0,0.0,0.0,0.0,0.0,0.0,0.0,0.0,0.0,0.0,0.0,0.0,0.0,0.0,0.0,0.0,0.0,0.0,0.0,0.0,0.0,0.0,0.0,0.0,0.0,0.0,0.0,0.0,0.0,0.0,0.0,0.0,0.0,0.0,0.0,0.0,0.0,0.0,0.0,0.0,0.0,0.0,0.0,0.0,0.0,0.0,0.0,0.0,0.0,0.0,0.0,0.0,0.0,0.0,0.0,0.0,0.0,0.0,0.0,0.0,0.0,0.0,0.0,0.0,0.0,0.0,0.0,0.0,0.0,0.0,0.0,0.0,0.0,0.0,0.0,0.0,0.0,0.0,0.0,0.0,0.0,0.0,0.0,0.0,0.0,0.0,0.0,0.0,0.0,0.0,0.0,0.0,0.0,0.0,0.0,0.0,0.0,0.0,0.0,0.0,0.0,0.0,0.0,0.0,0.0,0.0,0.0,0.0,0.0,0.0,0.0,0.0,0.0,0.0,0.0,0.0,0.0,0.0,0.0,0.0,0.0,0.0,0.0,0.0,0.0,0.0,0.0,0.0,0.0,0.0,0.0,0.0,0.0,0.0,0.0,0.0,0.0,0.0,0.0,0.0,0.0,0.0,0.0,0.0,0.0,0.0,0.0,0.0,0.0,0.0,0.0,0.0,0.0,0.0,0.0,0.0,0.0,0.0,0.0,0.0,0.0,0.0,0.0,0.0,0.0,0.0,0.0,0.0,0.0,0.0,0.0,0.0,0.0,0.0,0.0,0.0,0.0,0.0,0.0,0.0,0.0,0.0,0.0,0.0,0.0,0.0,0.0,0.0,0.0,0.0,0.0,0.0,0.0,0.0,0.0,0.0,0.0,0.0,0.0,0.0,0.0,0.0,0.0,0.0,0.0,0.0,0.0,0.0,0.0,0.0,0.0,0.0,0.0,0.0,0.0,0.0,0.0,0.0,0.0,0.0,0.0,0.0,0.0,0.0,0.0,0.0,0.0,0.0,0.0,0.0,0.0,0.0,0.0,0.0,0.0,0.0,0.0,0.0,0.0,0.0,0.0,0.0,0.0,0.0,0.0,0.0,0.0,0.0,0.0,0.0,0.0,0.0,0.0,0.0,0.0,0.0,0.0,0.0,0.0,0.0,0.0,0.0,0.0,0.0,0.0,0.0,0.0,0.0,0.0,0.0,0.0,0.0,0.0,0.0,0.0,0.0,0.0,0.0,0.0,0.0,0.0,0.0,0.0,0.0,0.0,0.0,0.0,0.0,0.0,0.0,0.0,0.0,0.0,0.0,0.0,0.0,0.0,0.0,0.0,0.0,0.0,0.0,0.0,0.0,0.0,0.0,0.0,0.0,0.0,0.0,0.0,0.0,0.0,0.0,0.0,0.0,0.0,0.0,0.0,0.0,0.0,0.0,0.0,0.0,0.0,0.0,0.0,0.0,0.0,0.0,0.0,0.0,0.0,0.0,0.0,0.0,0.0,0.0,0.0,0.0,0.0,0.0,0.0,0.0,0.0,0.0,0.0,0.0,0.0,0.0,0.0,0.0,0.0,0.0,0.0,0.0,0.0,0.0,0.0,0.0,0.0,0.0,0.0,0.0,0.0,0.0,0.0,0.0,0.0,0.0,0.0,0.0,0.0,0.0,0.0,0.0,0.0,0.0,0.0,0.0,0.0,0.0,0.0,0.0,0.0,0.0,0.0,0.0,0.0,0.0,0.0,0.0,0.0,0.0,0.0,0.0,0.0,0.0,0.0,0.0,0.0,0.0,0.0,0.0,0.0,0.0,0.0,0.0,0.0,0.0,0.0,0.0,0.0,0.0,0.0,0.0,0.0,0.0,0.0,0.0,0.0,0.0,0.0,0.0,0.0,0.0,0.0,0.0,0.0,0.0,0.0,0.0,0.0,0.0,0.0,0.0,0.0,0.0,0.0,0.0,0.0,0.0,0.0,0.0,0.0,0.0,0.0,0.0,0.0,0.0,0.0,0.0,0.0,0.0,0.0,0.0,0.0,0.0,0.0,0.0,0.0,0.0,0.0,0.0,0.0,0.0,0.0,0.0,0.0,0.0,0.0,0.0,0.0,0.0,0.0,0.0,0.0,0.0,0.0,0.0,0.0,0.0,0.0,0.0,0.0,0.0,0.0,0.0,0.0,0.0,0.0,0.0,0.0,0.0,0.0,0.0,0.0,0.0,0.0,0.0,0.0,0.0,0.0,0.0,0.0,0.0,0.0,0.0,0.0,0.0,0.0,0.0,0.0,0.0,0.0,0.0,0.0,0.0,0.0,0.0,0.0,0.0,0.0,0.0,0.0,0.0,0.0,0.0,0.0,0.0,0.0,0.0,0.0,0.0,0.0,0.0,0.0,0.0,0.0,0.0,0.0,0.0,0.0,0.0,0.0,0.0,0.0,0.0,0.0,0.0,0.0,0.0,0.0,0.0,0.0,0.0,0.0,0.0,0.0,0.0,0.0,0.0,0.0,0.0,0.0,0.0,0.0,0.0,0.0,0.0,0.0,0.0,0.0,0.0,0.0,0.0,0.0,0.0,0.0,0.0,0.0,0.0,0.0,0.0,0.0,0.0,0.0,0.0,0.0,0.0,0.0,0.0,0.0,0.0,0.0,0.0,0.0,0.0,0.0,0.0,0.0,0.0,0.0,0.0,0.0,0.0,0.0,0.0,0.0,0.0,0.0,0.0,0.0,0.0,0.0,0.0,0.0,0.0,0.0,0.0,0.0,0.0,0.0,0.0,0.0,0.0,0.0,0.0,0.0,0.0,0.0,0.0,0.0,0.0,0.0,0.0,0.0,0.0,0.0,0.0,0.0,0.0,0.0,0.0,0.0,0.0,0.0,0.0,0.0,0.0,0.0,0.0,0.0,0.0,0.0,0.0,0.0,0.0,0.0,0.0,0.0,0.0,0.0,0.0,0.0,0.0,0.0,0.0,0.0,0.0,0.0,0.0,0.0,0.0,0.0,0.0,0.0,0.0,0.0,0.0,0.0,0.0,0.0,0.0,0.0,0.0,0.0,0.0,0.0,0.0,0.0,0.0,0.0,0.0,0.0,0.0,0.0,0.0,0.0,0.0,0.0,0.0,0.0,0.0,0.0,0.0,0.0,0.0,0.0,0.0,0.0,0.0,0.0,0.0,0.0,0.0,0.0,0.0,0.0,0.0,0.0,0.0,0.0,0.0,0.0,0.0,0.0,0.0,0.0,0.0,0.0,0.0,0.0,0.0,0.0,0.0,0.0,0.0,0.0,0.0,0.0,0.0,0.0,0.0,0.0,0.0,0.0,0.0,0.0,0.0,0.0,0.0,0.0,0.0,0.0,0.0,0.0,0.0,0.0,0.0,0.0,0.0,0.0,0.0,0.0,0.0,0.0,0.0,0.0,0.0,0.0,0.0,0.0,0.0,0.0,0.0,0.0,0.0,0.0,0.0,0.0,-1.2325,0.0,0.0,0.0,0.0,0.0,0.0,0.0,0.0,0.0,0.0,0.0,0.0,0.0,0.0,0.0,0.0,0.0,0.0,0.0,0.0,0.0,0.0,0.0,0.0,0.0,0.0,0.0,0.0,0.0,0.0,0.0,0.0,0.0,0.0,0.0,0.0,0.0,0.0,0.0,0.0,0.0,0.0,0.0,0.0,0.0,0.0,0.0,0.0,0.0,0.0,0.0,0.0,0.0,0.0,0.0,0.0,0.0,0.0,0.0,0.0,0.0,0.0,0.0,0.0,0.0,0.0,0.0,0.0,0.0,0.0,0.0,0.0,0.0,0.0,0.0,0.0,0.0,0.0,0.0,0.0,0.0,0.0,0.0,0.0,0.0,0.0,0.0,0.0,0.0,0.0,0.0,0.0,0.0,0.0,0.0,0.0,0.0,0.0,0.0,0.0,0.0,0.0,0.0,0.0,0.0,0.0,0.0,0.0,0.0,0.0,-1.3543,-1.3463,-1.3038,-1.2562,-1.1996,0.0,0.0,0.0,0.0,0.0,0.0,0.0,0.0,0.0,0.0,0.0,0.0,0.0,0.0,0.0,0.0,0.0,0.0,0.0,0.0,0.0,0.0,0.0,0.0,0.0,0.0,0.0,0.0,0.0,0.0,0.0,0.0,0.0,0.0,0.0,0.0,0.0,0.0,0.0,0.0,0.0,0.0,0.0,0.0,0.0,0.0,0.0,0.0,0.0,0.0,0.0,0.0,0.0,0.0,0.0,0.0,0.0,0.0,0.0,0.0,0.0,0.0,0.0,0.0,0.0,0.0,0.0,0.0,0.0,0.0,0.0,0.0,0.0,0.0,0.0,0.0,0.0,0.0,0.0,0.0,0.0,0.0,0.0,0.0,0.0,0.0,0.0,0.0,0.0,0.0,0.0,0.0,0.0,0.0,0.0,0.0,0.0,0.0,0.0,0.0,0.0,0.0,0.0,0.0,0.0,0.0,0.0,0.0,0.0,0.0,0.0,0.0,-1.3076,-1.2513,-1.1724,0.0,0.0,0.0,0.0,0.0,0.0,0.0,0.0,0.0,0.0,0.0,0.0,0.0,0.0,0.0,0.0,0.0,0.0,0.0,0.0,0.0,0.0,0.0,0.0,0.0,0.0,0.0,0.0,0.0,0.0,0.0,0.0,0.0,0.0,0.0,0.0,0.0,0.0,0.0,0.0,0.0,0.0,0.0,0.0,0.0,0.0,0.0,0.0,0.0,0.0,0.0,0.0,0.0,0.0,0.0,0.0,0.0,0.0,0.0,0.0,0.0,0.0,0.0,0.0,0.0,0.0,0.0,0.0,0.0,0.0,0.0,0.0,0.0,0.0,0.0,0.0,0.0,0.0,0.0,0.0,0.0,0.0,0.0,0.0,0.0,0.0,0.0,0.0,0.0,0.0,0.0,0.0,0.0,0.0,0.0,0.0,0.0,0.0,0.0,0.0,0.0,0.0,0.0,0.0,0.0,0.0,0.0,0.0,0.0,0.0,-1.3801,-1.2744,-1.3029,0.0,-1.1664,0.0,0.0,0.0,0.0,0.0,0.0,0.0,0.0,0.0,0.0,0.0,0.0,0.0,0.0,0.0,0.0,0.0,0.0,0.0,0.0,0.0,0.0,0.0,0.0,0.0,0.0,0.0,0.0,0.0,0.0,0.0,0.0,0.0,0.0,0.0,0.0,0.0,0.0,0.0,0.0,0.0,0.0,0.0,0.0,0.0,0.0,0.0,0.0,0.0,0.0,0.0,0.0,0.0,0.0,0.0,0.0,0.0,0.0,0.0,0.0,0.0,0.0,0.0,0.0,0.0,0.0,0.0,0.0,0.0,0.0,0.0,0.0,0.0,0.0,0.0,0.0,0.0,0.0,0.0,0.0,0.0,0.0,0.0,0.0,0.0,0.0,0.0,0.0,0.0,0.0,0.0,0.0,0.0,0.0,0.0,0.0,0.0,0.0,0.0,0.0,0.0,0.0,0.0,0.0,0.0,0.0,0.0,0.0,0.0,0.0,-1.4272,-1.3455,-1.2828,-1.2077,0.0,0.0,0.0,0.0,0.0,0.0,0.0,0.0,0.0,0.0,0.0,0.0,0.0,0.0,0.0,0.0,0.0,0.0,0.0,0.0,0.0,0.0,0.0,0.0,0.0,0.0,0.0,0.0,0.0,0.0,0.0,0.0,0.0,0.0,0.0,0.0,0.0,0.0,0.0,0.0,0.0,0.0,0.0,0.0,0.0,0.0,0.0,0.0,0.0,0.0,0.0,0.0,0.0,0.0,0.0,0.0,0.0,0.0,0.0,0.0,0.0,0.0,0.0,0.0,0.0,0.0,0.0,0.0,0.0,0.0,0.0,0.0,0.0,0.0,0.0,0.0,0.0,0.0,0.0,0.0,0.0,0.0,0.0,0.0,0.0,0.0,0.0,0.0,0.0,0.0,0.0,0.0,0.0,0.0,0.0,0.0,0.0,0.0,0.0,0.0,0.0,0.0,0.0,0.0,0.0,0.0,0.0,0.0,0.0,0.0,-1.522,-1.4778,-1.4094,-1.2696,-1.1718,-1.1292,0.0,0.0,0.0,0.0,0.0,0.0,0.0,0.0,0.0,0.0,0.0,0.0,0.0,0.0,0.0,0.0,0.0,0.0,0.0,0.0,0.0,0.0,0.0,0.0,0.0,0.0,0.0,0.0,0.0,0.0,0.0,0.0,0.0,0.0,0.0,0.0,0.0,0.0,0.0,0.0,0.0,0.0,0.0,0.0,0.0,0.0,0.0,0.0,0.0,0.0,0.0,0.0,0.0,0.0,0.0,0.0,0.0,0.0,0.0,0.0,0.0,0.0,0.0,0.0,0.0,0.0,0.0,0.0,0.0,0.0,0.0,0.0,0.0,0.0,0.0,0.0,0.0,0.0,0.0,0.0,0.0,0.0,0.0,0.0,0.0,0.0,0.0,0.0,0.0,0.0,0.0,0.0,0.0,0.0,0.0,0.0,0.0,0.0,0.0,0.0,0.0,0.0,0.0,0.0,0.0,0.0,0.0,0.0,-1.5788,-1.5623,-1.5175,-1.4389,-1.2785,-1.2013,0.0,0.0,0.0,0.0,0.0,0.0,0.0,0.0,0.0,0.0,0.0,0.0,0.0,0.0,0.0,0.0,0.0,0.0,0.0,0.0,0.0,0.0,0.0,0.0,0.0,0.0,0.0,0.0,0.0,0.0,0.0,0.0,0.0,0.0,0.0,0.0,0.0,0.0,0.0,0.0,0.0,0.0,0.0,0.0,0.0,0.0,0.0,0.0,0.0,0.0,0.0,0.0,0.0,0.0,0.0,0.0,0.0,0.0,0.0,0.0,0.0,0.0,0.0,0.0,0.0,0.0,0.0,0.0,0.0,0.0,0.0,0.0,0.0,0.0,0.0,0.0,0.0,0.0,0.0,0.0,0.0,0.0,0.0,0.0,0.0,0.0,0.0,0.0,0.0,0.0,0.0,0.0,0.0,0.0,0.0,0.0,0.0,0.0,0.0,0.0,0.0,0.0,0.0,0.0,0.0,0.0,0.0,0.0,0.0,-1.6044,-1.5379,-1.4733,-1.4205,-1.3281,-1.2605,0.0,0.0,0.0,0.0,0.0,0.0,0.0,0.0,0.0,0.0,0.0,0.0,0.0,0.0,0.0,0.0,0.0,0.0,0.0,0.0,0.0,0.0,0.0,0.0,0.0,0.0,0.0,0.0,0.0,0.0,0.0,0.0,0.0,0.0,0.0,0.0,0.0,0.0,0.0,0.0,0.0,0.0,0.0,0.0,0.0,0.0,0.0,0.0,0.0,0.0,0.0,0.0,0.0,0.0,0.0,0.0,0.0,0.0,0.0,0.0,0.0,0.0,0.0,0.0,0.0,0.0,0.0,0.0,0.0,0.0,0.0,0.0,0.0,0.0,0.0,0.0,0.0,0.0,0.0,0.0,0.0,0.0,0.0,0.0,0.0,0.0,0.0,0.0,0.0,0.0,0.0,0.0,0.0,0.0,0.0,0.0,0.0,0.0,0.0,0.0,0.0,0.0,0.0,0.0,0.0,0.0,0.0,0.0,0.0,-1.6349,0.0,-1.4586,-1.4494,-1.3862,-1.3217,0.0,0.0,0.0,0.0,0.0,0.0,0.0,0.0,0.0,0.0,0.0,0.0,0.0,0.0,0.0,0.0,0.0,0.0,0.0,0.0,0.0,0.0,0.0,0.0,0.0,0.0,0.0,0.0,0.0,0.0,0.0,0.0,0.0,0.0,0.0,0.0,0.0,0.0,0.0,0.0,0.0,0.0,0.0,0.0,0.0,0.0,0.0,0.0,0.0,0.0,0.0,0.0,0.0,0.0,0.0,0.0,0.0,0.0,0.0,0.0,0.0,0.0,0.0,0.0,0.0,0.0,0.0,0.0,0.0,0.0,0.0,0.0,0.0,0.0,0.0,0.0,0.0,0.0,0.0,0.0,0.0,0.0,0.0,0.0,0.0,0.0,0.0,0.0,0.0,0.0,0.0,0.0,0.0,0.0,0.0,0.0,0.0,0.0,0.0,0.0,0.0,0.0,0.0,0.0,0.0,0.0,0.0,0.0,-1.7031,-1.6667,-1.5175,-1.4674,-1.5242,-1.4492,-1.3839,0.0,0.0,0.0,0.0,0.0,0.0,0.0,0.0,0.0,0.0,0.0,0.0,0.0,0.0,0.0,0.0,0.0,0.0,0.0,0.0,0.0,0.0,0.0,0.0,0.0,0.0,0.0,0.0,0.0,0.0,0.0,0.0,0.0,0.0,0.0,0.0,0.0,0.0,0.0,0.0,0.0,0.0,0.0,0.0,0.0,0.0,0.0,0.0,0.0,0.0,0.0,0.0,0.0,0.0,0.0,0.0,0.0,0.0,0.0,0.0,0.0,0.0,0.0,0.0,0.0,0.0,0.0,0.0,0.0,0.0,0.0,0.0,0.0,0.0,0.0,0.0,0.0,0.0,0.0,0.0,0.0,0.0,0.0,0.0,0.0,0.0,0.0,0.0,0.0,0.0,0.0,0.0,0.0,0.0,0.0,0.0,0.0,0.0,0.0,0.0,0.0,0.0,0.0,0.0,0.0,0.0,0.0,0.0,0.0,-1.6667,-1.5311,-1.4834,-1.5254,-1.4665,-1.4149,0.0,0.0,0.0,0.0,0.0,0.0,0.0,0.0,0.0,0.0,0.0,0.0,0.0,0.0,0.0,0.0,0.0,0.0,0.0,0.0,0.0,0.0,0.0,0.0,0.0,0.0,0.0,0.0,0.0,0.0,0.0,0.0,0.0,0.0,0.0,0.0,0.0,0.0,0.0,0.0,0.0,0.0,0.0,0.0,0.0,0.0,0.0,0.0,0.0,0.0,0.0,0.0,0.0,0.0,0.0,0.0,0.0,0.0,0.0,0.0,0.0,0.0,0.0,0.0,0.0,0.0,0.0,0.0,0.0,0.0,0.0,0.0,0.0,0.0,0.0,0.0,0.0,0.0,0.0,0.0,0.0,0.0,0.0,0.0,0.0,0.0,0.0,0.0,0.0,0.0,0.0,0.0,0.0,0.0,0.0,0.0,0.0,0.0,0.0,0.0,0.0,0.0,0.0,0.0,0.0,0.0,0.0,0.0,0.0,-1.6667,-1.5668,-1.522,-1.5478,-1.513,-1.4756,-1.435,0.0,0.0,0.0,0.0,0.0,0.0,0.0,0.0,0.0,0.0,0.0,0.0,0.0,0.0,0.0,0.0,0.0,0.0,0.0,0.0,0.0,0.0,0.0,0.0,0.0,0.0,0.0,0.0,0.0,0.0,0.0,0.0,0.0,0.0,0.0,0.0,0.0,0.0,0.0,0.0,0.0,0.0,0.0,0.0,0.0,0.0,0.0,0.0,0.0,0.0,0.0,0.0,0.0,0.0,0.0,0.0,0.0,0.0,0.0,0.0,0.0,0.0,0.0,0.0,0.0,0.0,0.0,0.0,0.0,0.0,0.0,0.0,0.0,0.0,0.0,0.0,0.0,0.0,0.0,0.0,0.0,0.0,0.0,0.0,0.0,0.0,0.0,0.0,0.0,0.0,0.0,0.0,0.0,0.0,0.0,0.0,0.0,0.0,0.0,0.0,0.0,0.0,0.0,0.0,0.0,0.0,0.0,0.0,-1.6672,-1.6126,-1.5832,-1.5744,-1.5744,-1.5478,0.0,0.0,0.0,0.0,0.0,0.0,0.0,0.0,0.0,0.0,0.0,0.0,0.0,0.0,0.0,0.0,0.0,0.0,0.0,0.0,0.0,0.0,0.0,0.0,0.0,0.0,0.0,0.0,0.0,0.0,0.0,0.0,0.0,0.0,0.0,0.0,0.0,0.0,0.0,0.0,0.0,0.0,0.0,0.0,0.0,0.0,0.0,0.0,0.0,0.0,0.0,0.0,0.0,0.0,0.0,0.0,0.0,0.0,0.0,0.0,0.0,0.0,0.0,0.0,0.0,0.0,0.0,0.0,0.0,0.0,0.0,0.0,0.0,0.0,0.0,0.0,0.0,0.0,0.0,0.0,0.0,0.0,0.0,0.0,0.0,0.0,0.0,0.0,0.0,0.0,0.0,0.0,0.0,0.0,0.0,0.0,0.0,0.0,0.0,0.0,0.0,0.0,0.0,0.0,0.0,0.0,0.0,0.0,0.0,-1.6477,-1.6477,-1.6139,-1.5478,-1.5433,-1.522,0.0,0.0,0.0,0.0,0.0,0.0,0.0,0.0,0.0,0.0,0.0,0.0,0.0,0.0,0.0,0.0,0.0,0.0,0.0,0.0,0.0,0.0,0.0,0.0,0.0,0.0,0.0,0.0,0.0,0.0,0.0,0.0,0.0,0.0,0.0,0.0,0.0,0.0,0.0,0.0,0.0,0.0,0.0,0.0,0.0,0.0,0.0,0.0,0.0,0.0,0.0,0.0,0.0,0.0,0.0,0.0,0.0,0.0,0.0,0.0,0.0,0.0,0.0,0.0,0.0,0.0,0.0,0.0,0.0,0.0,0.0,0.0,0.0,0.0,0.0,0.0,0.0,0.0,0.0,0.0,0.0,0.0,0.0,0.0,0.0,0.0,0.0,0.0,0.0,0.0,0.0,0.0,0.0,0.0,0.0,0.0,0.0,0.0,0.0,0.0,0.0,0.0,0.0,0.0,0.0,0.0,0.0,0.0,-1.6047,-1.6512,-1.6498,-1.6151,-1.5445,-1.5355,-1.5254,0.0,0.0,0.0,0.0,0.0,0.0,0.0,0.0,0.0,0.0,0.0,0.0,0.0,0.0,0.0,0.0,0.0,0.0,0.0,0.0,0.0,0.0,0.0,0.0,0.0,0.0,0.0,0.0,0.0,0.0,0.0,0.0,0.0,0.0,0.0,0.0,0.0,0.0,0.0,0.0,0.0,0.0,0.0,0.0,0.0,0.0,0.0,0.0,0.0,0.0,0.0,0.0,0.0,0.0,0.0,0.0,0.0,0.0,0.0,0.0,0.0,0.0,0.0,0.0,0.0,0.0,0.0,0.0,0.0,0.0,0.0,0.0,0.0,0.0,0.0,0.0,0.0,0.0,0.0,0.0,0.0,0.0,0.0,0.0,0.0,0.0,0.0,0.0,0.0,0.0,0.0,0.0,0.0,0.0,0.0,0.0,0.0,0.0,0.0,0.0,0.0,0.0,0.0,0.0,0.0,0.0,0.0,0.0,-1.5604,-1.6727,-1.6448,-1.6088,-1.5712,-1.549,-1.549,0.0,0.0,0.0,0.0,0.0,0.0,0.0,0.0,0.0,0.0,0.0,0.0,0.0,0.0,0.0,0.0,0.0,0.0,0.0,0.0,0.0,0.0,0.0,0.0,0.0,0.0,0.0,0.0,0.0,0.0,0.0,0.0,0.0,0.0,0.0,0.0,0.0,0.0,0.0,0.0,0.0,0.0,0.0,0.0,0.0,0.0,0.0,0.0,0.0,0.0,0.0,0.0,0.0,0.0,0.0,0.0,0.0,0.0,0.0,0.0,0.0,0.0,0.0,0.0,0.0,0.0,0.0,0.0,0.0,0.0,0.0,0.0,0.0,0.0,0.0,0.0,0.0,0.0,0.0,0.0,0.0,0.0,0.0,0.0,0.0,0.0,0.0,0.0,0.0,0.0,0.0,0.0,0.0,0.0,0.0,0.0,0.0,0.0,0.0,0.0,0.0,0.0,0.0,0.0,0.0,0.0,0.0,0.0,-1.5919,-1.7021,-1.6765,-1.6552,-1.6454,-1.6175,-1.5824,0.0,0.0,0.0,0.0,0.0,0.0,0.0,0.0,0.0,0.0,0.0,0.0,0.0,0.0,0.0,0.0,0.0,0.0,0.0,0.0,0.0,0.0,0.0,0.0,0.0,0.0,0.0,0.0,0.0,0.0,0.0,0.0,0.0,0.0,0.0,0.0,0.0,0.0,0.0,0.0,0.0,0.0,0.0,0.0,0.0,0.0,0.0,0.0,-2.0231,0.0,0.0,0.0,0.0,0.0,0.0,0.0,0.0,0.0,0.0,0.0,0.0,0.0,0.0,0.0,0.0,0.0,0.0,0.0,0.0,0.0,0.0,0.0,0.0,0.0,0.0,0.0,0.0,0.0,0.0,0.0,0.0,0.0,0.0,0.0,0.0,0.0,0.0,0.0,0.0,0.0,0.0,0.0,0.0,0.0,0.0,0.0,0.0,0.0,0.0,0.0,0.0,0.0,0.0,0.0,0.0,0.0,0.0,0.0,-1.6036,-1.7146,-1.7018,-1.6892,-1.6723,-1.6509,-1.6293,0.0,0.0,0.0,0.0,0.0,0.0,0.0,0.0,0.0,0.0,0.0,0.0,0.0,0.0,0.0,0.0,0.0,0.0,0.0,0.0,0.0,0.0,0.0,0.0,0.0,0.0,0.0,0.0,0.0,0.0,0.0,0.0,0.0,0.0,0.0,0.0,0.0,0.0,0.0,0.0,0.0,0.0,0.0,0.0,0.0,0.0,0.0,0.0,0.0,0.0,0.0,0.0,0.0,0.0,0.0,0.0,0.0,0.0,0.0,0.0,0.0,0.0,0.0,0.0,0.0,0.0,0.0,0.0,0.0,0.0,0.0,0.0,0.0,0.0,0.0,0.0,0.0,0.0,0.0,0.0,0.0,0.0,0.0,0.0,0.0,0.0,0.0,0.0,0.0,0.0,0.0,0.0,0.0,0.0,0.0,0.0,0.0,0.0,0.0,0.0,0.0,0.0,0.0,0.0,0.0,0.0,0.0,-1.58,-1.6049,-1.7146,-1.7212,-1.7073,-1.6808,-1.6634,-1.6583,-1.6638,0.0,0.0,0.0,0.0,0.0,0.0,0.0,0.0,0.0,0.0,0.0,0.0,0.0,0.0,0.0,0.0,0.0,0.0,0.0,0.0,0.0,0.0,0.0,0.0,0.0,0.0,0.0,0.0,0.0,0.0,0.0,0.0,0.0,0.0,0.0,0.0,0.0,0.0,-1.5031,-1.636,0.0,0.0,0.0,0.0,0.0,0.0,0.0,0.0,-2.3417,0.0,0.0,0.0,0.0,0.0,0.0,0.0,0.0,0.0,0.0,0.0,0.0,0.0,0.0,0.0,0.0,0.0,0.0,0.0,0.0,0.0,0.0,0.0,0.0,0.0,0.0,0.0,0.0,0.0,0.0,0.0,0.0,0.0,0.0,0.0,0.0,0.0,0.0,0.0,0.0,0.0,0.0,0.0,0.0,0.0,0.0,0.0,0.0,0.0,0.0,0.0,0.0,0.0,0.0,0.0,0.0,-1.6572,-1.585,-1.6036,-1.716,-1.7212,-1.7157,-1.7089,-1.636,-1.6117,-1.6425,0.0,0.0,0.0,0.0,0.0,0.0,0.0,0.0,0.0,0.0,0.0,0.0,0.0,0.0,0.0,0.0,0.0,0.0,0.0,0.0,0.0,0.0,0.0,0.0,0.0,0.0,0.0,0.0,0.0,0.0,0.0,0.0,0.0,0.0,0.0,0.0,0.0,0.0,0.0,-1.8398,-1.9374,0.0,0.0,0.0,0.0,0.0,0.0,0.0,0.0,-2.4701,0.0,0.0,0.0,0.0,0.0,0.0,0.0,0.0,0.0,0.0,0.0,0.0,0.0,0.0,0.0,0.0,0.0,0.0,0.0,0.0,0.0,0.0,0.0,0.0,0.0,0.0,0.0,0.0,0.0,0.0,0.0,0.0,0.0,0.0,0.0,0.0,0.0,0.0,0.0,0.0,0.0,0.0,0.0,0.0,0.0,0.0,0.0,0.0,0.0,0.0,0.0,0.0,0.0,0.0,0.0,-1.6108,-1.6008,-1.6362,-1.7173,-1.7212,-1.7212,-1.7186,-1.6434,-1.6123,0.0,0.0,0.0,0.0,0.0,0.0,0.0,0.0,0.0,0.0,0.0,0.0,0.0,0.0,0.0,0.0,0.0,0.0,0.0,0.0,0.0,0.0,0.0,0.0,0.0,0.0,0.0,0.0,0.0,0.0,0.0,0.0,0.0,0.0,0.0,0.0,0.0,0.0,0.0,0.0,-2.0222,-2.1216,-2.2444,0.0,0.0,0.0,0.0,0.0,0.0,-2.4685,-2.4779,0.0,0.0,0.0,0.0,0.0,0.0,0.0,0.0,0.0,0.0,0.0,0.0,0.0,0.0,0.0,0.0,0.0,0.0,0.0,0.0,0.0,0.0,0.0,0.0,0.0,0.0,0.0,0.0,0.0,0.0,0.0,0.0,0.0,0.0,0.0,0.0,0.0,0.0,0.0,0.0,0.0,0.0,0.0,0.0,0.0,0.0,0.0,0.0,0.0,0.0,0.0,0.0,0.0,0.0,0.0,-1.6082,-1.6389,-1.6885,-1.7512,-1.7539,-1.7486,-1.7382,-1.6738,-1.6348,0.0,0.0,0.0,0.0,0.0,0.0,0.0,0.0,0.0,0.0,0.0,0.0,0.0,0.0,0.0,0.0,0.0,0.0,0.0,0.0,0.0,0.0,0.0,0.0,0.0,0.0,0.0,0.0,0.0,0.0,0.0,0.0,0.0,0.0,0.0,0.0,0.0,0.0,0.0,0.0,0.0,-2.2906,-2.4118,-2.4339,0.0,0.0,0.0,0.0,-2.4407,-2.4508,0.0,0.0,0.0,0.0,0.0,0.0,0.0,0.0,0.0,0.0,0.0,0.0,0.0,0.0,0.0,0.0,0.0,0.0,0.0,0.0,0.0,0.0,0.0,0.0,0.0,0.0,0.0,0.0,0.0,0.0,0.0,0.0,0.0,0.0,0.0,0.0,0.0,0.0,0.0,0.0,0.0,0.0,0.0,0.0,0.0,0.0,0.0,0.0,0.0,0.0,0.0,0.0,0.0,0.0,0.0,0.0,-1.7262,-1.7164,-1.763,-1.8636,-1.8702,-1.8479,-1.8009,-1.7408,-1.6624,0.0,0.0,0.0,0.0,0.0,0.0,0.0,0.0,0.0,0.0,0.0,0.0,0.0,0.0,0.0,0.0,0.0,0.0,0.0,0.0,0.0,0.0,0.0,0.0,0.0,0.0,0.0,0.0,0.0,0.0,0.0,0.0,0.0,0.0,0.0,0.0,0.0,0.0,0.0,0.0,0.0,-2.4096,-2.4264,-2.4405,-2.4472,0.0,0.0,-2.4472,-2.4317,-2.4336,0.0,0.0,0.0,0.0,0.0,0.0,0.0,0.0,0.0,0.0,0.0,0.0,0.0,0.0,0.0,0.0,0.0,0.0,0.0,0.0,0.0,0.0,0.0,0.0,0.0,0.0,0.0,0.0,0.0,0.0,0.0,0.0,0.0,0.0,0.0,0.0,0.0,0.0,0.0,0.0,0.0,0.0,0.0,0.0,0.0,0.0,0.0,0.0,0.0,0.0,0.0,0.0,0.0,0.0,0.0,-1.7203,-1.7938,-1.8096,-1.8414,-1.8872,-1.8898,-1.8702,-1.8241,-1.7454,-1.6891,0.0,0.0,0.0,0.0,0.0,0.0,0.0,0.0,0.0,0.0,0.0,0.0,0.0,0.0,0.0,0.0,0.0,0.0,0.0,0.0,0.0,0.0,0.0,0.0,0.0,0.0,0.0,0.0,0.0,0.0,0.0,0.0,0.0,0.0,0.0,0.0,0.0,0.0,0.0,0.0,0.0,0.0,-2.4135,-2.3787,0.0,0.0,0.0,-2.3547,-2.3456,0.0,0.0,0.0,0.0,0.0,0.0,0.0,0.0,0.0,0.0,0.0,0.0,0.0,0.0,0.0,0.0,0.0,0.0,0.0,0.0,0.0,0.0,0.0,0.0,0.0,0.0,0.0,0.0,0.0,0.0,0.0,0.0,0.0,0.0,0.0,0.0,0.0,0.0,0.0,0.0,0.0,0.0,0.0,0.0,0.0,0.0,0.0,0.0,0.0,0.0,0.0,0.0,0.0,0.0,0.0,0.0,0.0,-1.8658,-1.8957,-1.9198,-1.9342,-1.9295,-1.9042,-1.8545,-1.7919,0.0,0.0,0.0,0.0,0.0,0.0,0.0,0.0,0.0,0.0,0.0,0.0,0.0,0.0,0.0,0.0,0.0,0.0,0.0,0.0,0.0,0.0,0.0,0.0,0.0,0.0,0.0,-1.5778,0.0,0.0,0.0,0.0,0.0,0.0,0.0,0.0,0.0,0.0,0.0,0.0,0.0,0.0,-2.4115,-2.3976,-2.3466,-2.3083,0.0,0.0,-2.316,-2.3065,-2.3575,-2.3996,0.0,0.0,0.0,0.0,0.0,0.0,0.0,0.0,0.0,0.0,0.0,0.0,0.0,0.0,0.0,0.0,0.0,0.0,0.0,0.0,0.0,0.0,0.0,0.0,0.0,0.0,0.0,0.0,0.0,0.0,0.0,0.0,0.0,0.0,0.0,0.0,0.0,0.0,0.0,0.0,0.0,0.0,0.0,0.0,0.0,0.0,0.0,0.0,0.0,0.0,0.0,0.0,0.0,0.0,-1.9081,-1.9656,-1.9721,-1.9995,-2.0555,-2.0458,-1.9999,-1.9166,-1.9323,-1.875,0.0,0.0,0.0,0.0,0.0,0.0,0.0,0.0,0.0,0.0,0.0,0.0,0.0,0.0,0.0,0.0,0.0,0.0,0.0,0.0,0.0,0.0,0.0,0.0,0.0,0.0,0.0,0.0,0.0,0.0,0.0,0.0,0.0,0.0,0.0,0.0,0.0,0.0,0.0,0.0,0.0,-2.4037,-2.3847,-2.3862,-2.3848,0.0,-2.3864,-2.3947,-2.3746,-2.384,-2.3935,-2.4012,0.0,0.0,0.0,0.0,0.0,0.0,0.0,0.0,0.0,0.0,0.0,0.0,0.0,0.0,0.0,0.0,0.0,0.0,0.0,0.0,0.0,0.0,0.0,0.0,0.0,0.0,0.0,0.0,0.0,0.0,0.0,0.0,0.0,0.0,0.0,0.0,0.0,0.0,0.0,0.0,0.0,0.0,0.0,0.0,0.0,0.0,0.0,0.0,0.0,0.0,0.0,0.0,0.0,-1.9747,-2.0322,-2.0384,-2.0489,-2.0686,-2.0662,-2.013,-1.9101,-1.8985,-1.8573,0.0,0.0,0.0,0.0,0.0,0.0,0.0,0.0,0.0,0.0,0.0,0.0,0.0,0.0,0.0,0.0,0.0,0.0,0.0,0.0,0.0,0.0,0.0,0.0,0.0,0.0,0.0,0.0,-1.964,-2.0364,-2.1248,0.0,0.0,0.0,0.0,0.0,0.0,0.0,0.0,0.0,0.0,-2.3282,-2.323,-2.3432,0.0,0.0,-2.4082,-2.4494,-2.4141,-2.4728,-2.5144,-2.4992,-2.5162,0.0,0.0,0.0,0.0,0.0,0.0,0.0,0.0,0.0,0.0,0.0,0.0,0.0,0.0,0.0,0.0,0.0,0.0,0.0,0.0,0.0,0.0,0.0,0.0,0.0,0.0,0.0,0.0,0.0,0.0,0.0,0.0,0.0,0.0,0.0,0.0,0.0,0.0,0.0,0.0,0.0,0.0,0.0,0.0,0.0,0.0,0.0,0.0,0.0,0.0,0.0,0.0,-2.0257,-2.0699,-2.0699,-2.0712,-2.0649,-2.0599,-2.0131,-1.921,-1.9016,-1.8697,0.0,0.0,0.0,0.0,0.0,0.0,0.0,0.0,0.0,0.0,0.0,0.0,0.0,0.0,0.0,0.0,0.0,0.0,0.0,0.0,0.0,0.0,0.0,0.0,0.0,0.0,0.0,0.0,-2.0845,-2.144,-2.2485,0.0,0.0,0.0,0.0,0.0,0.0,0.0,0.0,0.0,0.0,-2.3154,-2.3336,-2.3665,-2.3859,-2.3791,-2.4581,-2.5117,-2.4814,-2.5369,-2.5847,-2.5906,0.0,0.0,0.0,0.0,0.0,0.0,0.0,0.0,0.0,0.0,0.0,0.0,0.0,0.0,0.0,0.0,0.0,0.0,0.0,0.0,0.0,0.0,0.0,0.0,0.0,0.0,0.0,0.0,0.0,0.0,-1.4092,0.0,0.0,0.0,0.0,0.0,0.0,0.0,0.0,0.0,0.0,0.0,0.0,0.0,0.0,0.0,0.0,0.0,0.0,0.0,0.0,0.0,0.0,-2.0673,-2.0699,-2.0699,-2.0649,-2.0511,-2.0296,-2.0029,-1.9604,-1.9823,-1.9552,-1.8661,0.0,0.0,0.0,0.0,0.0,0.0,0.0,0.0,0.0,0.0,0.0,0.0,0.0,0.0,0.0,0.0,0.0,0.0,0.0,0.0,0.0,0.0,0.0,0.0,0.0,0.0,-2.126,-2.1293,-2.1339,0.0,0.0,0.0,0.0,0.0,0.0,0.0,0.0,0.0,0.0,-2.3684,-2.3858,-2.4373,-2.4862,-2.5115,-2.5132,-2.5561,-2.5893,-2.5843,-2.5622,-2.5666,0.0,0.0,0.0,0.0,0.0,0.0,0.0,0.0,0.0,0.0,0.0,0.0,0.0,0.0,0.0,0.0,0.0,0.0,0.0,0.0,0.0,0.0,0.0,0.0,0.0,0.0,0.0,-1.4087,-1.4087,0.0,0.0,0.0,0.0,0.0,0.0,0.0,0.0,0.0,0.0,0.0,-1.7066,-1.6775,0.0,0.0,0.0,0.0,0.0,0.0,0.0,0.0,0.0,0.0,0.0,0.0,-2.0699,-2.0699,-2.0699,-2.0712,-2.0599,-2.0461,-2.0144,-1.9488,-1.9448,-1.9016,-1.8093,0.0,0.0,0.0,0.0,0.0,0.0,0.0,0.0,0.0,0.0,0.0,0.0,0.0,0.0,0.0,0.0,0.0,0.0,0.0,0.0,0.0,0.0,0.0,0.0,0.0,-2.1309,0.0,0.0,0.0,0.0,0.0,0.0,0.0,0.0,0.0,0.0,0.0,-2.334,-2.389,-2.3806,-2.3781,-2.3934,-2.4738,-2.5263,0.0,0.0,0.0,0.0,0.0,0.0,0.0,0.0,0.0,0.0,0.0,0.0,0.0,0.0,-2.644,-2.5632,-2.5633,-2.5847,-2.6068,0.0,0.0,0.0,0.0,0.0,0.0,0.0,0.0,0.0,0.0,0.0,0.0,0.0,0.0,-1.458,0.0,-1.4645,0.0,0.0,0.0,0.0,0.0,0.0,0.0,0.0,-1.6181,-1.6513,-1.7512,-1.6989,-1.7101,0.0,-1.7776,-1.8147,0.0,0.0,0.0,0.0,0.0,0.0,0.0,0.0,-2.0283,-2.0283,-2.0233,-2.0233,-2.0182,-2.0296,-2.0093,-1.9527,-1.9069,-1.8525,-1.7875,-1.8135,-1.819,0.0,0.0,0.0,0.0,0.0,0.0,0.0,0.0,0.0,0.0,0.0,0.0,0.0,0.0,0.0,0.0,0.0,0.0,0.0,0.0,0.0,0.0,0.0,-2.1167,0.0,0.0,0.0,0.0,0.0,0.0,0.0,0.0,0.0,-2.3812,-2.358,-2.3662,-2.4199,-2.4147,-2.4074,-2.4335,0.0,0.0,0.0,0.0,0.0,0.0,0.0,-2.6757,-2.6385,-2.6556,-2.6723,-2.6707,-2.6657,-2.6624,-2.6774,0.0,0.0,-2.588,-2.5928,-2.6126,-2.6348,-2.6519,-2.6718,-2.705,-2.7123,-2.7149,0.0,0.0,0.0,0.0,0.0,0.0,0.0,0.0,-1.54,-1.5391,0.0,-1.5575,0.0,0.0,0.0,0.0,0.0,-1.6093,0.0,0.0,-1.6114,-1.6181,-1.6374,-1.6374,-1.6384,-1.6374,-1.6431,-1.6751,-1.7435,-1.8673,0.0,0.0,0.0,0.0,0.0,0.0,-1.9515,-1.9423,-1.9423,-1.9331,-1.9226,-1.9668,-1.9875,-1.9747,-1.8685,-1.8093,-1.8093,-1.819,-1.8286,-1.834,-1.9631,0.0,0.0,0.0,0.0,0.0,0.0,0.0,0.0,0.0,0.0,0.0,0.0,0.0,0.0,0.0,0.0,0.0,0.0,0.0,0.0,-2.0472,0.0,0.0,0.0,0.0,0.0,0.0,0.0,0.0,0.0,0.0,-2.4066,-2.413,-2.4232,-2.4593,0.0,0.0,0.0,0.0,-2.6142,-2.6142,-2.6522,-2.6822,-2.679,-2.6454,-2.6177,-2.6142,0.0,0.0,-2.6262,-2.6082,-2.599,-2.6279,-2.6082,-2.6101,-2.6756,-2.6994,-2.7137,-2.7186,-2.7226,-2.7452,-2.7765,-2.7703,-2.7857,-1.582,0.0,0.0,0.0,0.0,-1.542,-1.542,-1.542,-1.542,-1.542,-1.542,-1.5468,0.0,0.0,0.0,0.0,0.0,0.0,-1.5999,-1.5846,-1.6009,-1.6066,-1.6029,-1.6134,-1.6249,-1.6384,-1.6374,-1.6488,-1.6694,-1.7435,-1.8286,-1.9174,0.0,0.0,0.0,0.0,-1.9423,-1.9423,-1.9423,-1.9162,-1.8685,-1.878,-1.8951,-1.9251,-1.8471,-1.8093,-1.8093,-1.7699,-1.7743,-1.8286,-1.8715,0.0,0.0,0.0,0.0,0.0,0.0,0.0,0.0,0.0,0.0,0.0,0.0,0.0,0.0,0.0,0.0,0.0,0.0,0.0,-2.1967,-2.1781,-2.1821,0.0,0.0,0.0,0.0,0.0,0.0,0.0,0.0,0.0,-2.4714,-2.4518,-2.4593,0.0,0.0,-2.5336,-2.5394,-2.5508,-2.553,-2.5362,-2.546,0.0,-2.5572,-2.5594,-2.5556,-2.54,-2.5378,-2.547,-2.5605,-2.5508,-2.547,-2.5416,-2.5476,-2.5642,-2.5832,-2.6068,-2.6367,-2.6607,-2.6657,-2.6774,-2.7098,-2.7175,-2.7269,-1.585,-1.5351,-1.5303,-1.5332,-1.542,-1.542,-1.542,-1.542,-1.542,-1.542,-1.54,-1.5234,-1.5166,-1.5156,-1.5216,0.0,0.0,0.0,-1.5802,-1.5575,-1.6053,-1.6202,-1.6077,-1.5997,-1.5971,-1.6094,-1.5918,-1.5835,-1.5835,-1.6178,-1.6752,-1.7583,0.0,0.0,-1.9862,-1.9267,-1.9044,-1.9239,-1.9226,-1.8951,-1.8363,-1.8232,-1.8244,-1.8255,-1.7929,-1.7765,-1.7754,-1.7424,-1.7413,-1.7852,-1.8447,-1.898,0.0,0.0,0.0,0.0,0.0,0.0,0.0,0.0,0.0,0.0,0.0,-2.0021,-2.0118,0.0,0.0,0.0,-2.0813,-2.1186,-2.1786,-2.162,0.0,0.0,0.0,0.0,0.0,0.0,0.0,-2.4217,-2.4579,-2.4831,-2.4831,-2.4726,-2.4874,-2.5307,-2.5371,-2.5333,-2.5201,0.0,-2.5028,-2.461,-2.4578,-2.4483,-2.4198,-2.4286,-2.4345,-2.4189,-2.4481,-2.4732,-2.4732,-2.4955,-2.5123,-2.5045,-2.5201,-2.5355,-2.5278,-2.5546,-2.586,-2.6154,-2.6208,-2.6314,-2.6624,-2.6724,-2.6774,-1.5879,-1.6211,-1.6243,-1.5918,-1.5518,-1.5518,-1.5518,-1.5518,-1.5518,-1.5508,-1.5488,-1.5068,-1.4863,-1.4805,-1.475,0.0,-1.4677,-1.5382,-1.5642,-1.5446,-1.611,-1.6384,-1.6363,-1.5939,-1.5742,-1.5732,-1.5308,-1.5111,-1.5132,-1.5121,-1.5258,-1.5572,-1.7269,-1.8643,-1.9595,-1.866,-1.8354,-1.8802,-1.879,-1.8537,-1.8035,-1.8015,-1.7754,-1.7313,-1.7202,-1.7146,-1.7202,-1.7146,-1.7146,-1.7313,-1.8566,-1.9044,-1.8555,0.0,0.0,0.0,0.0,0.0,0.0,0.0,0.0,0.0,0.0,0.0,0.0,0.0,0.0,0.0,-2.0328,0.0,-2.0613,-2.0784,0.0,0.0,0.0,-2.3778,-2.4768,-2.467,-2.4549,-2.4549,0.0,0.0,-2.4511,-2.4712,-2.4816,-2.4768,-2.4839,-2.4894,-2.4808,-2.476,-2.4555,-2.3853,-2.3759,-2.3538,-2.3049,-2.2959,-2.2975,-2.2991,-2.3407,-2.3781,-2.3828,-2.427,-2.4729,-2.4674,-2.4964,-2.501,-2.4831,-2.5022,-2.5438,-2.5562,-2.5746,-2.599,-2.6243,-2.6314,-2.6385,-1.7744,-1.751,-1.7207,-1.6816,-1.6416,-1.6416,-1.6364,-1.6354,-1.6426,-1.6354,-1.6387,-1.5947,-1.5576,-1.5254,-1.5213,-1.5221,-1.5231,-1.5646,-1.5753,-1.5696,-1.6151,-1.6306,-1.6171,-1.6193,-1.6208,-1.6208,-1.6094,-1.6063,-1.6053,-1.6042,-1.6311,-1.6754,-1.6482,-1.662,-1.7132,-1.6712,-1.6712,-1.7148,-1.7198,-1.7282,-1.7519,-1.7454,-1.7589,-1.7875,-1.7011,-1.6797,-1.7202,-1.6797,-1.7022,-1.782,-1.8201,-1.878,-1.9695,-2.008,0.0,0.0,0.0,0.0,0.0,0.0,0.0,0.0,0.0,-2.0852,-2.0484,0.0,-2.1254,0.0,-2.1454,-2.1917,-2.2557,-2.2351,0.0,0.0,-2.337,-2.3586,-2.3696,-2.3782,-2.3867,-2.3952,-2.3994,-2.3895,-2.365,-2.3668,-2.3427,-2.2793,-2.3491,-2.3916,-2.3293,-2.3146,-2.3061,-2.2738,-2.2707,-2.2607,-2.2459,-2.2421,-2.2465,-2.2645,-2.2823,-2.2879,-2.2895,-2.302,-2.3123,-2.3009,-2.3123,-2.3183,-2.323,-2.3391,-2.3554,-2.3711,-2.4696,-2.5675,-2.5787,-2.577,-2.5828,-1.8799,-1.8555,-1.833,-1.8086,-1.7812,-1.7061,-1.6665,-1.6665,-1.6665,-1.6665,-1.6709,-1.625,-1.582,-1.542,-1.5478,-1.5536,-1.5682,-1.6105,-1.6313,-1.6323,-1.6773,-1.6811,-1.6468,-1.6409,-1.627,-1.6063,-1.5866,-1.5763,-1.5763,-1.5763,-1.6022,-1.6522,-1.5959,-1.5932,-1.6288,-1.6033,-1.6261,-1.6985,-1.6726,-1.6715,-1.7002,-1.7179,-1.7276,-1.7342,-1.697,-1.6797,-1.6853,-1.6534,-1.6807,-1.7655,-1.8081,-1.8685,-1.9604,-2.0029,-2.0283,0.0,0.0,0.0,0.0,0.0,0.0,0.0,0.0,0.0,0.0,0.0,-2.1513,-2.1591,-2.1553,-2.1793,-2.2402,-2.2156,-2.2156,-2.2678,-2.2844,-2.2889,-2.2949,-2.3024,-2.3084,-2.2992,-2.299,-2.2879,-2.2521,-2.2455,-2.2109,-2.1242,-2.207,-2.2655,-2.2363,-2.2286,-2.2178,-2.1886,-2.184,-2.1716,-2.1455,-2.1393,-2.1466,-2.1554,-2.1807,-2.2024,-2.204,-2.2273,-2.2452,-2.2324,-2.2474,-2.2586,-2.2512,-2.2703,-2.2869,-2.2907,-2.3612,-2.4308,-2.4393,-2.4409,-2.4393,-1.9365,-1.9365,-1.9307,-1.9277,-1.916,-1.7686,-1.7061,-1.7051,-1.6938,-1.685,-1.6797,-1.6396,-1.5996,-1.5586,-1.5694,-1.5831,-1.6046,-1.6576,-1.6949,-1.709,-1.7482,-1.7461,-1.7059,-1.6736,-1.6343,-1.5939,-1.5546,-1.5349,-1.5339,-1.5339,-1.5556,-1.5929,-1.5877,-1.6119,-1.6519,-1.6192,-1.6429,-1.7349,-1.7008,-1.6841,-1.6784,-1.7278,-1.7224,-1.6775,-1.7082,-1.7045,-1.6545,-1.6477,-1.6751,-1.7202,-1.7929,-1.8525,-1.904,-1.972,-2.0131,0.0,-2.0283,0.0,0.0,0.0,0.0,0.0,0.0,0.0,0.0,-2.1315,-2.165,-2.1902,-2.1229,-2.0947,-2.1361,-2.1193,-2.1277,-2.1855,-2.1902,-2.2002,-2.2229,-2.226,-2.2155,-2.1802,-2.1787,-2.1625,-2.1377,-2.1285,-2.0984,-2.0418,-2.0805,-2.141,-2.1704,-2.1768,-2.1689,-2.1323,-2.1283,-2.1194,-2.0706,-2.0513,-2.0513,-2.0528,-2.0885,-2.1161,-2.1191,-2.1565,-2.1903,-2.1865,-2.1954,-2.2059,-2.1949,-2.217,-2.2352,-2.2175,-2.2352,-2.2659,-2.2952,-2.3068,-2.2869,-1.9795,-1.9766,-1.9424,-1.9277,-1.9258,-1.8945,-1.8809,-1.8779,-1.8437,-1.79,-1.7275,-1.7178,-1.6885,-1.6494,-1.6484,-1.6599,-1.6795,-1.7009,-1.7235,-1.741,-1.7626,-1.7688,-1.7595,-1.7512,-1.7429,-1.7347,-1.7253,-1.7152,-1.7222,-1.7222,-1.7264,-1.7326,-1.6964,-1.6994,-1.7445,0.0,0.0,0.0,-1.7675,-1.8054,-1.7744,-1.8256,-1.8463,-1.834,-1.8089,0.0,-1.7101,-1.7056,-1.709,-1.7202,-1.7368,0.0,0.0,0.0,0.0,0.0,0.0,0.0,0.0,0.0,0.0,0.0,-2.0712,-2.0775,-2.0987,-2.1059,-2.1229,-2.1458,-2.1375,-2.1313,-2.1375,-2.1375,-2.1375,-2.1506,-2.1506,-2.1377,-2.1052,-2.0969,-2.0872,-2.0598,-2.0527,-2.0599,-2.0724,-2.0765,-2.0653,-2.033,-2.0471,-2.0683,-2.0961,-2.1208,-2.1281,-2.1203,-2.1169,-2.1169,-2.1065,-2.0991,-2.0917,-2.102,-2.065,-2.0525,-2.0548,-2.0392,-2.024,-2.0102,-2.0143,-2.0298,-2.0057,-2.0137,-2.0415,-2.0324,-2.0518,-2.1073,-2.256,-2.2853,-2.2833,-2.0889,0.0,-2.043,-2.0244,0.0,-2.001,-1.9922,-1.9873,-1.9228,-1.8721,-1.833,-1.832,-1.8203,-1.7998,-1.8056,-1.8073,-1.7922,-1.8141,-1.8087,-1.8015,-1.8134,-1.815,-1.7871,-1.7871,-1.7821,-1.7678,-1.7606,-1.7616,-1.7678,-1.7678,-1.7843,-1.804,-1.7812,-1.7936,-1.8385,-1.8009,-1.7269,-1.6411,-1.7344,-1.7745,-1.7612,-1.8318,-1.8566,-1.8337,-1.8385,0.0,0.0,0.0,0.0,0.0,0.0,0.0,0.0,-1.9488,0.0,-1.9875,-2.0246,-2.0498,-2.0612,-2.0662,-2.0699,-2.0699,-2.0699,-2.0712,-2.0864,-2.0875,-2.0898,-2.1046,-2.1033,-2.1033,-2.1033,-2.078,-2.0606,-2.0606,-2.034,-2.0067,-1.984,-2.004,-2.0067,-1.984,-1.9966,-2.0137,-2.0114,-2.013,-2.0029,-1.9897,-2.0202,-2.0484,-2.0517,-2.0699,-2.0793,-2.0849,-2.0835,-2.0835,-2.0835,-2.0835,-2.0864,-2.0777,-2.0616,-2.0443,-2.0414,-2.0323,-2.0185,-1.9792,-1.9878,-1.9916,-1.9509,-1.9487,-1.956,-1.9617,-1.969,-1.9948,-2.0898,-2.1327,-2.1592,-2.1894,-2.1855,-2.1494,-2.1348,-2.1318,-2.0957,-2.0762,-2.0625,0.0,0.0,0.0,-1.9277,-1.9277,-1.9287,-1.9495,-1.937,-1.9043,-1.9193,-1.9063,-1.8713,-1.8826,-1.8726,-1.8369,-1.8277,-1.8127,-1.7978,-1.7779,-1.7842,-1.7968,-1.7968,-1.8143,-1.8475,-1.8495,-1.8692,-1.911,-1.9131,-1.834,-1.6992,-1.7286,-1.7406,-1.7374,-1.822,-1.8536,-1.8089,-1.8632,-1.8702,-1.8228,-1.8295,-1.8553,-1.8959,-1.9119,-1.9124,-1.8999,-1.9565,-1.972,-1.9448,-1.9914,-2.0334,-2.0511,-2.0662,-2.066,-2.0568,-2.045,-2.0489,-2.0673,-2.0699,-2.066,-2.0568,-2.0555,-2.0515,-2.0398,-1.9943,-1.9695,-1.9773,-1.9355,-1.9081,-1.9107,-1.9486,-1.9672,-1.9396,-1.9582,-1.9827,-1.9709,-1.9822,-1.9844,-1.988,-2.057,-2.0887,-2.0697,-2.0813,-2.0988,-2.1114,-2.124,-2.1088,-2.1004,-2.1102,-2.0948,-2.1173,-2.0976,-2.0793,-2.0823,-2.0898,-2.0726,-2.0286,-2.0347,-2.0266,-1.9759,-1.9662,-1.9604,-1.954,-1.9511,-1.9511,-1.9435,-1.9886,-2.0354,-2.1894,-2.1885,-2.1826,-2.1787,-2.1797,-2.1728,-2.1484,-2.1074,-2.0205,-1.9629,-1.9277,-1.9277,-1.9277,-1.9277,-1.937,-1.9413,-1.9508,-1.9518,-1.9541,-1.9595,-1.9434,-1.9359,-1.9277,-1.89,-1.8752,-1.8889,-1.8746,-1.868,-1.8878,-1.8868,-1.8909,-1.9027,-1.8971,-1.9003,-1.9131,-1.9131,-1.894,-1.8702,-1.8812,-1.8624,-1.8239,-1.8835,-1.9189,-1.9106,-1.9257,-1.9387,-1.9387,-1.9366,-1.9252,-1.895,-1.8916,-1.894,-1.9023,-1.9198,-1.954,-2.0029,-2.0296,-2.0511,-2.0662,-2.0712,-2.0489,-1.9956,-1.9447,-1.9577,-2.0594,-2.0699,-2.0502,-1.9995,-1.993,-1.9708,-1.9237,-1.912,-1.9277,-1.9734,-1.9734,-1.9682,-1.9682,-1.9786,-1.9669,-1.9179,-1.9009,-1.9389,-1.9917,-2.0285,-2.0832,-2.1422,-2.1805,-2.2378,-2.2245,-2.218,-2.2247,-2.26,-2.2736,-2.2736,-2.2464,-2.2695,-2.2519,-2.275,-2.2192,-2.1825,-2.1811,-2.1698,-2.1448,-2.1144,-2.1255,-2.1139,-2.0415,-2.0392,-2.0295,-2.0034,-2.0006,-2.0118,-2.0104,-2.0282,-2.0266,-2.2559,-2.2539,-2.2324,-2.2227,-2.2207,-2.1982,-2.1777,-2.1562,-2.1162,-2.0605,-2.001,-1.998,-1.998,-1.999,-2.0141,-2.0013,-1.9787,-1.9861,-1.9796,-1.9703,-1.9737,-1.9798,-1.9839,-1.9645,-1.9558,-1.9468,-1.9243,-1.9178,-1.9085,-1.9131,-1.9131,-1.9131,-1.9131,-1.9131,-1.9131,-1.9131,-1.9131,-1.9131,-1.9131,-1.8961,-1.8754,-1.907,-1.92,-1.92,-1.931,-1.9427,-1.9415,-1.9519,-1.9458,-1.9229,-1.9563,-1.9618,-1.9338,-1.9782,-1.9998,-1.9986,-2.0206,-2.0347,-2.0448,-2.0599,-2.0594,-2.0332,-2.007,-2.0061,-2.0646,-2.0122,-1.9603,-1.9342,-1.9316,-1.9355,-1.9355,-1.9107,-1.9264,-2.0178,-1.9995,-1.9943,-2.0244,-2.057,-2.061,-2.0401,-2.0623,-2.091,-2.1185,-2.1433,-2.1708,-2.2168,-2.2458,-2.2696,-2.2944,-2.2882,-2.2764,-2.2764,-2.2697,-2.2738,-2.2738,-2.2724,-2.2724,-2.2711,-2.2512,-2.2352,-2.2352,-2.228,-2.2089,-2.173,-2.1799,-2.1654,-2.0994,-2.0955,-2.0778,-2.0361,-2.0288,-2.0295,-2.002,-1.994,-1.9963,-2.3144,-2.3105,-2.2783,-2.2646,-2.2617,-2.2314,-2.2109,-2.2031,-2.2021,-2.1592,-2.0908,-2.0762,-2.0713,-2.0713,-2.079,-2.0544,-2.0088,-2.021,-2.0108,-1.9875,-1.9932,-2.0028,-2.0163,-2.0154,-1.9981,-1.9805,-1.9645,-1.941,-1.9137,-1.9163,-1.9168,-1.9075,-1.9131,-1.9131,-1.9131,-1.9131,-1.9131,-1.9131,-1.9131,-1.9131,-1.9131,-1.9131,-1.9131,-1.911,-1.9233,-1.936,-1.9465,-1.956,-1.9667,-1.9673,-2.0158,-2.0217,-1.9843,-2.0346,-2.0513,-2.0245,-2.0426,-2.0565,-2.0604,-2.0564,-2.0701,-2.0832,-2.0597,-2.0568,-2.0607,-1.9839,-1.9303,-1.9316,-1.9512,-1.9695,-1.9891,-1.9616,-1.9721,-2.0725,-2.0466,-2.0505,-2.0989,-2.1459,-2.1707,-2.176,-2.2126,-2.2361,-2.2413,-2.2492,-2.2664,-2.2795,-2.2753,-2.2949,-2.3328,-2.342,-2.3223,-2.2949,-2.2792,-2.2844,-2.2766,-2.286,-2.2874,-2.2753,-2.2834,-2.2874,-2.2887,-2.3025,-2.2921,-2.2538,-2.2512,-2.2417,-2.192,-2.1773,-2.1573,-2.1131,-2.0863,-2.0468,-1.9914,-1.9886,-1.9904,-2.3144,-2.3135,-2.3086,-2.3086,-2.3057,-2.3018,-2.2783,-2.248,-2.2461,-2.2207,-2.1748,-2.1348,-2.1182,-2.1113,-2.084,-2.0634,-2.0508,-2.0575,-2.0536,-2.0458,-2.0286,-2.0183,-2.0227,-2.0025,-1.9857,-1.9807,-1.9827,-1.9667,-1.9243,-1.9341,-1.9353,-1.9116,-1.9131,-1.9131,-1.9131,-1.9131,-1.9131,-1.9131,-1.9131,-1.9131,-1.9131,-1.9131,-1.9131,-1.9131,-1.909,-1.9388,-1.9933,-2.0051,-2.0076,-2.0232,-2.0308,-2.0342,-2.0427,-2.0469,-2.0844,-2.1461,-2.1496,-2.1606,-2.1652,-2.0926,-2.0745,-2.1082,-2.0495,-2.0218,-2.0712,-2.0646,-2.0542,-2.062,-2.0976,-2.0923,-2.0699,-2.0542,-2.0727,-2.1394,-2.1407,-2.159,-2.2126,-2.2296,-2.2322,-2.2336,-2.2465,-2.2413,-2.2557,-2.2871,-2.3328,-2.372,-2.3733,-2.3772,-2.3903,-2.3929,-2.3942,-2.3903,-2.3929,-2.389,-2.3851,-2.3942,-2.3799,-2.3838,-2.3903,-2.3825,-2.3759,-2.3812,-2.3877,-2.3559,-2.3712,-2.3493,-2.3178,-2.3005,-2.2756,-2.2154,-2.1642,-2.1222,-2.0699,-2.0486,-2.0385,-2.3144,-2.3144,-2.3144,-2.3144,-2.3144,-2.3144,-2.3037,-2.2891,-2.2881,-2.2783,-2.2588,-2.2178,-2.1855,-2.1592,-2.1162,-2.0967,-2.0947,-2.0674,-2.0654,-2.0731,-2.0641,-2.0629,-2.0761,-2.0687,-2.0531,-2.0206,-2.028,-2.0038,-1.9626,-1.9484,-1.9469,-1.9322,-1.922,-1.9131,-1.9131,-1.9131,-1.9131,-1.9131,-1.9131,-1.9131,-1.9131,-1.9131,-1.9131,-1.9131,-1.9131,-1.9198,-1.9452,-1.9518,-1.9684,-2.0142,-2.0563,-2.0795,-2.0833,-2.0962,-2.1124,-2.1448,-2.1687,-2.1869,-2.1992,-2.1703,-2.1707,-2.1955,-2.1564,-2.1446,-2.1695,-2.1969,-2.2165,-2.2086,-2.1485,-2.1002,-2.1159,-2.1159,-2.1511,-2.2296,-2.2518,-2.274,-2.3354,-2.3406,-2.342,-2.3406,-2.3406,-2.3406,-2.3433,-2.3602,-2.3838,-2.4086,-2.4125,-2.4125,-2.4125,-2.4125,-2.4125,-2.4125,-2.4125,-2.4125,-2.4125,-2.4125,-2.4125,-2.4125,-2.4125,-2.4125,-2.4125,-2.4125,-2.4112,-2.4125,-2.4125,-2.406,-2.3759,-2.372,-2.3576,-2.2949,-2.21,-2.142,-2.1198,-2.0935,-2.0575,-2.3144,-2.3144,-2.3144,-2.3144,-2.3144,-2.3144,-2.3144,-2.3144,-2.3144,-2.3144,-2.3105,-2.2812,-2.2519,-2.2187,-2.167,-2.1416,-2.1357,-2.0947,-2.084,-2.0987,-2.0878,-2.0896,-2.1051,-2.1051,-2.0881,-2.0611,-2.0572,-2.0342,-1.9902,-1.9616,-1.9535,-1.9534,-1.9353,-1.9194,-1.9194,-1.9261,-1.9328,-1.9349,-1.9365,-1.9437,-1.9437,-1.9323,-1.9199,-1.9085,-1.9131,-1.9131,-1.9131,-1.9131,-1.933,-1.9846,-2.0484,-2.0933,-2.1112,-2.1386,-2.1608,-2.1811,-2.2076,-2.2329,-2.2454,-2.2467,-2.262,-2.2763,-2.2685,-2.2688,-2.2871,-2.3223,-2.3446,-2.3354,-2.2335,-2.189,-2.2139,-2.223,-2.2609,-2.3367,-2.3459,-2.3668,-2.4021,-2.4125,-2.4073,-2.4125,-2.4008,-2.4125,-2.4112,-2.4086,-2.4099,-2.4112,-2.4125,-2.4125,-2.4125,-2.4125,-2.4125,-2.4125,-2.4125,-2.4125,-2.4125,-2.4125,-2.4125,-2.4125,-2.4125,-2.4125,-2.4125,-2.4125,-2.4125,-2.4125,-2.4125,-2.4099,-2.4008,-2.4021,-2.3929,-2.325,-2.2452,-2.1721,-2.1459,-2.1041,-2.0777,-2.3144,-2.3144,-2.3144,-2.3144,-2.3144,-2.3144,-2.3144,-2.3144,-2.3144,-2.3144,-2.3144,-2.3105,-2.3086,-2.2988,-2.2227,-2.1855,-2.1807,-2.1396,-2.1211,-2.1172,-2.0781,-2.0654,-2.0644,-2.0819,-2.0809,-2.0643,-2.072,-2.0619,-2.0212,-1.9786,-1.964,-1.9745,-1.9605,-1.9461,-1.953,-1.9668,-1.9737,-1.9768,-2.0079,-2.0317,-2.0276,-1.9924,-1.953,-1.9256,-1.9131,-1.9131,-1.9131,-1.9131,-1.9131,-1.9198,-1.9846,-2.042,-2.106,-2.1631,-2.2164,-2.2737,-2.2977,-2.3085,-2.3187,-2.2968,-2.3064,-2.3593,-2.3345,-2.3406,-2.3754,-2.3871,-2.3936,-2.4034,-2.3825,-2.3759,-2.3799,-2.3681,-2.3799,-2.3955,-2.4047,-2.406,-2.4099,-2.4125,-2.4125,-2.4125,-2.4125,-2.4125,-2.4125,-2.4125,-2.4125,-2.4125,-2.4125,-2.4125,-2.4125,-2.4125,-2.4125,-2.4125,-2.4125,-2.4125,-2.4125,-2.4125,-2.4125,-2.4125,-2.4125,-2.4125,-2.4125,-2.4125,-2.4125,-2.4125,-2.4125,-2.4125,-2.4125,-2.4021,-2.3838,-2.338,-2.2844,-2.2269,-2.1825,-2.1119,-2.0817,-2.3144,-2.3144,-2.3144,-2.3144,-2.3144,-2.3144,-2.3144,-2.3144,-2.3144,-2.3144,-2.3144,-2.3144,-2.3144,-2.3115,-2.2832,-2.2539,-2.2256,-2.1846,-2.165,-2.1602,-2.1191,-2.0996,-2.0967,-2.0791,-2.0644,-2.0644,-2.0654,-2.0653,-2.0466,-2.0147,-2.0014,-1.9999,-1.9847,-1.9707,-1.9707,-1.991,-1.9971,-1.9991,-2.0287,-2.041,-2.0431,-2.0265,-2.0089,-1.9924,-1.9365,-1.9131,-1.9131,-1.9131,-1.9264,-1.9715,-1.9977,-2.0237,-2.042,-2.0666,-2.0921,-2.1239,-2.2113,-2.2689,-2.2798,-2.3141,-2.341,-2.3636,-2.3566,-2.3548,-2.3741,-2.3806,-2.3819,-2.3949,-2.3949,-2.4008,-2.4067,-2.4125,-2.4125,-2.4125,-2.4125,-2.4125,-2.4125,-2.4125,-2.4125,-2.4125,-2.4125,-2.4125,-2.4125,-2.4125,-2.4125,-2.4125,-2.4125,-2.4125,-2.4125,-2.4125,-2.4125,-2.4125,-2.4125,-2.4125,-2.4125,-2.4125,-2.4125,-2.4125,-2.4125,-2.4125,-2.4125,-2.4125,-2.4125,-2.4125,-2.4125,-2.4125,-2.4125,-2.4099,-2.3903,-2.3785,-2.3237,-2.2635,-2.2191,-2.1538,-2.1118,-2.3144,-2.3144,-2.3144,-2.3144,-2.3144,-2.3144,-2.3144,-2.3144,-2.3144,-2.3144,-2.3144,-2.3144,-2.3144,-2.3144,-2.3144,-2.2998,-2.2685,-2.2285,-2.209,-2.2041,-2.1641,-2.1435,-2.1367,-2.0986,-2.0781,-2.0762,-2.0625,-2.0576,-2.0547,-2.0436,-2.0308,-2.0345,-2.0088,-1.9932,-2.0005,-2.0224,-2.0369,-2.0442,-2.072,-2.0876,-2.0855,-2.0721,-2.0648,-2.0534,-1.9903,-1.9427,-1.9292,-1.9147,-1.9264,-1.9715,-1.9977,-2.0161,-2.0355,-2.0431,-2.042,-2.0537,-2.1365,-2.2002,-2.2187,-2.275,-2.3245,-2.3292,-2.3497,-2.3616,-2.3616,-2.3616,-2.3688,-2.376,-2.3832,-2.3832,-2.3936,-2.3923,-2.3995,-2.4054,-2.4125,-2.4125,-2.4125,-2.4125,-2.4125,-2.4125,-2.4125,-2.4125,-2.4125,-2.4125,-2.4125,-2.4125,-2.4125,-2.4125,-2.4125,-2.4125,-2.4125,-2.4125,-2.4125,-2.4125,-2.4125,-2.4125,-2.4125,-2.4125,-2.4125,-2.4125,-2.4125,-2.4125,-2.4125,-2.4125,-2.4125,-2.4125,-2.4125,-2.4125,-2.4099,-2.4073,-2.3589,-2.2936,-2.2465,-2.1995,-2.1511,-2.3144,-2.3144,-2.3144,-2.3144,-2.3144,-2.3144,-2.3144,-2.3144,-2.3144,-2.3144,-2.3144,-2.3144,-2.3144,-2.3144,-2.3144,-2.3125,-2.3018,-2.2685,-2.2519,-2.2471,-2.208,-2.1894,-2.1865,-2.1435,-2.1201,-2.1143,-2.0762,-2.0576,-2.0557,-2.0605,-2.0585,-2.0536,-2.0365,-2.0327,-2.0466,-2.069,-2.0892,-2.1112,-2.1476,-2.1704,-2.1745,-2.1321,-2.1114,-2.1073,-2.0627,-2.0203,-1.981,-1.9385,-1.9235,-1.925,-1.9758,-2.0366,-2.0752,-2.0805,-2.0933,-2.0869,-2.106,-2.1198,-2.1388,-2.2002,-2.2421,-2.2543,-2.3125,-2.3305,-2.3245,-2.3305,-2.3365,-2.3378,-2.3378,-2.3509,-2.3497,-2.3497,-2.3628,-2.3995,-2.4067,-2.4054,-2.4054,-2.4125,-2.4125,-2.4125,-2.4125,-2.4125,-2.4125,-2.4125,-2.4125,-2.4125,-2.4125,-2.4125,-2.4125,-2.4125,-2.4125,-2.4125,-2.4125,-2.4125,-2.4125,-2.4125,-2.4125,-2.4125,-2.4125,-2.4125,-2.4125,-2.4125,-2.4125,-2.4125,-2.4125,-2.4125,-2.4125,-2.4125,-2.4125,-2.4021,-2.355,-2.3263,-2.2858,-2.24,-2.1864,-2.3144,-2.3144,-2.3144,-2.3144,-2.3144,-2.3144,-2.3144,-2.3144,-2.3144,-2.3144,-2.3144,-2.3144,-2.3144,-2.3144,-2.3144,-2.3144,-2.3125,-2.2911,-2.2939,-2.2861,-2.251,-2.2314,-2.2236,-2.1885,-2.1523,-2.1201,-2.0781,-2.0576,-2.0586,-2.0576,-2.0576,-2.0615,-2.0681,-2.0698,-2.0755,-2.1146,-2.1288,-2.1384,-2.1649,-2.1807,-2.1797,-2.1673,-2.159,-2.1538,-2.1145,-2.0814,-2.0679,-2.0255,-1.9862,-1.963,-1.9735,-1.9857,-1.9801,-1.9715,-1.9715,-1.977,-2.0161,-2.042,-2.0549,-2.1123,-2.1502,-2.1628,-2.1815,-2.1877,-2.1877,-2.1951,-2.2013,-2.2075,-2.2075,-2.2249,-2.2677,-2.2494,-2.2677,-2.3628,-2.376,-2.3819,-2.3936,-2.4008,-2.4125,-2.4125,-2.4125,-2.4125,-2.4125,-2.4125,-2.4125,-2.4125,-2.4125,-2.4125,-2.4125,-2.4125,-2.4125,-2.4125,-2.4125,-2.4125,-2.4125,-2.4125,-2.4125,-2.4125,-2.4125,-2.4125,-2.4125,-2.4125,-2.4125,-2.4125,-2.4125,-2.4125,-2.4125,-2.4125,-2.4125,-2.4125,-2.389,-2.3589,-2.3276,-2.2831,-2.2322,-2.3144,-2.3144,-2.3144,-2.3144,-2.3144,-2.3144,-2.3144,-2.3144,-2.3144,-2.3144,-2.3144,-2.3144,-2.3144,-2.3144,-2.3144,-2.3144,-2.3144,-2.3144,-2.3144,-2.3115,-2.29,-2.2744,-2.2685,-2.2314,-2.1894,-2.1465,-2.1035,-2.081,-2.081,-2.0654,-2.0576,-2.0654,-2.0731,-2.0896,-2.0984,-2.1282,-2.1436,-2.1578,-2.1731,-2.1807,-2.1807,-2.1807,-2.1807,-2.1766,-2.1518,-2.1383,-2.1352,-2.1083,-2.0659,-2.0141,-2.0006,-1.9851,-1.9592,-1.9515,-1.9391,-1.9427,-1.9557,-1.9715,-1.9781,-2.0355,-2.0843,-2.0944,-2.1035,-2.1238,-2.1255,-2.1232,-2.1198,-2.1262,-2.1313,-2.1502,-2.1865,-2.1741,-2.1865,-2.2567,-2.2992,-2.3378,-2.3688,-2.3878,-2.3878,-2.3936,-2.3995,-2.4008,-2.4067,-2.4112,-2.4112,-2.4125,-2.4125,-2.4125,-2.4125,-2.4125,-2.4125,-2.4125,-2.4125,-2.4125,-2.4125,-2.4125,-2.4125,-2.4125,-2.4125,-2.4125,-2.4125,-2.4125,-2.4125,-2.4125,-2.4125,-2.4125,-2.4125,-2.4125,-2.4125,-2.4125,-2.4125,-2.3929,-2.3616,-2.3302,-2.2844,-2.3144,-2.3144,-2.3144,-2.3144,-2.3144,-2.3144,-2.3144,-2.3144,-2.3144,-2.3144,-2.3144,-2.3144,-2.3144,-2.3144,-2.3144,-2.3144,-2.3144,-2.3144,-2.3144,-2.3144,-2.3086,-2.3076,-2.3008,-2.2637,-2.2246,-2.1904,-2.1475,-2.125,-2.1143,-2.084,-2.0586,-2.0566,-2.0644,-2.0799,-2.1051,-2.1215,-2.1436,-2.1655,-2.1731,-2.1731,-2.1807,-2.1807,-2.1807,-2.1807,-2.1776,-2.1756,-2.1725,-2.1673,-2.1311,-2.0586,-2.042,-2.0327,-2.0307,-2.0017,-1.9869,-1.9848,-1.9385,-1.9339,-1.9379,-1.9951,-2.0401,-2.0717,-2.0941,-2.127,-2.1417,-2.1082,-2.0888,-2.0865,-2.085,-2.0933,-2.0996,-2.0933,-2.0996,-2.1198,-2.2051,-2.2859,-2.3437,-2.3556,-2.3616,-2.3688,-2.376,-2.3891,-2.3891,-2.3936,-2.4054,-2.4067,-2.4067,-2.4067,-2.4125,-2.4125,-2.4125,-2.4112,-2.4112,-2.4125,-2.4125,-2.4125,-2.4125,-2.4125,-2.4112,-2.4054,-2.4112,-2.4125,-2.4125,-2.4125,-2.4125,-2.4125,-2.4125,-2.4125,-2.4125,-2.4125,-2.4125,-2.4125,-2.3942,-2.3616,-2.3245,-2.3144,-2.3144,-2.3144,-2.3144,-2.3144,-2.3144,-2.3144,-2.3144,-2.3144,-2.3144,-2.3144,-2.3144,-2.3144,-2.3144,-2.3144,-2.3144,-2.3144,-2.3144,-2.3144,-2.3144,-2.3144,-2.3144,-2.3057,-2.2725,-2.2471,-2.2295,-2.1924,-2.1553,-2.125,-2.1133,-2.0898,-2.0566,-2.0771,-2.0839,-2.0994,-2.1128,-2.1359,-2.1512,-2.1578,-2.1655,-2.1807,-2.1807,-2.1807,-2.1807,-2.1807,-2.1807,-2.1807,-2.1807,-2.1559,-2.0979,-2.0586,-2.041,-2.0462,-2.0327,-2.0255,-2.0224,-2.0131,-2.0038,-2.0038,-2.0156,-2.038,-2.0485,-2.0626,-2.0599,-2.0764,-2.0371,-2.0215,-2.0119,-1.9895,-1.9922,-2.0183,-1.9977,-1.9911,-2.042,-2.1479,-2.2433,-2.2738,-2.3245,-2.3616,-2.3616,-2.3628,-2.3628,-2.37,-2.376,-2.3806,-2.3936,-2.3949,-2.3949,-2.3995,-2.4054,-2.3995,-2.4054,-2.4112,-2.4112,-2.4125,-2.4125,-2.4125,-2.4125,-2.4054,-2.4054,-2.4054,-2.4125,-2.4125,-2.4125,-2.4067,-2.4067,-2.4067,-2.4067,-2.4125,-2.4054,-2.4054,-2.3995,-2.4067,-2.3858,-2.3527,-2.3144,-2.3144,-2.3144,-2.3144,-2.3144,-2.3144,-2.3144,-2.3144,-2.3144,-2.3144,-2.3144,-2.3144,-2.3144,-2.3144,-2.3144,-2.3144,-2.3144,-2.3144,-2.3144,-2.3144,-2.3144,-2.3144,-2.3076,-2.2852,-2.2783,-2.2725,-2.2344,-2.2041,-2.1797,-2.1611,-2.1269,-2.0937,-2.0938,-2.1006,-2.0906,-2.0984,-2.1215,-2.1359,-2.1425,-2.1578,-2.1655,-2.1731,-2.1807,-2.1807,-2.1807,-2.1807,-2.1807,-2.1807,-2.1662,-2.1404,-2.1155,-2.1,-2.0979,-2.0803,-2.0721,-2.071,-2.0545,-2.04,-2.041,-2.042,-2.0524,-2.0617,-2.0565,-2.0545,-2.0576,-2.0307,-2.0038,-2.0076,-1.9624,-1.9676,-1.9772,-1.9456,-1.9351,-1.9715,-2.0719,-2.1553,-2.1815,-2.2494,-2.2871,-2.3053,-2.3245,-2.3509,-2.3509,-2.3569,-2.3641,-2.37,-2.376,-2.3819,-2.3819,-2.3865,-2.3923,-2.3923,-2.3995,-2.3936,-2.3936,-2.3878,-2.3543,-2.3556,-2.3543,-2.3603,-2.3865,-2.3936,-2.4054,-2.4054,-2.4008,-2.3949,-2.3878,-2.3878,-2.3878,-2.3819,-2.3878,-2.3878,-2.3878,-2.3936,-2.3619,-2.3144,-2.3144,-2.3144,-2.3144,-2.3144,-2.3144,-2.3144,-2.3144,-2.3144,-2.3144,-2.3144,-2.3144,-2.3144,-2.3144,-2.3144,-2.3144,-2.3144,-2.3144,-2.3144,-2.3144,-2.3144,-2.3144,-2.3135,-2.3096,-2.3066,-2.3027,-2.2734,-2.2529,-2.2334,-2.207,-2.1728,-2.1367,-2.126,-2.1115,-2.1006,-2.0888,-2.0984,-2.1128,-2.1282,-2.1436,-2.1502,-2.1578,-2.1655,-2.1731,-2.1807,-2.1807,-2.1807,-2.1807,-2.1787,-2.1797,-2.1807,-2.1725,-2.1694,-2.1362,-2.1217,-2.1145,-2.0897,-2.069,-2.0607,-2.071,-2.0783,-2.1052,-2.0824,-2.0721,-2.1,-2.0772,-2.0503,-2.0503,-2.0089,-1.9889,-1.9781,-1.9443,-1.9245,-1.9372,-1.9781,-2.0291,-2.0869,-2.1604,-2.2101,-2.2163,-2.2871,-2.3271,-2.3403,-2.345,-2.3569,-2.3569,-2.3569,-2.3628,-2.3688,-2.3747,-2.3675,-2.3675,-2.3747,-2.3832,-2.37,-2.3628,-2.3113,-2.2798,-2.2725,-2.2786,-2.3305,-2.3497,-2.3819,-2.3878,-2.3688,-2.3497,-2.3437,-2.3437,-2.3378,-2.3318,-2.3185,-2.3305,-2.3497,-2.3688,-2.3533,-2.3144,-2.3144,-2.3144,-2.3144,-2.3144,-2.3144,-2.3144,-2.3144,-2.3144,-2.3144,-2.3144,-2.3144,-2.3144,-2.3144,-2.3144,-2.3144,-2.3144,-2.3144,-2.3144,-2.3144,-2.3144,-2.3144,-2.3144,-2.3144,-2.3144,-2.3105,-2.3057,-2.2832,-2.2559,-2.2422,-2.2158,-2.1768,-2.1484,-2.1191,-2.1144,-2.084,-2.0741,-2.0974,-2.1061,-2.1128,-2.1282,-2.1359,-2.1436,-2.1589,-2.1655,-2.1807,-2.1807,-2.1807,-2.1807,-2.1807,-2.1807,-2.1731,-2.1776,-2.1694,-2.1611,-2.158,-2.1549,-2.1466,-2.1487,-2.1435,-2.1528,-2.1559,-2.1487,-2.1549,-2.158,-2.1238,-2.1,-2.0897,-2.0555,-2.0172,-1.9841,-1.9686,-1.9448,-1.9287,-1.9295,-1.9462,-1.9781,-2.1037,-2.1854,-2.2175,-2.2689,-2.3138,-2.3138,-2.3138,-2.3258,-2.339,-2.345,-2.345,-2.3497,-2.3556,-2.3497,-2.3497,-2.3569,-2.3582,-2.3125,-2.2932,-2.2237,-2.1916,-2.1854,-2.1854,-2.2359,-2.3005,-2.3185,-2.3245,-2.3173,-2.2992,-2.275,-2.2433,-2.2237,-2.231,-2.2494,-2.275,-2.3053,-2.3305,-2.3365,-2.2969,-2.2969,-2.3057,-2.3144,-2.3144,-2.3144,-2.3144,-2.3144,-2.3144,-2.3144,-2.3144,-2.3144,-2.3144,-2.3144,-2.3144,-2.3144,-2.3144,-2.3144,-2.3144,-2.3144,-2.3144,-2.3144,-2.3144,-2.3144,-2.3144,-2.3144,-2.3135,-2.2988,-2.2852,-2.2754,-2.2598,-2.2207,-2.1924,-2.1611,-2.1289,-2.0996,-2.086,-2.0761,-2.0829,-2.0984,-2.1051,-2.1128,-2.1205,-2.1359,-2.1436,-2.1512,-2.1512,-2.1578,-2.1665,-2.1655,-2.1655,-2.1731,-2.1807,-2.1807,-2.1807,-2.1807,-2.1807,-2.1807,-2.1797,-2.1807,-2.1787,-2.1807,-2.1807,-2.1807,-2.1787,-2.1559,-2.1466,-2.1342,-2.101,-2.0565,-2.012,-1.982,-1.9613,-1.9437,-1.9199,-1.9152,-1.932,-2.0344,-2.1302,-2.1616,-2.2175,-2.2689,-2.2884,-2.2763,-2.2884,-2.3005,-2.2689,-2.2738,-2.3271,-2.3318,-2.3318,-2.3318,-2.345,-2.3258,-2.2677,-2.2051,-2.1239,-2.0974,-2.0974,-2.091,-2.1049,-2.1803,-2.2567,-2.2433,-2.231,-2.2113,-2.1803,-2.1491,-2.1428,-2.1865,-2.2175,-2.2359,-2.2494,-2.2738,-2.2738,-2.2794,-2.2794,-2.2969,-2.3057,-2.3057,-2.3047,-2.3047,-2.3047,-2.3057,-2.3144,-2.3144,-2.3144,-2.3144,-2.3144,-2.3144,-2.3144,-2.3144,-2.3144,-2.3144,-2.3144,-2.3144,-2.3144,-2.3144,-2.3144,-2.3144,-2.3144,-2.3144,-2.3105,-2.3115,-2.3115,-2.29,-2.2627,-2.25,-2.2129,-2.1592,-2.1338,-2.1143,-2.0879,-2.0918,-2.0898,-2.0906,-2.0964,-2.1041,-2.1128,-2.1205,-2.1292,-2.1292,-2.1359,-2.1436,-2.1425,-2.1436,-2.1589,-2.1665,-2.1731,-2.1807,-2.1807,-2.1807,-2.1807,-2.1807,-2.1807,-2.1807,-2.1807,-2.1807,-2.1807,-2.1797,-2.1776,-2.1745,-2.1652,-2.1393,-2.1031,-2.0576,-2.0307,-1.9996,-1.9785,-1.9375,-1.9178,-1.9208,-1.9649,-2.0226,-2.0869,-2.1491,-2.2063,-2.2249,-2.2187,-2.2445,-2.2555,-2.2175,-2.2113,-2.2628,-2.2957,-2.2884,-2.3065,-2.3138,-2.2689,-2.2125,-2.1416,-2.0537,-2.0215,-2.015,-2.0085,-2.0096,-2.0473,-2.1175,-2.1502,-2.1376,-2.1187,-2.0921,-2.0677,-2.0858,-2.1479,-2.1542,-2.1428,-2.1678,-2.2113,-2.2113,-2.2618,-2.2803,-2.2794,-2.2891,-2.2882,-2.3057,-2.2969,-2.2882,-2.3057,-2.3144,-2.3144,-2.3144,-2.3144,-2.3144,-2.3144,-2.3144,-2.3144,-2.3144,-2.3144,-2.3144,-2.3144,-2.3144,-2.3144,-2.3144,-2.3144,-2.3144,-2.3144,-2.3144,-2.3144,-2.3125,-2.3066,-2.2959,-2.2705,-2.2373,-2.2187,-2.1953,-2.1562,-2.1162,-2.1154,-2.0997,-2.0859,-2.0741,-2.0809,-2.0984,-2.1051,-2.1128,-2.1205,-2.1205,-2.1282,-2.1282,-2.1205,-2.1292,-2.1359,-2.1425,-2.1578,-2.1731,-2.1731,-2.1731,-2.1741,-2.1731,-2.1807,-2.1807,-2.1731,-2.1731,-2.1807,-2.1731,-2.1731,-2.1787,-2.1704,-2.1487,-2.1052,-2.0824,-2.0472,-2.0038,-1.9744,-1.9536,-1.9266,-1.9274,-1.9584,-2.0226,-2.0805,-2.1376,-2.1565,-2.1628,-2.1628,-2.1678,-2.1491,-2.1428,-2.1753,-2.2063,-2.2237,-2.2494,-2.2811,-2.2187,-2.1502,-2.073,-2.0031,-1.9649,-1.9518,-1.9518,-1.9452,-1.933,-1.9649,-2.0366,-2.056,-2.0355,-2.0096,-1.9911,-1.9966,-2.0398,-2.0409,-2.0355,-2.0921,-2.1428,-2.1365,-2.2362,-2.2451,-2.253,-2.2618,-2.2618,-2.2882,-2.2882,-2.2803,-2.2969,-2.3144,-2.3144,-2.3144,-2.3144,-2.3144,-2.3144,-2.3144,-2.3144,-2.3144,-2.3144,-2.3144,-2.3144,-2.3144,-2.3144,-2.3144,-2.3144,-2.3144,-2.3144,-2.3144,-2.3144,-2.3144,-2.3144,-2.3096,-2.291,-2.2734,-2.2519,-2.2295,-2.1982,-2.1641,-2.1367,-2.1162,-2.0889,-2.0723,-2.0664,-2.0731,-2.0809,-2.0886,-2.0886,-2.0974,-2.1051,-2.1061,-2.1051,-2.1128,-2.1128,-2.1205,-2.1272,-2.1425,-2.1512,-2.1512,-2.1512,-2.1512,-2.1436,-2.1512,-2.1512,-2.1512,-2.1502,-2.1502,-2.1578,-2.1655,-2.1797,-2.1725,-2.1487,-2.128,-2.0907,-2.0514,-2.0089,-1.9717,-1.9448,-1.921,-1.9383,-1.9671,-2.0161,-2.0677,-2.106,-2.106,-2.0869,-2.0805,-2.0741,-2.0805,-2.0933,-2.1239,-2.1604,-2.1741,-2.1939,-2.1428,-2.0805,-2.0226,-1.9715,-1.933,-1.9131,-1.9131,-1.9131,-1.9131,-1.9264,-1.9726,-1.9726,-1.9715,-1.9584,-1.9462,-1.9386,-1.9386,-1.9584,-1.9901,-2.0355,-2.0677,-2.0613,-2.2008,-2.2097,-2.2274,-2.2353,-2.2353,-2.2618,-2.2715,-2.2715,-2.2969,-2.3057,-2.3057,-2.3057,-2.3144,-2.3144,-2.3144,-2.3144,-2.3144,-2.3144,-2.3144,-2.3144,-2.3144,-2.3144,-2.3144,-2.3144,-2.3144,-2.3144,-2.3144,-2.3144,-2.3144,-2.3144,-2.3144,-2.3125,-2.3135,-2.3008,-2.2715,-2.2656,-2.2373,-2.2041,-2.1699,-2.1465,-2.1172,-2.082,-2.0576,-2.0576,-2.0576,-2.0644,-2.0654,-2.0731,-2.0809,-2.0819,-2.0819,-2.0906,-2.1051,-2.0896,-2.0906,-2.1051,-2.1128,-2.1215,-2.1215,-2.1215,-2.1292,-2.1292,-2.1215,-2.1205,-2.1205,-2.1282,-2.1282,-2.1502,-2.1578,-2.1721,-2.1694,-2.1476,-2.1228,-2.0959,-2.0452,-1.9944,-1.9775,-1.9536,-1.922,-1.9491,-1.9736,-1.9966,-2.0291,-2.0302,-2.0042,-2.0031,-1.9966,-2.0031,-2.0226,-2.0613,-2.0921,-2.0985,-2.0933,-2.0537,-2.0096,-1.9781,-1.9396,-1.9198,-1.9131,-1.9131,-1.9131,-1.9131,-1.9264,-1.9396,-1.933,-1.933,-1.9131,-1.9131,-1.9198,-1.9264,-1.9198,-1.9386,-1.9835,-1.9966,-1.9901,-2.1919,-2.2106,-2.2097,-2.2097,-2.2185,-2.2353,-2.2362,-2.2274,-2.2715,-2.2794,-2.2882,-2.3057,-2.3144,-2.3144,-2.3144,-2.3144,-2.3144,-2.3144,-2.3144,-2.3144,-2.3144,-2.3144,-2.3144,-2.3144,-2.3144,-2.3144,-2.3144,-2.3144,-2.3144,-2.3144,-2.3144,-2.3144,-2.3135,-2.3096,-2.2998,-2.2969,-2.2852,-2.251,-2.2363,-2.1963,-2.1299,-2.081,-2.0644,-2.0576,-2.0576,-2.0576,-2.0576,-2.0654,-2.0654,-2.0654,-2.0654,-2.0644,-2.0634,-2.0634,-2.0644,-2.0799,-2.0964,-2.1215,-2.1138,-2.1138,-2.1128,-2.1128,-2.1128,-2.1215,-2.1138,-2.1138,-2.1205,-2.1512,-2.1512,-2.1589,-2.1655,-2.168,-2.1507,-2.1195,-2.0865,-2.0389,-2.0006,-1.9527,-1.9291,-1.9168,-1.9341,-1.933,-1.9462,-1.9341,-1.9274,-1.9264,-1.933,-1.9396,-1.9518,-1.9966,-2.0291,-2.0355,-2.0291,-1.9977,-1.9781,-1.9396,-1.9264,-1.9131,-1.9131,-1.9131,-1.9131,-1.9131,-1.9131,-1.9198,-1.9131,-1.9131,-1.9131,-1.9131,-1.9131,-1.9131,-1.9131,-1.9131,-1.9198,-1.9264,-1.9386,-2.1741,-2.183,-2.1919,-2.1919,-2.1919,-2.2097,-2.2185,-2.2195,-2.2618,-2.2803,-2.2803,-2.3047,-2.3144,-2.3047,-2.3144,-2.3144,-2.3144,-2.3144,-2.3144,-2.3144,-2.3144,-2.3144,-2.3144,-2.3144,-2.3144,-2.3144,-2.3144,-2.3144,-2.3144,-2.3144,-2.3144,-2.3144,-2.3144,-2.3135,-2.3144,-2.3144,-2.3047,-2.2842,-2.2588,-2.206,-2.1416,-2.1045,-2.083,-2.0586,-2.0576,-2.0576,-2.0576,-2.0576,-2.0576,-2.0576,-2.0576,-2.0566,-2.0566,-2.0566,-2.0566,-2.0634,-2.0722,-2.0809,-2.0886,-2.0886,-2.0886,-2.0886,-2.0886,-2.0809,-2.0886,-2.0974,-2.1061,-2.1128,-2.1282,-2.1349,-2.1436,-2.1436,-2.141,-2.1292,-2.1066,-2.0606,-2.0104,-1.9634,-1.9259,-1.9121,-1.8942,-1.9008,-1.9008,-1.9075,-1.9142,-1.9198,-1.9198,-1.9264,-1.9264,-1.9396,-1.9584,-1.9715,-1.9649,-1.9462,-1.9396,-1.9198,-1.9198,-1.9131,-1.9131,-1.9131,-1.9131,-1.9131,-1.9131,-1.9142,-1.9075,-1.9075,-1.9065,-1.9065,-1.9075,-1.9142,-1.9131,-1.9065,-1.9065,-1.9131,-1.9198,-2.1454,-2.1731,-2.1731,-2.1731,-2.1731,-2.1919,-2.2008,-2.2097,-2.2441,-2.2627,-2.2706,-2.2882,-2.3057,-2.3057,-2.3057,-2.3144,-2.3144,-2.3144,-2.3144,-2.3144,-2.3144,-2.3144,-2.3144,-2.3144,-2.3144,-2.3144,-2.3144,-2.3144,-2.3144,-2.3144,-2.3144,-2.3144,-2.3144,-2.3144,-2.3144,-2.3144,-2.3105,-2.2979,-2.2705,-2.2207,-2.168,-2.1348,-2.1064,-2.081,-2.0644,-2.0576,-2.0576,-2.0576,-2.0576,-2.0576,-2.0576,-2.0576,-2.0576,-2.0576,-2.0576,-2.0566,-2.0644,-2.0654,-2.0654,-2.0654,-2.0576,-2.0576,-2.0576,-2.0654,-2.0644,-2.0741,-2.0916,-2.0906,-2.1061,-2.1138,-2.1205,-2.1215,-2.1252,-2.1217,-2.0989,-2.065,-2.0254,-1.9788,-1.9384,-1.9109,-1.9012,-1.8808,-1.8875,-1.8942,-1.9008,-1.9065,-1.9131,-1.9065,-1.9065,-1.9075,-1.9208,-1.9396,-1.933,-1.9264,-1.9198,-1.9131,-1.9131,-1.9065,-1.9065,-1.9065,-1.9075,-1.9065,-1.9131,-1.9142,-1.9075,-1.9008,-1.8931,-1.9008,-1.9075,-1.9075,-1.9065,-1.9065,-1.9065,-1.9065,-1.9131,-2.0907,-2.1731,-2.1731,-2.1731,-2.1731,-2.1731,-2.1731,-2.183,-2.2097,-2.2185,-2.2274,-2.2627,-2.2891,-2.2882,-2.3057,-2.3144,-2.3144,-2.3144,-2.3144,-2.3144,-2.3144,-2.3144,-2.3144,-2.3144,-2.3144,-2.3144,-2.3144,-2.3144,-2.3144,-2.3144,-2.3144,-2.3144,-2.3144,-2.3144,-2.3144,-2.3144,-2.3144,-2.3076,-2.2773,-2.2559,-2.2119,-2.1719,-2.125,-2.1094,-2.0801,-2.0576,-2.0576,-2.0576,-2.0576,-2.0576,-2.0576,-2.0576,-2.0576,-2.0576,-2.0576,-2.0576,-2.0576,-2.0576,-2.0576,-2.0576,-2.0576,-2.0576,-2.0576,-2.0576,-2.0644,-2.0566,-2.0741,-2.0829,-2.0906,-2.0974,-2.1128,-2.1215,-2.1128,-2.1088,-2.0948,-2.0697,-2.0336,-2.0025,-1.9615,-1.9233,-1.901,-1.8866,-1.8741,-1.8808,-1.8808,-1.8875,-1.8942,-1.8942,-1.8942,-1.8942,-1.9008,-1.9075,-1.9142,-1.9075,-1.9065,-1.9065,-1.8998,-1.9008,-1.9008,-1.9008,-1.9008,-1.9075,-1.8942,-1.8942,-1.8885,-1.8875,-1.8808,-1.8808,-1.8808,-1.9008,-1.9008,-1.9008,-1.9008,-1.9075,-1.9065,-2.0529,-2.0907,-2.1454,-2.1731,-2.1731,-2.1731,-2.1731,-2.1741,-2.2008,-2.2185,-2.2264,-2.2627,-2.2803,-2.2891,-2.2969,-2.3144,-2.3144,-2.3144,-2.3144,-2.3144,-2.3144,-2.3144,-2.3144,-2.3144,-2.3144,-2.3144,-2.3144,-2.3144,-2.3144,-2.3144,-2.3144,-2.3144,-2.3144,-2.3144,-2.3144,-2.3144,-2.3144,-2.3115,-2.2959,-2.2803,-2.2402,-2.1992,-2.1514,-2.1211,-2.081,-2.0596,-2.0576,-2.0576,-2.0576,-2.0576,-2.0576,-2.0576,-2.0576,-2.0576,-2.0576,-2.0576,-2.0576,-2.0576,-2.0576,-2.0576,-2.0576,-2.0576,-2.0576,-2.0576,-2.0576,-2.0576,-2.0644,-2.0654,-2.0741,-2.0809,-2.0809,-2.0809,-2.0809,-2.0896,-2.0884,-2.0695,-2.0456,-2.0148,-1.979,-1.9322,-1.9034,-1.8754,-1.871,-1.8607,-1.8617,-1.8684,-1.8741,-1.8741,-1.8808,-1.8808,-1.8808,-1.8808,-1.8808,-1.8818,-1.8808,-1.8808,-1.8875,-1.8875,-1.8875,-1.8875,-1.8885,-1.8751,-1.8684,-1.8684,-1.8684,-1.8674,-1.8607,-1.8539,-1.8607,-1.8751,-1.8818,-1.8885,-1.8952,-1.9008,-1.9008,-1.9795,-2.0348,-2.0718,-2.1186,-2.1642,-2.1731,-2.1731,-2.1741,-2.1919,-2.2008,-2.2176,-2.2539,-2.2715,-2.2706,-2.2969,-2.3144,-2.3144,-2.3144,-2.3144,-2.3144,-2.3144,-2.3144,-2.3144,-2.3144,-2.3144,-2.3144,-2.3144,-2.3144,-2.3144,-2.3144,-2.3144,-2.3144,-2.3144,-2.3144,-2.3144,-2.3144,-2.3144,-2.3144,-2.3105,-2.3027,-2.2666,-2.2295,-2.1865,-2.1465,-2.1035,-2.0713,-2.0625,-2.0576,-2.0576,-2.0576,-2.0576,-2.0576,-2.0576,-2.0576,-2.0576,-2.0576,-2.0576,-2.0576,-2.0576,-2.0576,-2.0576,-2.0576,-2.0576,-2.0576,-2.0576,-2.0576,-2.0644,-2.0644,-2.0654,-2.0576,-2.0576,-2.0654,-2.0722,-2.0809,-2.0722,-2.0574,-2.0397,-2.0121,-1.9767,-1.9383,-1.909,-1.8755,-1.8596,-1.8476,-1.8482,-1.8549,-1.8617,-1.8617,-1.8617,-1.8617,-1.8617,-1.8617,-1.8617,-1.8549,-1.8482,-1.8617,-1.8674,-1.8674,-1.8674,-1.8674,-1.8617,-1.8482,-1.8482,-1.8549,-1.8549,-1.8472,-1.8405,-1.8405,-1.8414,-1.8482,-1.8617,-1.8684,-1.8818,-1.8885,-1.8875,-1.8603,-2.0068,-1.943,-2.0076,-2.1553,-2.1651,-2.1651,-2.1642,-2.1741,-2.1731,-2.182,-2.2176,-2.2441,-2.252,-2.2794,-2.2969,-2.3057,-2.3057,-2.3057,-2.3057,-2.3057,-2.3057,-2.3144,-2.3144,-2.3144,-2.3144,-2.3144,-2.3144,-2.3144,-2.3144,-2.3144,-2.3144,-2.3144,-2.3144,-2.3144,-2.3144,-2.3144,-2.3144,-2.3144,-2.3096,-2.2969,-2.2617,-2.2197,-2.1768,-2.1328,-2.0957,-2.0644,-2.0576,-2.0576,-2.0576,-2.0576,-2.0576,-2.0576,-2.0576,-2.0576,-2.0576,-2.0576,-2.0576,-2.0576,-2.0576,-2.0576,-2.0576,-2.0576,-2.0576,-2.0576,-2.0576,-2.0576,-2.0576,-2.0576,-2.0576,-2.0576,-2.0576,-2.0644,-2.0644,-2.0644,-2.0605,-2.0419,-2.0311,-1.9977,-1.9605,-1.9177,-1.8814,-1.8527,-1.836,-1.8281,-1.8347,-1.8482,-1.8482,-1.8414,-1.8414,-1.8347,-1.8347,-1.8347,-1.8347,-1.8347,-1.8414,-1.8482,-1.8472,-1.8472,-1.8472,-1.8414,-1.8347,-1.8414,-1.8414,-1.8414,-1.8269,-1.8269,-1.8269,-1.8347,-1.8357,-1.8482,-1.8549,-1.8684,-1.8751,-1.8751,-1.8696,-1.9338,-2.0357,-2.0718,-2.0808,-2.0808,-2.1087,-2.1642,-2.1731,-2.1731,-2.1731,-2.2087,-2.2185,-2.2274,-2.2441,-2.2706,-2.2706,-2.2882,-2.2882,-2.2882,-2.3057,-2.3057,-2.3135,-2.3047,-2.3144,-2.3144,-2.3144,-2.3144,-2.3144,-2.3144,-2.3144,-2.3144,-2.3144,-2.3144,-2.3144,-2.3144,-2.3144,-2.3144,-2.3144,-2.3125,-2.3096,-2.2744,-2.2344,-2.1924,-2.1494,-2.1064,-2.0644,-2.0615,-2.0576,-2.0576,-2.0576,-2.0576,-2.0576,-2.0576,-2.0576,-2.0576,-2.0576,-2.0576,-2.0576,-2.0576,-2.0576,-2.0576,-2.0576,-2.0576,-2.0576,-2.0576,-2.0576,-2.0576,-2.0576,-2.0576,-2.0576,-2.0576,-2.0644,-2.0566,-2.0566,-2.0566,-2.0478,-2.0507,-2.0311,-1.9824,-1.9429,-1.8762,-1.835,-1.8242,-1.8203,-1.8144,-1.8212,-1.8212,-1.8212,-1.8144,-1.8144,-1.8144,-1.8144,-1.8144,-1.8212,-1.8279,-1.8279,-1.8279,-1.8269,-1.8269,-1.8279,-1.8212,-1.8212,-1.8212,-1.8144,-1.8076,-1.8134,-1.8144,-1.8144,-1.8154,-1.8279,-1.8414,-1.8549,-1.8617,-1.8674,-1.8419,-1.9338,-1.9513,-1.9977,-2.0249,-2.0619,-2.1177,-2.1642,-2.1731,-2.1731,-2.1731,-2.2008,-2.2106,-2.2185,-2.2264,-2.2441,-2.2441,-2.253,-2.2618,-2.2706,-2.2882,-2.2969,-2.296,-2.3047,-2.3135,-2.3144,-2.3144,-2.3144,-2.3144,-2.3144,-2.3144,-2.3144,-2.3144,-2.3144,-2.3144,-2.3144,-2.3144,-2.3144,-2.3144,-2.3135,-2.3066,-2.2852,-2.2549,-2.2139,-2.1719,-2.1269,-2.0898,-2.0684,-2.0576,-2.0576,-2.0576,-2.0576,-2.0576,-2.0576,-2.0576,-2.0576,-2.0576,-2.0576,-2.0576,-2.0576,-2.0576,-2.0576,-2.0576,-2.0576,-2.0576,-2.0576,-2.0576,-2.0576,-2.0576,-2.0576,-2.0576,-2.0576,-2.0576,-2.0576,-2.0576,-2.0576,-2.0566,-2.0518,-2.0478,-2.0068,-1.9531,-1.8867,-1.8223,-1.8135,-1.8018,-1.8008,-1.8008,-1.8008,-1.8008,-1.8008,-1.8008,-1.8008,-1.8008,-1.8076,-1.8076,-1.8144,-1.8076,-1.8008,-1.8076,-1.8134,-1.8144,-1.8076,-1.8008,-1.8008,-1.8008,-1.8076,-1.8008,-1.8008,-1.8076,-1.8076,-1.8144,-1.8279,-1.8414,-1.8414,-1.8472,-1.7669,-1.9704,-1.7217,-1.7863,-2.0167,-2.1186,-2.1642,-2.1642,-2.1642,-2.1642,-2.1731,-2.1919,-2.2008,-2.2097,-2.2264,-2.2353,-2.2353,-2.2344,-2.2441,-2.253,-2.2706,-2.2794,-2.2882,-2.296,-2.3047,-2.3144,-2.3144,-2.3144,-2.3144,-2.3144,-2.3144,-2.3144,-2.3144,-2.3144,-2.3144,-2.3144,-2.3144,-2.3144,-2.3144,-2.3144,-2.3096,-2.3086,-2.2783,-2.2422,-2.206,-2.1621,-2.1221,-2.0889,-2.0684,-2.0605,-2.0576,-2.0576,-2.0576,-2.0576,-2.0576,-2.0576,-2.0576,-2.0576,-2.0576,-2.0576,-2.0576,-2.0576,-2.0576,-2.0576,-2.0576,-2.0576,-2.0576,-2.0576,-2.0576,-2.0576,-2.0576,-2.0576,-2.0576,-2.0576,-2.0576,-2.0576,-2.0576,-2.0557,-2.0557,-2.0215,-1.9658,-1.9004,-1.8252,-1.8008,-1.8008,-1.8008,-1.8008,-1.8008,-1.8008,-1.8008,-1.8008,-1.8008,-1.8008,-1.8008,-1.8008,-1.8076,-1.8008,-1.8008,-1.8008,-1.8076,-1.8008,-1.8008,-1.8008,-1.8008,-1.8008,-1.8008,-1.8008,-1.8008,-1.8008,-1.8008,-1.8076,-1.8144,-1.8347,-1.8212,-1.8144,-1.888,-2.0158,-1.933,-1.9513,-2.0348,-2.1275,-2.1731,-2.1642,-2.1087,-2.0997,-2.1731,-2.1741,-2.183,-2.182,-2.1909,-2.1919,-2.2008,-2.2097,-2.2176,-2.2353,-2.253,-2.2715,-2.2891,-2.296,-2.3057,-2.3144,-2.3144,-2.3144,-2.3144,-2.3144,-2.3144,-2.3144,-2.3144,-2.3144,-2.3144,-2.3144,-2.3144,-2.3057,-2.3057,-2.3144,-2.3144,-2.3144,-2.2891,-2.2598,-2.2393,-2.1851,-2.1306,-2.1053,-2.0819,-2.0615,-2.0586,-2.0576,-2.0576,-2.0576,-2.0576,-2.0576,-2.0576,-2.0576,-2.0576,-2.0576,-2.0576,-2.0576,-2.0576,-2.0576,-2.0576,-2.0576,-2.0576,-2.0576,-2.0576,-2.0576,-2.0576,-2.0576,-2.0576,-2.0576,-2.0576,-2.0576,-2.0576,-2.0576,-2.0547,-2.0166,-1.9619,-1.8994,-1.8262,-1.8008,-1.8008,-1.8008,-1.8008,-1.8008,-1.8008,-1.8008,-1.8008,-1.8008,-1.8008,-1.8008,-1.8008,-1.8008,-1.8008,-1.8008,-1.8008,-1.8008,-1.8008,-1.8008,-1.8008,-1.8008,-1.8008,-1.8008,-1.8008,-1.8008,-1.8008,-1.8008,-1.8008,-1.8144,-1.8212,-1.8076,-1.8008,-1.9072,-2.0158,-1.9886,-1.9886,-2.0257,-2.0447,-2.0907,-2.1463,-2.1087,-2.1177,-2.1642,-2.1731,-2.1731,-2.1731,-2.1731,-2.1731,-2.1731,-2.183,-2.1919,-2.2087,-2.2441,-2.253,-2.2706,-2.2969,-2.3057,-2.3144,-2.3144,-2.3144,-2.3047,-2.3135,-2.3144,-2.3144,-2.3144,-2.3144,-2.3144,-2.3057,-2.3047,-2.3057,-2.3057,-2.3057,-2.3057,-2.3047,-2.2862,-2.2697,-2.2485,-2.1952,-2.1318,-2.1153,-2.0767,-2.041,-2.0333,-2.0333,-2.0333,-2.042,-2.0489,-2.0489,-2.0566,-2.0498,-2.0498,-2.0566,-2.0566,-2.0566,-2.0566,-2.0576,-2.0576,-2.0576,-2.0576,-2.0576,-2.0576,-2.0576,-2.0576,-2.0576,-2.0576,-2.0576,-2.0576,-2.0576,-2.0576,-2.0576,-2.0332,-2.0,-1.9482,-1.8887,-1.8437,-1.8174,-1.8008,-1.8008,-1.8008,-1.8008,-1.8008,-1.8008,-1.8008,-1.8008,-1.8008,-1.8008,-1.8008,-1.8008,-1.8008,-1.8008,-1.8008,-1.8008,-1.8008,-1.8008,-1.8008,-1.8008,-1.8008,-1.8008,-1.8008,-1.8008,-1.8008,-1.8008,-1.8008,-1.8076,-1.8076,-1.8076,-1.8076,-1.8427,-2.0068,-1.9155,-1.9338,-1.9977,-1.9422,-2.0076,-2.1642,-2.1642,-2.1731,-2.1731,-2.1731,-2.1731,-2.1731,-2.1731,-2.1731,-2.1731,-2.1741,-2.1741,-2.1741,-2.2255,-2.2441,-2.2618,-2.2872,-2.3057,-2.3144,-2.3057,-2.3047,-2.3047,-2.2969,-2.2969,-2.3057,-2.3057,-2.3057,-2.3057,-2.3057,-2.2969,-2.2882,-2.2882,-2.2969,-2.3047,-2.3047,-2.296,-2.2795,-2.2428,-2.1939,-2.1341,-2.086,-2.0434,-2.015,-1.9942,-1.9942,-2.002,-2.0098,-2.0255,-2.0255,-2.0333,-2.0333,-2.0333,-2.0411,-2.0489,-2.0489,-2.0566,-2.0566,-2.0576,-2.0576,-2.0576,-2.0576,-2.0576,-2.0576,-2.0576,-2.0576,-2.0576,-2.0576,-2.0576,-2.0576,-2.0576,-2.0488,-2.0234,-1.9893,-1.9453,-1.8857,-1.8281,-1.8008,-1.8008,-1.8008,-1.8008,-1.8008,-1.8008,-1.8008,-1.8008,-1.8008,-1.8008,-1.8008,-1.8008,-1.8008,-1.8008,-1.8008,-1.8008,-1.8008,-1.8008,-1.8008,-1.8008,-1.8008,-1.8008,-1.8008,-1.8008,-1.8008,-1.8008,-1.8008,-1.8008,-1.8008,-1.8008,-1.8008,-1.8008,-1.8056,-1.9155,-1.888,-1.8972,-1.9247,-1.9704,-2.0529,-2.1642,-2.1731,-2.1642,-2.1731,-2.1651,-2.1731,-2.1731,-2.1731,-2.1731,-2.1731,-2.1731,-2.1731,-2.182,-2.2167,-2.2344,-2.2432,-2.2784,-2.3047,-2.3144,-2.3047,-2.296,-2.2882,-2.2706,-2.2618,-2.2608,-2.2706,-2.2882,-2.2882,-2.2882,-2.2794,-2.2706,-2.2706,-2.2706,-2.2794,-2.2882,-2.2784,-2.2687,-2.2408,-2.2111,-2.1636,-2.1248,-2.0851,-2.0491,-2.0093,-1.9979,-1.9951,-1.9942,-2.002,-2.002,-2.0098,-2.0098,-2.0098,-2.0177,-2.0255,-2.0255,-2.0333,-2.042,-2.0498,-2.0576,-2.0576,-2.0576,-2.0576,-2.0576,-2.0576,-2.0576,-2.0576,-2.0576,-2.0576,-2.0576,-2.0576,-2.0371,-2.0156,-1.9756,-1.9365,-1.8848,-1.8252,-1.8008,-1.8008,-1.8008,-1.8008,-1.8008,-1.8008,-1.8008,-1.8008,-1.8008,-1.8008,-1.8008,-1.8008,-1.8008,-1.8008,-1.8008,-1.8008,-1.8008,-1.8008,-1.8008,-1.8008,-1.8008,-1.8008,-1.8008,-1.8008,-1.8008,-1.8008,-1.8008,-1.8008,-1.8008,-1.8008,-1.8008,-1.8008,-1.7606,-1.8156,-1.8603,-1.8796,-1.888,-1.943,-1.9894,-2.0439,-2.0898,-2.1087,-2.1186,-2.1463,-2.1731,-2.1642,-2.1731,-2.1731,-2.1731,-2.1731,-2.1731,-2.182,-2.2087,-2.2264,-2.253,-2.2696,-2.2794,-2.2882,-2.2794,-2.2706,-2.2627,-2.253,-2.2432,-2.2344,-2.253,-2.253,-2.253,-2.2618,-2.253,-2.2451,-2.2353,-2.2353,-2.253,-2.253,-2.253,-2.2451,-2.2306,-2.203,-2.1565,-2.1183,-2.0801,-2.0316,-1.9841,-1.9743,-1.9706,-1.9794,-1.9794,-1.9784,-1.9863,-1.9863,-1.9863,-1.9863,-2.002,-2.002,-2.002,-2.0098,-2.0177,-2.0255,-2.0489,-2.0566,-2.0576,-2.0576,-2.0576,-2.0576,-2.0576,-2.0576,-2.0576,-2.0576,-2.0576,-2.0488,-2.0059,-1.9512,-1.917,-1.8877,-1.835,-1.8008,-1.8008,-1.8008,-1.8008,-1.8008,-1.8008,-1.8008,-1.8008,-1.8008,-1.8008,-1.8008,-1.8008,-1.8008,-1.8008,-1.8008,-1.8008,-1.8008,-1.8008,-1.8008,-1.8008,-1.8008,-1.8008,-1.8008,-1.8008,-1.8008,-1.8008,-1.8008,-1.8008,-1.8008,-1.8008,-1.8008,-1.794,-1.7001,-1.7225,-1.8056,-1.8519,-1.8611,-1.8611,-1.8703,-1.8972,-1.9712,-2.0068,-2.0167,-2.0907,-2.1365,-2.1642,-2.1731,-2.1731,-2.1731,-2.1731,-2.1731,-2.1731,-2.2008,-2.2176,-2.2264,-2.2441,-2.2618,-2.2618,-2.253,-2.2441,-2.2353,-2.2264,-2.2176,-2.2167,-2.2167,-2.2069,-2.2069,-2.198,-2.1704,-2.1802,-2.1811,-2.19,-2.1989,-2.2185,-2.2274,-2.2185,-2.198,-2.1706,-2.1388,-2.1016,-2.0677,-2.0145,-1.9675,-1.9534,-1.9548,-1.9548,-1.9311,-1.939,-1.9539,-1.9469,-1.939,-1.9371,-1.9618,-1.9784,-1.9784,-1.9784,-1.9775,-2.002,-2.0255,-2.0411,-2.0489,-2.0566,-2.0566,-2.0576,-2.0576,-2.0576,-2.0576,-2.0576,-2.0576,-2.0547,-2.001,-1.9404,-1.9092,-1.8848,-1.8418,-1.8066,-1.8008,-1.8008,-1.8008,-1.8008,-1.8008,-1.8008,-1.8008,-1.8008,-1.8008,-1.8008,-1.8008,-1.8008,-1.8008,-1.8008,-1.8008,-1.8008,-1.8008,-1.8008,-1.8008,-1.8008,-1.8008,-1.8008,-1.8008,-1.8008,-1.8008,-1.794,-1.7716,-1.7647,-1.794,-1.7872,-1.7872,-1.5899,-1.6109,-1.6285,-1.6857,-1.7512,-1.7606,-1.8064,-1.8696,-1.8972,-1.9063,-1.9155,-1.9347,-2.0085,-2.1642,-2.1731,-2.1553,-2.1186,-2.1365,-2.1642,-2.1731,-2.1731,-2.1998,-2.2087,-2.2078,-2.2344,-2.2167,-2.19,-2.2087,-2.1535,-2.1544,-2.1365,-2.0799,-2.0872,-2.0593,-1.9869,-1.996,-2.0322,-2.061,-2.0799,-2.0701,-2.0988,-2.1356,-2.2097,-2.2008,-2.1919,-2.1774,-2.1548,-2.1273,-2.0879,-2.0347,-1.9589,-1.927,-1.9143,-1.9143,-1.8895,-1.8656,-1.8886,-1.8816,-1.8727,-1.855,-1.8638,-1.9054,-1.9054,-1.9045,-1.9292,-1.9696,-1.9932,-2.0157,-2.0245,-2.0489,-2.0489,-2.0576,-2.0576,-2.0576,-2.0576,-2.0576,-2.0576,-2.0459,-2.0166,-1.9648,-1.9219,-1.8769,-1.8193,-1.8008,-1.8008,-1.8008,-1.8008,-1.8008,-1.8008,-1.8008,-1.8008,-1.8008,-1.8008,-1.8008,-1.8008,-1.8008,-1.8008,-1.8008,-1.8008,-1.8008,-1.8008,-1.8008,-1.8008,-1.8008,-1.8008,-1.8008,-1.8008,-1.8008,-1.7872,-1.7794,-1.7295,-1.7148,-1.751,-1.7588,-1.7442]}]]